GFSCGP_2pvu_pres_000.txt.gz
Presure
140 172 115 222 224 223 224 223 223 218 218 219 217 217 219 220 221 221 222 224 229 230 224 244 239 233 226 223 218 217 217 135 137 135 207 203 203 210 212 213 204 200 189 185
122 219 198 219 221 226 225 225 223 224 222 218 216 215 217 218 217 219 219 230 242 226 232 230 222 138 157 211 141 227 183 209 203 213 214 213 214 205 205 202 193 186 186 186
221 195 178 126 221 224 223 221 219 218 220 222 223 221 220 227 230 235 233 228 226 221 221 225 182 144 151 214 209 210 213 217 217 212 208 203 208 200 190 189 184 185 185 187
221 218 118 225 225 224 222 224 224 225 231 233 230 228 230 228 225 227 227 222 237 238 223 214 213 217 217 218 218 217 223 224 220 215 198 206 193 189 189 185 185 190 186 191
225 122 130 225 189 236 236 127 124 125 133 222 232 233 225 232 228 224 218 219 221 221 218 216 236 250 244 235 229 223 219 208 205 204 205 206 200 195 190 187 92 202 211 194
237 235 131 234 194 122 124 118 124 226 220 216 215 215 218 220 220 225 225 231 241 235 229 225 219 212 204 203 198 199 202 202 200 196 196 198 206 211 214 205 185 173 184 193
227 228 152 221 224 226 179 225 224 235 231 226 224 223 224 226 230 234 222 213 207 204 200 201 202 206 205 203 204 205 212 217 218 214 203 201 200 205 190 193 194 203 206 198
217 218 205 212 234 242 269 251 233 231 230 236 239 230 214 206 205 198 199 201 198 192 200 204 203 194 199 206 203 199 195 191 184 183 212 211 208 205 204 204 204 196 194 187
212 218 119 252 246 139 227 223 221 216 210 206 203 205 203 196 194 195 197 198 201 202 201 199 194 196 199 199 205 199 200 195 185 195 193 194 205 205 204 196 191 192 200 204
259 117 122 127 196 218 215 213 205 199 202 202 203 197 197 199 205 204 200 197 196 196 194 198 197 200 194 191 192 183 189 192 201 193 193 202 203 193 192 189 199 205 205 208
205 206 221 215 207 205 205 194 196 190 210 205 202 205 203 198 197 193 194 196 202 201 200 198 192 186 190 188 185 120 242 221 200 192 198 199 188 190 204 203 198 214 216 232
218 213 208 203 205 200 197 191 195 206 203 200 200 199 196 193 195 200 199 193 187 187 187 182 219 237 232 236 240 245 224 195 206 204 192 186 201 203 195 209 211 228 240 246
206 200 200 204 205 208 206 199 198 195 191 193 194 197 197 197 193 190 188 188 196 204 221 228 241 243 233 230 225 216 206 203 188 196 204 205 202 208 210 216 220 228 241 251
196 200 197 195 204 197 190 189 195 191 196 197 193 195 190 190 189 194 197 202 204 219 218 221 224 238 221 208 209 207 183 189 204 207 205 209 215 211 209 225 245 238 248 262
188 189 187 189 197 191 193 196 196 196 191 197 196 194 191 195 203 206 204 205 201 213 216 211 220 234 210 198 200 183 191 194 209 207 205 209 214 212 221 225 242 248 260 243
191 190 191 191 185 186 188 193 194 194 189 194 189 195 200 202 201 200 205 208 214 205 210 215 239 211 209 198 196 195 192 207 216 202 214 214 204 221 215 243 243 260 240 254
189 190 191 193 196 194 194 192 193 187 187 194 202 188 194 199 201 201 204 200 202 203 210 227 203 205 202 200 200 197 210 205 207 210 214 198 220 213 235 248 260 277 298 326
189 193 193 188 190 183 185 189 194 194 198 198 197 196 195 198 200 194 211 206 208 204 199 195 202 202 193 193 201 210 203 194 200 206 226 222 212 222 246 259 230 299 323 343
189 193 194 195 193 185 186 198 199 194 191 202 205 197 176 197 201 195 200 212 204 206 193 202 198 200 197 196 207 203 190 198 204 224 218 225 233 247 259 233 270 316 343 468
190 189 191 191 192 189 193 194 191 201 186 198 199 191 198 197 198 201 205 209 222 194 201 197 191 201 199 199 203 210 191 225 221 217 235 241 245 264 232 268 320 352 462 465
196 197 194 193 195 193 195 189 196 199 197 187 193 198 194 201 201 200 202 224 204 202 200 192 203 194 192 204 212 211 225 214 216 234 241 251 252 229 262 321 343 417 417 454
203 199 195 196 196 192 194 191 190 198 140 160 197 195 195 197 199 200 216 229 202 197 195 201 201 194 208 212 212 226 215 222 232 237 239 259 259 262 334 323 450 418 386 431
206 209 209 201 180 198 202 193 191 193 194 193 193 194 198 199 196 206 224 205 192 190 195 200 196 205 216 208 220 225 223 229 237 248 256 265 272 336 353 398 330 395 409 408
211 222 196 196 197 190 109 192 193 198 191 189 190 197 202 207 194 218 206 195 186 200 199 204 213 215 213 219 235 222 230 241 203 253 213 273 286 340 307 339 398 380 433 384
199 195 158 85 165 187 189 196 194 188 189 199 205 208 199 208 218 203 191 196 196 203 212 214 219 218 226 229 224 238 245 232 255 210 276 282 330 307 326 386 379 381 415 372
102 176 192 189 189 195 196 191 190 201 208 202 196 213 212 213 199 194 199 198 208 213 213 218 219 230 229 235 239 254 244 264 244 278 288 324 317 322 391 380 365 430 397 363

GFSCGP_2pvu_pres_003.txt.gz
Presure
249 246 245 232 227 116 122 141 226 228 228 227 225 224 223 220 220 222 225 224 225 224 223 223 223 222 219 240 236 244 225 219 216 143 228 208 204 216 216 217 212 209 200 201
230 232 231 129 118 122 187 128 219 218 167 220 219 220 223 223 222 223 222 218 217 219 219 221 236 218 221 225 218 215 223 227 215 209 220 221 223 225 219 216 208 203 195 198
209 165 127 124 174 174 118 132 222 223 222 220 221 218 217 220 222 221 219 220 228 233 233 225 226 232 225 218 219 215 221 173 231 232 226 220 214 208 200 198 195 193 193 193
219 172 127 129 213 211 219 222 222 220 217 213 215 213 216 218 224 233 231 228 223 229 218 218 215 218 225 233 173 217 235 222 206 202 200 199 199 195 195 197 199 200 198 199
214 218 220 223 222 221 132 219 210 208 122 123 125 233 234 232 236 231 228 221 215 219 233 243 238 224 214 209 204 196 202 204 202 195 193 200 207 206 203 186 181 195 207 213
218 193 224 223 221 183 157 223 197 158 133 156 229 239 235 221 218 224 234 236 230 219 212 206 202 201 199 200 202 200 195 193 190 203 204 203 201 197 193 185 195 194 196 199
228 231 167 226 251 235 118 224 221 225 224 228 232 234 239 240 237 221 211 207 203 199 201 198 193 193 201 199 198 199 201 202 199 195 200 188 183 192 195 195 197 198 206 201
231 224 224 119 218 225 117 235 239 128 223 234 229 218 212 208 208 206 200 192 192 192 199 199 198 200 203 202 204 205 204 196 195 190 198 248 252 245 239 213 206 201 191 193
216 218 212 228 231 241 235 117 122 220 215 206 204 206 205 199 198 189 192 197 195 193 193 192 200 201 196 194 194 193 202 245 241 239 237 237 230 207 204 195 194 202 206 204
208 212 249 245 228 188 116 120 218 209 199 194 193 196 197 200 197 201 196 197 194 194 199 197 190 189 194 204 213 231 245 239 234 233 222 209 200 188 181 193 206 203 199 197
213 238 239 229 209 123 198 203 204 196 195 192 206 205 204 198 196 196 186 191 193 187 190 189 189 207 208 214 219 219 234 246 207 206 203 196 179 187 189 202 201 204 196 222
200 226 218 212 205 204 201 198 194 192 206 200 194 183 191 195 191 196 191 190 190 190 205 202 196 192 211 210 214 213 245 236 215 199 195 194 199 191 197 190 196 209 220 235
197 207 204 197 202 203 206 209 209 202 194 194 195 193 191 187 190 190 189 192 201 204 203 203 201 203 204 203 205 232 230 211 198 194 185 192 190 191 204 210 201 222 210 247
201 198 201 197 195 200 205 202 200 201 198 193 193 191 192 195 191 193 196 191 203 201 199 200 208 218 219 226 220 198 203 195 193 190 199 193 208 212 231 219 216 217 240 240
191 191 189 189 187 188 195 195 186 186 192 196 194 192 187 186 196 195 190 198 198 199 208 208 208 212 229 221 194 201 192 195 192 201 192 202 212 227 225 217 225 235 248 228
191 194 188 195 192 194 194 197 197 198 197 192 188 193 195 197 194 201 201 196 195 192 201 206 206 218 232 196 198 195 192 202 201 199 201 218 213 227 211 227 237 247 254 256
197 189 194 195 195 192 190 194 188 188 182 186 197 199 194 193 196 197 195 194 199 200 201 204 202 216 231 198 193 199 196 202 202 205 219 216 227 224 221 236 246 255 261 271
195 196 195 190 191 187 189 193 193 191 186 194 197 189 197 195 197 185 196 195 194 194 199 198 200 218 223 198 195 197 197 203 210 220 213 223 223 230 237 223 256 265 269 287
193 191 193 191 189 185 184 189 189 191 193 202 190 190 190 197 191 193 192 191 195 197 202 208 195 202 205 191 198 199 202 208 213 214 214 226 238 238 252 255 228 287 279 272
193 192 193 191 190 191 196 193 193 191 193 188 195 199 191 193 190 191 191 189 193 203 212 195 221 205 192 195 198 200 208 213 215 222 228 235 240 252 260 253 288 268 269 315
197 200 201 201 199 196 197 197 197 202 207 191 113 190 191 192 192 187 189 198 203 199 206 214 205 193 196 196 194 208 212 213 221 230 233 242 253 263 259 286 275 274 317 334
196 196 198 202 200 207 209 206 207 190 194 194 193 185 191 185 186 190 199 198 203 213 204 204 197 200 194 196 208 214 216 226 230 229 243 257 256 269 233 260 268 302 334 362
207 204 198 186 184 193 208 197 196 194 190 182 189 196 186 189 194 195 197 202 203 213 206 201 199 199 197 209 212 221 229 235 227 250 262 223 252 246 263 268 313 328 348 377
204 203 209 184 196 204 111 193 183 195 196 195 189 190 194 197 201 203 200 212 213 202 193 201 201 203 212 215 226 235 233 232 206 266 232 234 247 246 281 273 320 339 391 377
77 78 136 190 187 190 187 188 192 192 196 197 196 197 200 204 212 216 217 202 196 189 200 204 212 215 224 228 237 241 252 220 267 234 222 244 262 273 268 321 348 370 384 449
188 195 196 199 192 197 197 193 192 196 194 197 206 217 226 218 210 203 201 198 201 204 210 216 219 232 235 242 254 264 252 259 210 244 252 263 277 273 322 334 342 379 397 436

GFSCGP_2pvu_pres_006.txt.gz
Presure
233 230 228 223 221 226 225 228 232 231 229 234 186 129 228 223 226 228 229 228 227 224 223 128 220 219 218 218 219 217 219 222 246 222 226 222 216 222 215 230 231 224 204 197
232 232 226 231 238 232 231 230 130 223 135 122 135 228 225 222 221 220 219 215 215 215 215 214 213 214 217 218 231 235 220 226 217 221 224 232 241 236 213 206 202 197 203 207
241 234 233 233 223 220 221 175 177 140 117 127 217 217 220 223 224 221 218 218 217 216 217 219 225 227 224 219 218 224 237 236 230 212 209 204 203 205 201 198 208 210 204 200
226 228 229 144 227 227 223 133 133 120 190 184 224 226 224 221 142 125 131 202 227 229 234 215 221 226 239 227 218 214 208 204 201 196 202 202 192 199 201 200 200 201 200 187
217 220 222 218 167 205 147 204 216 218 221 222 222 149 119 123 121 139 219 217 221 231 237 225 216 214 209 203 200 195 200 198 207 193 198 201 200 198 201 192 189 185 187 207
214 217 182 184 216 218 218 215 217 219 219 220 223 130 216 228 229 223 215 236 225 219 213 205 202 197 197 199 193 194 200 204 202 202 203 202 201 194 185 255 259 258 254 232
206 153 174 213 210 166 182 216 215 218 165 185 215 215 157 246 243 230 222 213 204 201 199 199 194 189 197 202 195 196 199 200 197 221 224 235 254 247 244 238 221 210 203 197
215 184 131 220 219 239 225 119 228 221 137 205 201 118 123 136 208 202 202 196 199 199 202 192 201 198 182 195 196 194 191 215 224 229 226 241 240 247 217 213 205 196 195 194
216 130 126 227 218 212 211 226 228 226 230 117 116 131 145 204 199 200 199 204 204 198 201 193 189 193 191 187 213 214 213 218 217 214 212 225 221 217 203 203 196 193 192 193
122 122 152 207 215 226 253 238 226 220 178 116 136 196 202 203 203 206 200 197 197 194 191 192 192 193 207 202 205 212 223 221 213 197 200 195 203 199 193 196 193 194 194 193
132 215 230 257 248 231 218 213 210 203 204 200 199 199 199 198 198 193 197 184 193 190 192 192 199 203 205 206 209 210 210 223 230 212 207 193 196 191 195 191 193 195 194 198
215 233 233 229 220 214 204 198 205 198 194 195 199 196 188 195 191 197 185 191 191 191 196 190 196 199 194 194 209 200 207 217 231 208 186 195 192 185 195 200 201 202 206 212
201 231 220 203 201 202 202 198 198 197 196 200 194 188 185 190 191 188 192 193 193 199 195 200 197 194 199 200 203 202 203 213 218 199 195 192 199 192 196 201 198 210 218 235
215 204 203 200 199 195 196 204 207 201 198 193 192 195 190 193 194 191 191 201 192 198 198 193 197 197 195 199 200 203 197 211 196 205 194 191 198 199 199 209 217 218 236 240
201 200 196 197 196 196 196 193 196 196 193 194 190 189 193 189 189 191 195 199 192 196 191 192 198 195 194 199 205 211 215 204 206 206 190 195 198 197 211 217 217 237 233 234
190 195 194 193 192 191 189 193 188 194 194 195 193 198 189 182 196 198 194 196 197 197 195 192 194 189 193 201 199 221 203 211 203 193 190 199 202 211 216 226 235 236 230 264
201 197 194 194 194 195 194 196 196 192 189 188 191 191 190 193 199 191 192 190 192 192 189 195 189 194 204 200 212 206 210 201 197 199 198 200 206 214 227 233 238 243 266 274
200 205 199 195 193 191 192 190 195 192 190 191 189 193 191 195 198 189 195 193 166 189 193 187 193 194 200 198 206 211 212 198 201 203 201 209 215 227 231 239 254 227 260 241
196 195 193 194 194 188 191 192 193 191 194 197 195 194 196 208 189 198 193 188 191 195 184 190 197 203 199 206 215 211 202 180 205 204 215 218 230 234 247 264 211 268 260 271
194 195 191 190 188 190 193 195 196 197 199 199 202 207 206 191 199 193 182 194 192 183 192 193 195 202 211 216 204 203 201 204 210 220 225 233 236 252 269 222 272 259 258 260
195 194 193 194 195 197 199 199 198 197 195 157 207 206 196 189 187 189 194 191 185 194 203 209 218 215 208 203 202 204 203 216 217 227 227 240 260 262 225 253 235 256 272 290
198 199 197 152 196 198 201 191 167 185 187 200 198 189 184 186 190 187 192 192 194 207 209 207 204 203 202 201 208 209 215 215 231 240 259 270 251 232 230 246 288 280 289 282
202 206 206 207 193 92 208 93 206 202 187 187 183 187 196 192 188 192 191 197 208 204 200 203 201 202 212 206 212 217 221 240 255 266 253 239 226 236 211 294 280 286 284 327
184 193 81 200 185 194 197 196 191 186 197 197 194 190 190 192 195 202 203 211 200 200 202 204 206 213 210 215 222 232 244 263 255 231 224 230 281 304 280 276 282 289 322 331
193 192 195 145 192 192 191 110 201 204 208 190 193 194 192 200 202 210 217 205 203 208 208 205 216 213 215 232 251 254 256 244 231 230 240 266 281 270 272 292 297 330 328 378
183 194 195 193 194 204 205 200 203 199 195 201 191 191 200 203 211 215 202 206 209 211 218 213 221 226 241 251 248 238 234 234 243 249 264 290 276 287 285 309 334 325 351 405

GFSCGP_2pvu_pres_009.txt.gz
Presure
242 230 228 227 195 139 142 219 224 218 142 224 220 223 232 225 222 225 231 225 225 222 221 221 221 222 223 224 224 225 224 224 222 219 215 211 210 233 214 221 222 227 224 211
238 229 228 225 223 219 217 219 223 214 219 166 220 203 118 232 226 201 133 223 221 221 221 218 220 220 217 217 214 213 215 214 216 224 216 222 230 230 223 213 207 209 210 203
229 233 228 219 221 217 213 220 216 220 221 220 195 118 117 119 197 219 217 216 219 221 174 154 126 175 218 220 227 217 213 215 225 224 221 215 206 205 206 203 197 204 210 210
240 220 229 222 217 220 227 221 221 222 224 124 125 118 123 200 122 217 217 190 167 218 215 219 227 225 233 214 223 224 219 214 209 205 205 206 207 208 205 203 205 221 256 255
228 228 227 226 228 227 206 216 217 224 210 214 219 219 214 220 210 211 118 221 167 223 222 225 217 220 221 211 211 203 205 202 209 195 202 201 199 196 207 217 243 245 242 249
233 222 222 224 225 225 222 211 207 211 216 214 215 211 212 221 218 222 129 175 217 219 227 220 212 211 202 203 198 197 201 200 200 193 196 199 212 219 220 223 225 224 223 221
210 215 216 212 209 129 130 213 215 214 214 217 217 224 219 212 218 214 210 228 140 162 211 207 198 202 196 198 186 197 193 197 211 210 220 224 224 224 223 210 209 205 201 205
227 214 215 210 143 211 205 214 213 212 217 222 221 222 213 252 246 230 124 121 205 143 199 199 203 201 199 197 192 196 206 201 205 206 207 210 208 230 227 202 199 194 194 203
207 213 200 138 137 129 211 209 224 216 213 219 217 234 221 210 155 110 200 188 199 207 202 205 199 198 192 194 194 197 198 201 194 199 195 200 218 220 218 217 198 194 198 197
214 215 213 214 123 200 125 165 216 214 220 230 217 210 205 201 149 201 198 209 198 188 201 195 196 193 194 195 191 197 195 196 205 206 208 209 211 213 212 200 199 204 195 194
223 209 231 126 124 181 186 202 222 223 215 207 205 199 200 196 198 198 204 189 200 200 193 191 192 196 194 199 198 196 201 194 202 201 206 214 203 204 207 197 203 203 199 193
150 210 215 125 156 212 241 226 214 212 205 202 203 201 205 199 204 189 191 200 192 189 191 193 192 190 199 194 190 196 195 195 195 202 200 211 209 205 205 207 207 204 196 196
126 207 215 244 246 232 217 210 204 198 203 201 200 195 200 199 193 197 191 190 192 194 192 197 193 194 201 195 192 197 192 192 196 201 200 208 204 210 216 210 200 206 212 218
231 238 247 239 212 208 202 199 197 201 198 205 209 203 197 188 187 191 185 196 193 200 198 193 194 198 198 193 191 192 191 197 198 204 202 213 216 210 211 209 206 212 221 222
244 197 233 206 205 196 198 199 197 198 205 202 201 196 193 194 188 196 198 192 191 201 193 198 196 199 192 191 195 190 191 199 203 205 213 222 212 210 204 211 214 222 219 247
221 212 204 203 200 195 195 197 198 197 189 188 188 195 195 195 190 192 190 191 192 202 189 198 199 190 189 198 194 191 201 203 216 219 214 210 206 205 216 213 222 229 250 265
202 209 198 199 200 198 196 196 191 195 196 193 192 193 191 192 192 192 195 195 205 204 196 196 189 183 193 192 191 201 211 214 208 204 204 204 209 211 212 228 231 253 266 245
210 211 209 205 200 191 195 192 193 196 193 189 189 189 189 193 195 197 202 209 200 196 192 187 191 192 194 195 193 210 206 203 201 202 206 216 206 215 225 245 253 258 204 233
195 194 196 196 199 200 196 197 196 191 190 190 194 197 199 200 203 207 207 203 192 186 190 186 193 185 195 193 213 210 202 201 205 206 208 214 217 223 252 252 240 207 218 227
192 189 188 192 192 190 189 192 190 195 194 196 200 200 178 181 195 199 191 188 187 187 185 190 191 196 203 209 204 204 203 210 208 210 213 220 230 255 242 233 224 229 225 297
196 194 191 192 192 194 192 193 192 193 198 197 181 195 203 203 187 189 191 193 188 195 192 191 198 202 211 212 203 201 205 205 219 215 218 251 250 247 235 229 264 220 291 288
196 195 196 197 196 194 126 195 197 202 192 194 200 196 191 188 186 192 187 184 191 195 190 193 206 206 219 204 207 204 209 219 214 238 251 242 238 233 256 258 264 264 277 250
195 92 195 185 201 199 201 202 187 190 185 195 188 182 201 193 197 198 195 195 196 191 194 211 209 224 205 203 207 214 215 218 245 244 243 236 220 257 252 251 255 267 255 260
197 193 199 200 188 186 194 194 191 191 192 182 208 189 196 193 199 200 195 193 191 193 211 213 222 205 204 212 217 211 224 247 239 242 228 221 248 253 254 264 262 265 313 327
202 192 201 189 193 199 193 196 193 188 198 192 190 193 199 202 198 199 195 197 196 213 220 222 197 211 216 212 210 231 255 240 250 234 226 245 252 252 262 287 302 310 334 325
195 179 194 195 196 197 199 179 192 198 190 191 194 198 201 200 201 203 201 208 212 236 221 211 212 217 206 231 243 250 246 255 246 246 256 251 260 313 309 317 321 315 325 312

GFSCGP_2pvu_pres_012.txt.gz
Presure
232 235 233 117 227 226 227 226 228 191 142 230 240 246 249 134 215 214 212 143 221 120 228 221 224 229 227 227 226 224 218 217 216 215 214 215 217 224 224 217 217 224 223 224
235 239 231 226 229 223 227 223 221 226 208 218 219 223 224 200 220 226 226 224 228 118 227 226 224 224 222 218 218 226 215 219 218 217 217 218 216 216 216 215 216 214 208 206
236 240 231 228 227 218 216 223 225 217 217 217 213 222 223 226 197 228 171 115 115 165 218 217 221 220 215 164 126 215 216 223 223 217 218 222 219 212 208 204 207 212 209 213
244 248 229 229 225 225 225 222 217 217 217 218 225 227 217 218 182 124 119 131 220 202 216 215 214 121 124 224 228 214 220 213 222 214 211 204 207 210 204 202 218 229 231 229
243 232 213 233 224 219 221 217 213 223 220 227 221 220 205 134 137 133 213 213 208 212 219 225 127 118 222 218 221 222 213 212 202 204 211 192 185 212 206 207 217 221 215 214
230 235 227 218 226 221 220 226 229 217 221 214 207 206 133 214 211 207 202 223 222 211 226 219 137 112 124 160 194 202 200 205 205 194 209 208 211 205 205 203 199 202 220 226
239 229 227 220 218 220 219 220 221 209 156 204 198 205 212 171 180 229 211 211 216 208 111 222 187 174 129 198 200 203 208 201 204 205 201 203 203 201 202 212 213 216 218 216
231 232 216 223 221 223 209 205 160 209 208 210 209 208 210 224 214 214 206 201 231 205 209 202 205 194 200 204 208 203 204 201 204 200 204 205 200 193 193 205 206 206 213 220
210 213 218 213 216 202 211 199 205 126 201 207 207 221 217 216 232 245 228 213 205 204 207 199 192 204 206 200 201 199 204 202 204 203 195 195 194 195 199 199 209 206 209 218
210 204 205 204 209 128 205 171 196 124 125 219 214 213 214 225 212 210 200 203 201 206 191 203 198 189 202 199 199 203 195 196 200 194 191 192 199 194 195 201 208 210 218 226
217 207 207 211 211 209 227 133 150 219 217 217 226 227 213 211 209 200 200 202 198 193 201 194 203 196 200 196 201 196 201 197 197 189 194 192 190 194 195 209 222 226 214 211
210 214 219 225 220 168 219 223 217 216 231 228 219 212 210 204 203 199 198 205 196 191 204 198 199 200 207 202 195 194 192 197 193 192 191 198 200 195 208 217 209 206 205 207
218 227 223 217 207 214 205 214 215 231 223 216 214 202 200 200 193 192 207 193 198 198 197 196 196 188 200 200 193 193 198 193 187 191 195 195 195 205 214 209 206 207 210 215
218 216 216 203 210 211 228 222 229 219 212 201 203 198 199 206 205 201 199 193 197 193 197 195 192 193 196 208 186 198 191 191 191 184 195 204 199 223 212 205 205 215 222 220
206 207 200 211 222 248 237 225 216 209 201 200 197 206 206 200 192 189 196 192 197 194 195 195 199 201 214 194 192 191 190 188 193 198 200 205 219 213 211 207 213 215 226 220
211 207 207 242 247 196 217 206 208 204 200 197 207 195 193 193 196 193 192 192 186 191 199 200 210 212 196 195 187 188 192 190 196 200 203 215 221 207 209 210 214 223 227 252
204 203 205 213 233 213 201 210 200 197 204 194 195 196 198 192 189 193 193 193 197 201 199 203 198 194 190 186 189 191 192 196 198 205 211 225 215 206 211 215 222 233 253 258
198 203 201 205 217 203 201 197 198 195 196 192 188 192 194 190 191 195 200 198 198 180 194 190 189 188 188 190 191 198 201 199 211 209 224 217 205 209 214 219 232 254 260 244
203 204 196 208 202 201 201 199 201 199 200 189 193 191 194 191 195 198 196 197 200 201 194 181 184 196 194 197 196 198 201 208 217 223 218 206 210 221 211 230 259 259 258 253
205 199 205 207 193 193 192 194 194 193 194 193 194 190 193 195 201 203 201 197 191 189 196 191 198 201 202 196 198 202 193 214 229 217 210 211 219 211 243 257 261 254 259 249
204 193 193 196 195 193 190 191 191 170 196 196 195 196 196 205 182 186 192 188 201 193 195 191 200 198 197 203 204 197 213 229 219 212 215 215 215 250 242 263 245 236 243 263
201 198 198 194 125 124 195 196 195 197 196 197 197 199 204 192 184 192 193 185 187 198 193 201 197 198 202 199 206 214 222 216 207 215 211 234 248 245 250 245 231 249 256 260
139 95 184 196 198 195 85 193 195 194 194 195 194 197 190 189 186 187 191 191 189 193 197 200 205 201 201 216 218 216 218 211 217 213 242 247 247 251 256 242 263 262 265 287
182 192 194 190 199 198 194 191 197 195 191 189 193 191 192 174 197 196 189 185 185 205 205 206 192 205 221 233 215 216 215 220 229 241 247 245 257 251 231 255 263 279 334 319
201 199 195 192 199 199 205 191 190 192 192 191 191 188 174 195 198 184 182 199 203 204 195 205 215 231 231 222 213 218 219 238 236 249 248 256 270 249 253 259 334 322 329 311
202 197 197 196 196 201 201 192 192 196 190 184 176 192 198 203 200 209 201 202 199 200 206 213 241 226 215 215 222 228 238 238 249 247 263 255 254 259 252 269 294 312 299 329

GFSCGP_2pvu_pres_018.txt.gz
Presure
261 256 245 238 237 226 227 243 232 238 221 215 118 194 136 216 219 162 147 138 119 127 119 124 182 141 135 134 214 246 250 249 237 236 196 127 226 221 221 223 225 226 217 214
248 235 246 248 246 240 238 233 235 180 151 223 210 223 134 201 129 133 129 149 138 199 138 171 225 202 136 217 217 224 135 206 221 223 220 216 220 150 219 220 219 218 222 219
229 233 233 240 242 217 226 219 226 128 173 219 217 221 226 131 194 185 177 215 223 179 175 184 176 198 222 242 230 112 211 151 224 221 220 160 207 214 214 214 215 216 220 222
229 224 226 224 239 222 213 214 218 218 216 213 217 219 203 222 226 224 215 222 216 217 215 218 218 223 224 215 136 119 216 215 215 214 125 207 219 217 222 221 223 212 205 196
229 231 229 225 229 240 217 215 221 216 218 216 221 219 222 213 214 213 206 213 213 220 222 224 218 213 120 216 220 233 230 239 227 222 214 220 218 214 204 203 197 190 186 201
222 238 235 232 159 245 227 223 221 217 217 223 221 210 214 218 221 221 215 215 217 217 211 212 206 232 230 228 223 224 222 214 218 211 204 202 193 191 192 185 187 198 196 205
215 226 223 237 243 240 221 218 230 220 223 215 212 210 232 201 220 225 220 211 210 209 210 190 228 215 234 214 226 211 207 203 196 200 200 199 190 191 198 198 202 204 206 200
214 213 225 228 229 229 227 226 220 221 219 219 221 227 222 214 210 212 212 214 219 212 249 218 214 233 234 219 211 192 194 199 201 192 197 199 202 195 205 213 217 216 208 195
215 214 208 226 224 226 238 228 219 217 219 222 220 217 199 193 174 126 197 224 256 226 231 222 222 217 213 200 203 192 198 194 192 199 194 191 200 199 200 224 216 207 203 200
214 224 216 205 218 209 217 213 216 217 214 213 211 206 205 206 215 214 127 166 217 242 245 214 204 202 196 200 203 193 193 191 192 193 199 199 202 210 215 210 204 203 198 192
208 239 207 206 218 203 213 208 203 204 212 215 212 210 215 212 126 126 137 218 229 214 209 200 197 195 191 200 194 192 186 194 191 190 196 204 204 202 203 200 193 195 197 201
226 217 206 206 211 209 210 211 211 203 210 212 212 209 215 154 219 207 224 219 211 202 199 193 197 191 197 196 188 192 192 191 186 201 200 193 195 196 192 190 194 195 204 209
214 204 243 225 220 218 207 207 208 214 216 124 148 229 221 214 222 228 216 208 199 197 197 198 198 195 189 193 197 189 190 199 205 209 207 204 195 190 189 194 187 209 213 220
217 236 240 235 244 228 228 222 237 191 121 124 217 205 209 236 223 217 202 202 199 199 201 198 191 190 195 183 185 192 195 197 202 187 195 187 183 188 189 199 213 203 214 234
207 231 233 226 224 216 216 214 209 200 207 208 220 220 244 226 202 200 202 207 200 191 193 195 192 186 184 186 191 195 205 194 191 198 187 185 192 196 207 211 198 213 220 233
212 231 219 217 214 209 206 208 209 208 210 217 216 243 223 196 198 198 198 190 195 196 195 196 193 191 190 192 203 190 187 190 187 191 191 189 192 208 209 205 210 217 245 218
218 220 220 219 209 203 209 217 205 211 226 227 255 228 204 191 191 191 189 190 195 193 189 191 193 193 205 210 203 197 190 185 194 195 182 207 206 201 205 211 216 234 221 221
217 210 220 215 211 207 215 196 207 206 204 254 226 199 199 196 196 196 197 199 197 193 195 197 200 202 203 200 194 192 180 196 201 196 204 203 197 205 215 202 225 221 220 225
223 205 219 222 207 205 213 205 206 204 207 218 204 202 200 197 197 195 192 192 191 194 198 199 199 200 197 192 199 183 193 199 202 205 196 197 206 213 215 223 244 220 227 235
227 217 206 216 211 201 199 206 210 168 203 208 199 198 197 195 194 194 194 197 198 199 199 195 197 199 192 185 191 194 196 197 203 205 198 209 212 215 221 247 222 226 237 240
220 219 214 205 205 202 206 200 160 204 196 198 201 197 197 197 199 199 196 195 195 197 197 203 200 191 191 196 199 195 204 197 210 202 213 211 196 221 241 219 227 235 240 246
225 213 206 200 153 201 202 163 197 202 203 195 196 197 197 198 200 199 199 201 199 194 199 200 188 193 194 191 199 203 193 211 205 212 211 216 219 249 219 227 229 239 246 244
226 215 205 206 208 97 189 200 199 198 196 194 194 192 189 190 192 196 195 195 202 196 197 195 198 189 192 200 205 194 211 206 209 213 217 221 243 225 227 229 240 243 242 255
228 215 206 205 210 205 198 199 193 198 199 197 196 194 197 197 197 195 191 191 196 199 199 192 197 194 200 202 195 210 210 208 214 217 224 246 221 230 214 239 243 241 252 249
228 217 206 201 210 162 197 202 200 198 196 195 199 199 199 197 191 191 193 197 200 195 191 203 192 203 197 201 209 205 209 213 220 230 251 220 230 235 240 245 241 248 256 266
225 222 213 201 105 208 204 196 195 197 198 194 198 198 197 192 194 195 184 194 198 197 205 192 203 198 208 210 194 214 210 223 241 233 224 228 237 244 244 242 246 256 269 272

GFSCGP_2pvu_pres_024.txt.gz
Presure
213 252 214 248 258 243 244 225 235 240 245 244 241 235 227 220 218 234 213 147 206 217 212 144 181 144 149 123 117 144 141 118 116 119 126 127 129 132 134 171 146 204 195 194
211 227 215 222 235 247 235 226 222 232 209 237 238 240 233 215 200 215 223 219 205 206 128 181 208 129 119 176 141 119 126 125 138 132 125 127 130 196 189 134 206 205 213 228
217 229 211 211 240 249 236 227 226 219 218 231 223 219 227 232 207 222 128 217 199 164 157 195 175 207 198 166 167 203 139 132 129 140 143 179 202 210 204 225 225 223 219 215
187 276 211 213 244 237 246 236 237 225 223 224 223 226 222 211 213 220 211 212 123 142 121 129 130 126 199 129 134 194 210 211 217 216 225 241 230 194 215 213 215 214 223 218
203 224 265 212 210 238 232 234 230 243 227 241 221 217 220 227 223 225 218 179 130 127 223 225 224 225 226 223 220 218 226 227 213 197 227 228 220 216 215 233 224 206 205 203
204 214 295 210 208 230 234 235 240 224 214 221 226 220 222 227 224 217 218 220 221 213 225 227 219 217 218 212 219 216 212 209 214 213 214 223 240 226 226 221 205 197 195 203
191 211 228 223 206 207 241 239 240 244 212 205 215 215 214 213 211 212 215 213 217 222 212 211 210 210 213 229 225 224 209 140 164 207 220 226 225 218 210 206 203 203 203 199
206 201 206 287 201 205 216 237 243 240 230 218 217 219 212 212 214 208 216 211 209 202 220 221 225 224 210 210 135 120 120 124 126 208 228 218 202 210 211 205 201 203 200 193
199 199 207 292 216 208 209 217 233 239 237 227 223 220 229 214 214 207 212 202 218 219 213 214 208 201 119 124 123 141 124 204 207 214 201 199 198 206 200 200 199 190 190 194
190 200 196 207 182 210 220 218 202 222 236 233 231 229 223 221 219 219 218 218 212 202 196 207 205 122 212 199 161 204 218 215 206 196 193 193 197 194 194 190 184 191 194 201
183 187 208 223 280 205 211 213 203 210 221 221 223 214 220 225 225 219 214 202 205 199 143 208 182 222 142 215 229 217 209 198 191 188 193 201 193 194 185 184 187 190 200 203
196 190 174 215 252 243 216 198 205 212 204 205 208 221 218 210 213 212 208 210 207 209 210 208 215 213 218 219 209 209 200 197 202 204 198 194 193 190 188 190 196 199 202 190
191 208 191 204 285 266 238 205 234 223 229 212 202 211 205 204 206 207 211 205 209 215 221 218 219 228 218 211 203 199 197 202 196 200 197 192 191 192 189 200 198 200 192 191
185 220 203 170 243 266 239 226 240 242 227 220 214 208 208 207 209 211 213 226 223 217 211 225 230 214 210 199 194 199 209 205 198 191 190 192 190 194 197 194 196 184 191 192
202 205 195 182 213 265 235 232 229 251 235 221 226 219 238 223 218 220 217 213 220 214 226 235 213 205 200 194 194 193 200 195 194 194 193 196 194 192 197 199 185 186 193 182
156 166 178 180 220 274 234 220 209 227 224 218 217 213 216 201 228 203 203 220 215 216 239 216 193 199 197 198 196 197 199 200 192 192 192 192 191 201 190 189 184 194 205 207
204 202 200 193 198 211 238 232 226 212 210 210 207 205 205 200 211 216 221 217 224 237 232 210 196 195 196 200 199 193 194 193 192 193 192 193 201 193 191 186 194 197 206 200
215 197 210 206 177 207 258 242 220 208 209 206 206 213 212 209 205 204 207 237 247 238 211 200 199 199 197 198 198 196 194 195 195 194 194 191 199 192 196 195 204 200 210 206
212 225 233 224 180 211 255 250 236 211 214 204 206 216 211 200 205 207 203 254 247 216 203 199 198 197 195 196 199 195 193 193 193 191 187 192 188 199 205 204 206 213 206 214
209 192 177 197 213 190 263 255 244 234 213 216 208 208 209 204 201 208 209 203 235 205 195 192 196 201 192 191 190 198 194 193 192 192 190 186 202 173 207 213 207 211 214 216
200 219 191 188 198 186 218 258 249 225 220 215 210 209 201 206 207 207 207 205 203 200 197 191 189 194 193 197 195 194 193 194 194 192 198 203 183 210 206 205 216 210 215 222
198 205 221 227 188 188 208 242 253 198 227 221 217 207 203 202 207 205 203 200 200 200 199 199 198 196 200 202 200 199 200 198 200 203 204 205 207 205 207 215 211 215 224 214
223 213 217 196 200 187 229 230 258 249 193 225 216 216 209 209 204 204 198 203 205 203 202 201 201 200 188 192 197 201 202 202 198 204 202 206 209 213 214 212 215 224 211 221
217 202 225 200 194 217 210 243 256 248 240 198 228 223 213 211 207 208 205 204 201 200 200 202 205 204 203 203 202 202 200 203 206 203 214 207 214 214 213 215 225 206 223 227
196 208 216 215 211 203 250 240 246 252 243 240 231 224 221 213 213 211 205 207 209 210 205 203 203 200 204 204 205 206 212 212 210 216 216 215 217 215 218 226 218 220 235 238
205 207 211 206 218 212 252 237 243 242 245 236 230 228 225 221 217 213 211 210 208 209 211 210 209 208 210 210 211 214 212 217 219 220 217 222 221 222 220 224 217 238 246 251

GFSCGP_2pvu_pres_027.txt.gz
Presure
215 201 200 218 209 215 254 246 225 237 240 236 234 234 228 229 227 228 221 221 227 221 216 214 219 135 225 214 136 193 197 144 130 127 126 174 127 120 118 128 134 137 135 143
178 191 214 220 236 211 248 239 236 225 228 240 242 225 232 229 222 212 226 221 221 218 211 214 206 159 216 214 221 158 171 152 225 131 126 145 114 128 151 150 185 159 205 199
194 187 202 217 249 211 249 239 236 232 219 209 226 240 230 248 209 214 215 215 206 221 200 187 202 212 201 167 175 204 201 124 154 203 209 167 142 180 204 203 206 212 218 222
184 190 185 206 238 209 210 243 227 232 232 221 220 223 208 233 228 218 211 124 214 202 220 142 139 197 195 133 127 134 180 192 183 133 131 132 198 202 205 205 204 206 232 218
187 197 191 205 230 227 206 211 240 229 237 239 228 226 216 236 216 226 211 211 217 199 199 206 203 203 120 124 133 196 140 195 200 149 225 227 224 224 223 205 227 241 229 215
202 196 188 201 212 262 205 208 236 237 237 220 225 234 220 217 226 225 216 216 217 220 213 211 134 135 135 165 210 225 225 222 219 213 226 217 216 131 123 147 236 232 221 212
188 206 189 186 204 223 213 203 206 237 240 229 206 216 224 229 220 224 222 218 214 214 216 215 226 222 222 219 215 218 214 210 225 221 163 127 127 133 235 239 218 205 212 205
164 184 201 196 201 213 307 217 210 200 248 240 224 207 216 217 214 213 213 210 211 218 222 218 215 211 217 216 221 226 219 215 152 127 123 190 215 205 217 212 213 206 200 198
154 188 201 193 210 206 231 204 172 133 204 242 230 222 227 217 216 214 214 208 212 217 215 209 226 218 216 221 217 205 191 132 205 207 221 212 204 210 201 204 210 215 194 202
168 206 200 194 180 202 174 276 229 210 201 205 237 221 222 216 213 218 212 214 213 209 216 219 215 210 207 210 185 160 211 207 218 219 225 220 209 202 202 205 213 200 201 199
171 182 191 188 180 186 231 274 203 222 217 210 198 237 229 228 225 215 220 218 219 215 215 205 201 204 201 207 208 211 236 214 214 211 206 202 201 194 203 206 192 203 196 193
169 166 195 213 199 185 224 290 231 210 195 217 201 220 207 227 215 214 219 213 206 206 204 201 146 131 153 211 212 223 211 214 208 203 203 199 204 208 190 194 193 191 194 195
176 182 206 184 209 192 208 273 258 220 204 217 217 208 212 198 202 208 205 204 210 211 205 208 202 206 220 216 203 221 213 209 204 203 206 204 191 198 195 196 194 192 191 196
184 169 205 187 179 195 189 238 261 242 240 234 229 227 222 212 207 207 207 205 211 211 211 211 232 218 205 217 219 223 214 210 205 199 197 193 200 201 196 188 192 194 198 198
183 212 205 197 208 191 186 182 265 244 240 234 275 249 225 212 209 206 210 238 222 221 230 222 204 219 199 229 222 219 207 205 200 198 198 201 196 195 194 196 202 200 199 189
207 203 212 191 208 169 173 191 180 257 238 222 220 222 227 220 220 218 223 216 207 220 223 211 225 209 218 225 219 205 201 197 195 199 198 194 194 194 197 193 195 193 188 192
196 200 203 161 193 208 197 192 224 251 240 220 204 208 217 214 211 203 209 203 200 216 235 224 217 227 235 225 217 202 200 198 199 196 193 195 193 190 193 194 194 194 194 194
194 184 209 222 193 205 224 193 209 223 246 224 215 215 209 207 204 207 207 207 203 201 200 207 239 249 246 226 200 198 198 195 193 194 190 187 194 193 193 194 198 192 196 203
206 173 214 222 176 196 216 212 204 210 249 240 225 212 213 209 208 202 207 211 200 198 205 211 205 212 238 203 197 192 195 195 191 191 193 193 193 195 199 198 195 199 197 205
204 193 202 208 202 186 177 227 196 190 188 264 244 243 226 216 213 204 204 204 207 210 202 245 235 227 205 202 200 193 192 194 194 193 193 195 191 194 196 195 199 197 211 216
211 182 193 225 201 209 219 221 191 186 225 230 254 232 212 207 205 209 209 204 202 205 209 201 197 199 200 197 197 197 196 196 198 193 192 192 200 198 198 202 205 215 219 220
201 196 227 210 211 213 219 193 209 199 191 242 260 248 188 228 223 219 214 202 211 208 203 202 202 200 198 198 198 197 194 195 194 199 201 200 203 204 209 217 218 224 207 217
196 179 223 210 205 207 218 210 229 191 193 179 243 254 245 188 187 220 214 219 215 210 210 209 207 206 206 204 204 207 208 202 202 203 204 205 213 216 218 219 224 222 218 222
204 216 185 204 193 215 199 211 217 212 191 222 249 243 256 245 235 234 228 220 216 216 210 207 207 210 210 209 209 207 211 215 215 217 219 220 218 216 218 222 218 217 221 222
217 216 184 198 195 224 225 208 214 213 202 210 232 238 249 245 244 223 216 209 227 224 223 221 219 218 218 221 223 222 218 218 221 221 222 221 222 223 222 217 224 225 227 231
196 192 204 207 230 215 205 202 210 200 227 211 223 240 244 238 236 240 238 233 207 203 218 222 223 222 220 221 224 228 228 228 224 223 219 218 219 223 226 227 231 236 239 239

GFSCGP_2pvu_pres_030.txt.gz
Presure
198 195 190 179 197 212 247 208 243 232 235 239 228 233 220 231 228 229 235 222 235 221 214 125 156 126 143 216 212 124 211 222 145 136 135 215 136 199 210 135 133 129 126 122
195 208 188 213 196 209 249 207 223 237 221 236 240 219 245 233 242 233 231 224 217 218 216 210 155 216 215 224 217 213 130 139 233 133 172 208 189 205 129 134 122 128 144 148
193 204 175 171 192 202 228 207 210 231 236 221 220 231 240 153 163 231 223 224 219 223 222 229 210 210 216 209 220 216 203 209 220 224 204 227 160 125 205 199 191 201 191 204
221 202 177 186 189 197 202 254 206 225 240 239 229 220 220 236 234 238 216 206 210 214 219 221 207 203 202 143 202 138 137 205 200 137 152 193 215 148 140 199 207 209 198 206
197 187 179 195 190 197 204 221 205 209 238 235 233 229 223 220 213 234 133 215 209 213 213 217 216 203 203 207 201 200 198 195 195 125 196 202 203 200 201 201 204 219 228 230
231 200 189 171 190 205 201 207 243 204 208 229 238 230 230 226 223 221 217 217 211 210 205 213 201 199 196 210 206 205 204 139 200 160 201 200 213 226 222 217 226 221 212 204
165 204 175 170 173 197 200 209 219 245 209 210 242 232 226 242 228 220 226 217 211 207 212 219 219 218 205 209 222 222 218 235 235 232 229 223 220 221 218 207 211 216 225 215
217 219 176 178 169 185 195 209 208 265 204 210 212 244 232 220 221 226 222 221 222 221 219 214 214 218 221 221 220 219 215 212 216 223 225 214 209 206 201 221 217 218 204 219
212 194 203 175 176 194 212 204 215 263 233 224 209 215 243 232 217 219 218 213 213 213 210 213 215 218 215 208 215 221 221 222 223 211 182 203 206 226 214 205 208 204 211 204
196 199 175 175 183 194 204 208 210 250 207 165 211 203 211 245 232 229 217 218 220 217 214 216 219 210 209 222 215 215 205 206 207 207 212 210 217 214 210 212 208 201 203 207
198 197 192 212 180 173 200 195 198 218 258 250 203 224 213 201 248 228 221 215 219 220 221 222 223 223 222 212 146 150 150 205 205 215 219 219 218 217 206 206 203 198 210 195
215 220 213 181 181 182 189 208 205 195 262 241 212 210 211 219 219 206 235 215 227 227 220 218 213 211 211 208 123 204 206 213 216 215 233 204 213 214 204 200 202 197 196 200
148 202 192 176 177 173 194 222 205 189 265 242 237 204 210 226 203 225 203 210 223 206 205 205 205 202 204 211 204 209 234 223 212 205 216 216 212 205 211 199 197 197 196 193
223 216 207 185 184 209 196 197 207 193 199 255 233 229 244 238 223 212 208 209 211 207 204 204 203 204 211 213 219 224 204 213 206 210 221 210 205 196 193 197 198 195 193 191
223 199 184 193 207 190 187 213 192 207 180 209 251 230 232 229 250 232 221 218 211 228 212 222 247 207 212 214 221 209 210 196 212 223 219 211 195 195 197 198 195 193 192 191
204 218 202 175 205 179 198 216 215 166 184 194 261 233 225 219 221 261 230 223 227 219 212 217 202 211 209 205 128 211 210 211 229 221 223 202 198 196 197 191 192 190 185 195
211 199 211 196 192 189 209 194 173 211 221 201 192 245 227 220 208 211 211 210 208 205 223 216 212 211 211 206 203 210 215 223 225 226 216 194 195 193 193 193 190 193 193 191
202 202 211 202 196 193 207 188 200 209 223 203 203 251 242 229 218 205 197 209 207 204 210 212 214 203 197 200 203 202 241 237 232 225 196 194 192 193 193 192 197 194 198 197
208 199 178 199 189 201 177 216 185 206 226 204 197 193 182 201 231 218 209 209 205 208 208 202 204 204 206 211 203 206 205 203 226 199 195 194 193 197 199 195 197 195 191 203
181 200 185 203 190 190 213 184 212 197 176 189 188 189 196 227 238 251 239 229 216 212 196 197 205 195 194 200 205 240 204 202 198 195 196 198 196 195 196 197 195 199 194 201
191 189 203 169 175 174 208 202 189 201 211 229 192 192 180 234 242 239 223 189 207 207 207 210 206 200 202 204 207 208 195 191 190 192 193 195 197 200 197 201 200 204 209 215
204 200 208 178 204 209 192 213 200 216 210 209 219 191 194 205 225 250 245 236 219 223 218 213 217 212 211 208 207 207 206 204 203 202 203 201 201 205 206 214 218 217 226 229
200 202 205 189 195 196 202 198 189 219 207 209 210 199 197 192 220 219 246 250 242 235 192 220 215 213 211 215 214 209 206 208 208 209 212 214 219 219 214 230 232 220 220 218
201 202 211 203 198 193 204 200 199 208 197 222 207 220 218 212 214 213 248 249 250 245 237 232 224 189 224 221 223 222 221 221 216 218 219 221 230 231 216 214 224 228 222 224
187 198 208 205 218 181 209 181 180 197 204 221 195 211 208 198 231 217 204 238 240 244 241 243 242 235 232 227 223 224 227 218 219 228 198 217 215 222 222 213 205 223 228 231
206 209 185 204 224 197 221 191 190 198 217 192 218 211 214 217 208 212 248 227 235 248 243 234 230 232 191 192 227 214 209 230 204 205 205 210 231 228 206 213 223 219 238 240

GFSCGP_2pvu_pres_033.txt.gz
Presure
204 194 177 197 207 201 201 206 257 207 232 231 237 228 235 241 235 240 223 237 204 219 200 206 232 211 208 210 206 205 202 203 215 203 222 215 212 225 129 202 120 202 209 127
177 188 184 243 208 179 192 205 213 213 215 236 228 234 226 230 225 231 227 228 231 229 206 208 208 213 227 208 126 145 127 172 218 203 194 124 204 210 202 189 199 205 197 148
188 211 179 185 202 196 186 192 208 242 204 223 234 223 238 234 234 238 247 220 227 220 221 198 204 204 205 203 197 166 146 191 210 211 172 182 122 138 168 157 122 132 183 190
179 196 174 211 182 204 177 188 210 212 205 207 228 241 224 222 249 227 195 233 229 214 216 214 228 200 204 206 214 211 212 209 219 221 227 221 233 239 224 179 185 180 198 210
184 205 174 219 215 176 179 181 195 210 217 205 209 232 240 227 218 228 253 226 215 211 209 224 225 214 229 211 208 204 198 201 205 201 213 208 208 209 209 123 133 208 133 208
170 197 186 200 202 205 189 182 189 209 210 248 214 212 233 243 231 220 227 235 219 209 205 205 209 223 214 203 205 146 214 203 202 205 205 205 205 179 173 204 202 202 202 235
160 186 178 170 207 208 181 190 185 199 215 225 236 213 213 242 236 230 219 231 230 220 208 212 212 207 154 191 205 202 205 204 206 206 213 209 211 210 217 223 219 227 221 215
182 165 189 201 205 225 194 170 175 203 210 215 269 217 215 222 237 222 236 219 224 221 230 221 216 211 213 230 221 216 213 217 222 228 228 223 220 217 223 225 219 212 210 208
198 164 204 185 221 220 182 172 178 185 205 211 263 255 221 198 218 238 229 236 230 223 221 220 219 216 219 215 214 220 223 217 214 229 227 244 222 223 213 205 201 204 215 220
164 181 177 191 212 204 203 170 182 194 207 215 210 270 241 216 202 213 247 224 220 230 220 216 215 214 212 214 216 212 211 212 224 218 215 193 201 174 207 206 213 212 214 219
200 194 170 207 178 178 175 179 188 178 184 216 204 244 267 231 219 208 208 242 231 228 222 222 223 224 218 218 215 215 216 215 209 205 206 165 210 230 216 212 222 209 211 212
169 193 194 207 196 209 207 165 172 183 172 217 211 207 264 256 203 206 227 219 236 236 226 220 228 226 225 227 219 219 212 204 129 135 204 208 221 224 210 229 214 211 211 202
210 212 202 189 226 175 209 190 176 200 178 218 214 204 213 253 244 229 209 205 212 213 204 210 229 210 207 207 206 207 210 207 212 211 222 243 217 226 210 213 213 216 202 194
208 207 190 155 207 206 197 186 185 189 186 186 206 205 197 235 252 231 231 245 214 215 213 213 214 213 209 211 212 214 217 224 218 222 214 210 209 207 213 226 218 213 210 195
205 210 201 210 187 210 207 198 178 186 198 186 220 224 179 187 187 239 224 227 270 235 229 221 214 213 221 220 225 253 213 226 214 218 213 219 213 237 216 214 216 222 197 191
208 208 197 221 209 177 194 185 206 174 197 184 213 216 185 190 192 190 231 221 222 276 260 225 220 211 202 205 211 204 214 229 204 203 204 209 210 212 215 217 216 215 212 208
190 240 216 212 219 206 209 189 182 177 189 191 197 177 206 217 206 180 232 223 217 212 212 210 213 207 206 205 207 209 200 195 194 194 202 204 205 226 225 225 223 209 193 195
203 197 229 193 212 202 179 202 209 185 180 193 187 212 224 218 214 229 178 186 226 214 210 210 207 209 208 209 207 206 203 200 199 201 255 255 202 199 217 217 214 195 196 198
227 237 214 215 207 199 198 194 181 179 197 185 195 199 219 199 209 209 197 200 179 241 234 214 215 214 209 213 204 203 205 208 198 201 202 199 188 189 187 185 190 195 201 202
242 231 217 214 203 173 194 200 182 198 185 86 185 180 178 187 203 211 209 200 244 194 242 233 226 214 212 210 206 209 212 206 204 202 200 198 205 205 205 203 203 207 210 205
243 222 211 201 184 201 196 206 205 168 208 134 203 186 192 212 215 197 196 197 205 202 251 243 234 226 222 217 226 221 215 215 212 212 210 212 213 211 212 213 211 212 213 216
235 221 212 209 206 192 202 185 194 172 170 186 178 183 214 210 217 219 202 216 193 211 218 233 249 244 239 237 232 226 221 221 219 200 220 215 215 213 198 204 218 212 218 215
227 213 214 198 211 181 200 199 207 184 203 203 196 191 209 225 210 213 227 222 201 226 230 211 204 253 246 248 243 238 233 230 228 219 216 200 194 217 208 218 216 216 221 221
224 216 214 206 210 204 195 201 200 208 200 193 190 190 183 228 212 222 205 196 216 205 212 223 241 210 239 235 239 236 233 232 232 231 188 184 195 187 221 220 211 212 204 211
222 214 207 190 193 198 208 192 204 201 202 203 196 171 195 192 218 202 207 216 204 234 222 244 203 231 243 239 237 239 235 229 228 228 231 225 216 216 212 219 234 226 229 234
218 199 206 197 178 205 154 203 208 198 197 194 194 218 192 209 191 209 208 202 209 216 215 229 218 217 244 236 232 236 231 233 236 229 222 213 215 237 240 239 232 237 222 230

GFSCGP_2pvu_pres_036.txt.gz
Presure
204 221 186 213 194 207 206 198 197 197 213 233 252 252 206 199 216 253 243 235 219 222 232 225 223 226 226 213 193 195 250 235 213 205 215 225 206 212 204 197 194 187 218 200
173 213 172 175 183 203 178 187 198 192 208 213 204 254 231 210 220 240 236 225 237 228 218 220 217 219 224 222 234 214 211 202 155 127 205 211 217 200 204 209 209 174 126 193
195 197 182 186 207 177 203 207 181 187 192 206 239 206 244 243 239 224 228 225 221 239 235 205 201 223 229 212 212 217 213 217 212 171 206 209 205 210 191 197 212 153 184 206
190 193 166 176 192 211 194 211 192 188 191 207 206 234 206 241 229 246 237 243 230 233 220 212 199 200 215 223 222 212 204 206 188 195 203 207 219 215 219 204 214 210 203 205
175 185 179 198 199 174 185 204 212 191 193 192 204 247 230 213 242 232 245 226 220 219 220 220 212 208 146 196 196 208 219 213 202 198 195 195 197 212 221 224 223 213 217 230
186 177 173 191 199 183 196 206 211 193 185 194 209 211 255 215 218 256 224 225 244 224 228 219 212 227 220 216 226 218 205 204 212 210 205 202 203 204 205 206 207 201 203 204
186 161 158 207 199 174 200 187 201 197 194 194 194 212 214 265 228 223 239 230 233 236 234 217 207 210 208 213 222 209 221 205 205 163 203 219 205 204 204 204 205 204 204 210
182 169 156 188 203 170 184 200 178 209 192 183 214 190 213 237 264 225 238 237 225 233 223 221 214 212 216 216 208 207 222 211 203 204 206 211 203 212 220 229 230 215 215 211
177 192 156 197 178 196 187 197 217 212 187 185 192 192 222 215 275 199 198 211 245 217 233 240 227 222 219 213 217 217 210 217 232 229 227 231 219 218 257 220 219 201 214 210
181 192 164 198 187 189 183 175 196 179 190 195 193 194 188 224 210 277 204 207 206 248 226 231 231 236 231 227 223 222 228 217 220 224 225 222 223 215 216 196 206 186 195 204
188 156 192 198 167 192 176 191 180 199 205 175 188 186 188 239 220 219 260 237 211 207 242 231 225 226 220 218 224 217 211 183 223 225 228 214 221 203 183 195 184 194 201 206
150 173 164 199 197 187 176 196 186 201 212 194 177 192 206 193 205 203 216 256 199 213 210 230 246 231 219 221 221 223 223 225 230 224 220 199 201 206 189 218 211 208 210 204
190 199 200 171 164 186 174 198 204 195 207 198 191 202 174 154 217 202 199 225 250 234 216 222 211 212 208 211 230 211 209 208 217 209 203 193 205 182 205 209 197 209 231 222
197 170 200 158 181 192 187 198 169 198 174 200 186 199 195 198 225 222 200 190 200 246 235 247 231 226 222 220 216 217 214 216 202 232 231 229 255 198 199 210 212 220 213 226
197 204 203 197 194 195 190 173 198 180 206 209 198 186 189 186 204 212 173 218 187 198 243 234 252 266 244 241 229 222 228 233 274 220 205 207 226 216 213 209 204 208 206 207
205 196 202 205 198 189 198 188 200 198 191 204 186 178 173 193 206 213 222 237 217 241 246 236 227 217 227 223 216 215 208 211 236 217 214 216 204 195 195 209 216 216 213 216
211 206 207 205 202 200 207 197 199 186 216 218 197 191 180 180 184 199 197 217 224 205 186 221 236 228 223 214 211 208 208 211 212 210 209 213 210 204 202 202 203 201 200 196
207 213 202 203 202 201 200 203 178 176 233 184 202 181 180 178 186 187 191 230 198 216 223 262 190 186 220 240 229 225 219 212 207 206 204 200 204 200 202 200 201 200 200 203
212 224 216 218 200 202 201 205 208 212 220 201 194 191 171 178 179 198 207 192 220 219 215 204 225 204 247 201 241 238 231 224 213 214 214 214 224 218 216 218 212 214 214 213
235 234 220 223 214 208 194 210 203 194 206 203 195 197 175 187 182 205 195 180 217 219 205 202 235 205 205 229 256 204 197 239 238 238 236 227 227 224 221 221 219 203 221 220
235 234 231 235 237 237 229 222 224 219 198 149 167 111 178 182 186 209 198 189 201 215 229 218 207 197 215 207 215 213 243 250 243 247 245 242 239 238 233 228 226 225 222 183
278 240 238 232 238 206 191 219 212 183 142 207 183 193 197 190 182 203 186 192 200 205 215 218 196 213 215 201 229 235 222 208 249 212 237 238 240 229 229 228 228 226 223 220
267 287 269 274 275 217 119 206 206 220 202 179 184 210 183 183 185 177 195 194 188 182 207 210 192 207 212 213 221 213 223 247 233 240 237 231 229 227 226 223 221 221 225 219
267 272 269 253 245 225 216 218 217 213 204 202 211 182 204 190 208 184 195 198 186 189 193 210 206 201 215 220 212 242 227 243 248 240 233 226 230 228 225 222 227 227 223 220
260 258 254 244 228 217 211 216 218 205 195 191 191 207 207 208 205 195 194 209 203 191 198 218 211 199 212 206 214 213 220 231 241 250 239 232 232 243 231 239 238 229 224 221
258 246 244 234 221 228 217 211 207 209 194 205 208 207 192 207 191 202 192 197 203 213 205 208 192 206 213 213 203 220 222 221 254 240 211 234 234 215 221 214 214 211 215 219

GFSCGP_2pvu_pres_039.txt.gz
Presure
151 187 185 196 205 164 198 195 174 203 226 187 195 240 256 215 219 205 210 245 243 230 236 194 242 166 188 215 192 191 185 191 192 194 199 155 192 189 208 204 202 205 208 198
199 193 170 187 205 169 178 198 197 186 212 223 203 212 239 271 222 222 242 169 248 232 236 232 213 201 184 190 194 192 192 185 186 204 194 188 184 186 178 206 225 210 199 197
203 194 178 165 203 178 166 183 187 191 190 220 203 193 208 231 216 245 231 256 241 241 226 233 236 229 239 244 220 218 227 237 250 214 221 193 198 206 213 158 201 203 210 205
170 174 192 195 195 172 159 183 200 178 189 208 224 198 208 228 224 208 239 245 235 237 233 223 224 212 221 221 218 216 237 231 228 237 238 217 221 213 210 208 215 197 195 199
177 169 172 192 203 166 153 177 207 173 195 203 214 196 206 217 274 233 223 242 255 249 241 232 231 209 205 208 213 231 209 209 213 213 209 210 210 204 209 197 194 200 202 208
191 186 192 185 191 164 166 195 171 192 190 176 210 218 193 200 210 269 232 219 227 247 261 229 220 219 209 204 208 213 200 193 197 207 210 211 207 202 198 202 199 205 205 200
194 183 179 164 188 174 163 172 193 175 183 191 203 210 191 173 223 215 250 218 216 239 233 237 228 216 223 210 210 207 205 206 209 211 212 203 204 203 212 204 200 201 204 201
185 183 170 159 188 180 161 182 190 190 197 208 204 207 220 189 193 219 229 232 201 209 242 248 241 230 214 223 217 229 216 214 218 217 215 221 217 206 202 201 201 204 199 222
182 192 183 166 190 177 162 163 206 165 199 203 187 202 187 222 188 197 211 238 232 205 213 246 241 251 226 222 212 209 210 213 217 221 225 224 226 226 228 233 233 220 222 253
217 185 157 180 194 190 187 160 203 196 179 168 200 200 221 197 200 197 213 202 238 273 208 219 256 229 243 231 223 222 222 191 196 188 204 226 212 215 226 212 208 217 212 205
198 187 200 197 181 168 200 157 199 176 197 184 198 178 219 197 198 197 213 233 207 220 263 194 208 216 241 234 231 249 214 186 184 232 176 184 206 183 203 196 205 181 247 204
200 199 185 197 203 183 164 174 199 195 182 185 182 192 207 208 197 197 204 221 227 236 212 262 244 232 225 255 231 232 230 201 188 185 211 189 179 199 184 204 191 187 174 191
198 206 193 202 191 174 159 166 199 200 196 197 190 195 194 210 188 197 198 210 210 219 196 197 265 247 247 233 227 222 214 221 204 200 199 197 184 161 184 187 197 179 180 197
214 204 210 215 185 174 189 201 201 198 191 193 188 203 189 194 213 200 193 211 219 227 235 179 191 249 241 276 241 237 227 210 197 184 181 176 186 190 192 182 187 190 191 200
219 220 207 199 197 192 209 199 203 170 185 177 192 191 200 194 186 198 184 198 200 218 171 244 196 238 245 233 226 239 254 240 222 212 209 207 207 202 212 205 226 202 206 217
225 215 206 204 193 202 205 189 212 160 197 185 196 192 192 202 197 190 204 197 198 195 201 234 206 182 195 240 236 233 236 224 216 221 212 210 210 214 214 210 211 211 204 201
208 214 212 217 207 202 206 201 200 198 201 184 193 188 196 198 205 201 188 189 182 193 224 205 223 225 200 227 176 188 205 249 237 227 224 223 217 215 214 214 213 209 206 209
218 221 214 219 205 210 187 195 201 199 195 188 187 188 199 195 201 210 194 195 191 200 202 204 230 230 210 226 223 202 202 203 262 257 251 246 241 236 231 229 223 219 226 229
231 222 209 211 219 216 212 197 199 199 193 189 179 187 198 197 214 202 192 196 187 191 206 190 159 206 233 208 213 221 237 228 203 218 233 212 256 251 247 244 245 246 242 236
302 173 231 235 221 218 212 203 206 204 202 197 193 195 189 198 229 210 197 202 182 182 190 190 190 200 215 204 195 238 199 195 203 216 235 247 260 251 251 250 241 245 241 243
257 257 278 269 228 221 204 207 181 215 184 204 195 202 188 199 186 211 203 201 191 189 180 186 190 190 199 188 221 217 224 223 224 220 230 227 235 248 261 254 251 244 239 237
278 271 264 240 276 237 239 206 211 159 109 208 190 191 197 241 219 210 195 197 193 200 194 192 194 178 186 197 189 222 207 208 201 210 221 223 220 217 255 255 246 243 238 236
239 261 275 262 282 296 275 218 216 231 210 211 225 221 225 230 213 205 204 204 202 198 184 197 197 179 213 189 199 193 193 196 202 225 214 215 225 214 214 216 249 225 216 212
304 276 158 278 264 262 263 115 226 221 222 217 214 223 258 202 214 207 187 186 201 207 199 197 181 193 190 212 195 209 195 195 209 208 211 206 219 224 210 227 216 258 231 251
269 282 278 230 277 272 274 264 261 259 252 234 249 245 191 217 213 210 203 207 199 188 207 198 200 184 191 200 217 196 221 199 213 215 210 198 204 210 224 210 235 221 252 182
288 282 280 256 264 269 256 246 243 268 237 175 221 235 222 213 216 211 190 198 193 210 208 196 194 195 206 223 222 205 181 209 198 216 204 210 209 209 195 225 228 233 233 232

GFSCGP_2pvu_pres_042.txt.gz
Presure
167 199 212 164 193 171 180 188 171 172 191 201 207 220 196 207 251 252 235 219 227 257 245 227 242 202 208 184 189 203 181 196 204 167 178 198 162 171 180 178 189 191 176 198
178 183 193 150 177 177 192 188 184 195 197 180 190 204 206 197 215 265 257 238 237 253 255 217 244 230 179 198 181 203 183 181 190 169 166 164 172 171 176 193 193 150 126 171
188 181 188 202 195 190 166 196 167 163 174 194 192 195 236 201 210 253 235 255 235 247 241 241 227 244 213 199 200 185 189 180 175 175 188 182 184 176 186 193 180 185 192 207
186 165 198 208 188 197 163 191 166 180 173 198 174 187 204 213 202 201 262 212 246 249 246 241 233 238 215 213 220 205 201 190 191 190 195 187 188 193 191 195 205 208 192 221
167 190 179 174 206 174 170 174 194 164 193 171 187 175 207 201 219 198 208 254 221 241 254 234 236 231 230 133 224 245 190 179 182 190 230 220 185 206 201 242 231 214 212 204
184 192 197 179 200 169 165 182 199 167 160 189 200 173 186 196 200 199 196 250 255 216 251 252 243 224 231 228 226 211 201 199 204 208 222 229 223 225 215 209 201 199 202 206
163 180 193 193 183 189 199 202 191 180 164 181 201 170 203 203 197 213 193 206 281 222 227 257 262 251 234 222 222 221 221 220 219 234 222 212 215 210 200 201 201 201 199 198
198 196 197 209 193 200 215 202 184 198 160 165 195 174 195 180 194 210 209 194 208 281 248 214 250 266 234 225 229 217 215 218 213 219 207 210 207 215 214 206 213 218 213 229
192 196 202 202 196 181 169 157 181 195 157 153 199 177 184 193 197 175 222 187 209 199 261 246 217 245 250 267 229 228 232 221 211 212 217 204 202 213 218 221 201 200 202 203
202 196 205 214 174 186 180 167 191 180 159 166 198 195 199 186 189 215 174 192 192 227 211 217 264 206 234 244 254 242 225 211 208 206 198 208 227 201 198 191 192 195 187 211
205 205 204 207 221 208 192 157 207 182 200 179 197 199 168 182 184 201 178 217 220 209 217 192 215 266 235 212 246 249 251 229 218 196 214 212 184 203 172 194 200 192 196 201
216 218 207 223 201 216 186 197 208 183 169 193 188 193 209 183 182 201 183 205 187 213 209 219 201 198 260 243 232 204 241 252 253 254 223 209 198 187 189 191 182 201 170 190
213 216 216 213 216 221 223 195 167 193 163 159 191 187 207 191 191 206 192 213 203 188 209 222 236 187 186 239 225 236 235 249 239 205 209 200 193 209 201 181 175 179 179 174
224 220 227 210 200 202 211 222 202 201 205 160 179 189 200 191 192 202 198 195 190 188 130 205 202 251 195 182 246 228 232 244 225 231 226 205 211 205 196 194 182 203 184 188
223 224 212 212 214 206 205 218 210 209 160 165 186 199 193 201 183 197 193 190 194 179 223 209 197 230 246 195 204 252 226 220 242 227 203 205 196 191 190 197 196 185 190 189
234 242 241 236 223 225 217 217 217 202 162 199 192 191 197 199 208 191 208 193 195 181 167 197 196 213 209 252 191 197 182 237 217 230 220 207 200 197 191 189 187 191 188 190
270 248 237 243 232 226 230 219 220 210 201 202 177 195 192 191 195 186 205 205 179 191 216 191 207 201 203 220 224 256 235 208 174 171 221 226 214 214 210 208 204 203 203 203
290 289 288 273 245 239 121 153 217 221 217 182 187 198 193 197 199 205 188 192 193 189 191 212 181 204 190 210 211 196 224 222 232 204 187 250 233 263 260 266 266 269 279 275
315 260 265 279 269 225 200 217 206 211 219 212 198 196 198 202 209 196 181 190 195 185 188 215 205 205 184 190 187 198 186 195 220 237 209 249 199 204 208 250 250 255 261 265
344 288 265 275 280 259 232 118 211 213 223 196 195 198 203 196 194 191 202 187 191 178 203 177 210 167 201 178 182 194 200 192 200 194 217 195 191 217 222 198 231 216 223 230
333 295 262 264 277 285 283 220 221 229 177 207 209 213 203 184 199 203 196 184 187 195 190 192 212 210 194 186 186 192 181 174 211 188 208 202 216 198 198 225 216 218 227 214
301 285 227 270 290 281 265 263 223 203 152 152 186 215 218 217 202 183 204 193 200 191 183 214 213 210 201 208 205 190 192 170 191 179 222 217 193 204 205 203 219 219 204 196
327 290 184 256 245 255 257 262 265 221 220 222 220 148 213 206 205 211 191 200 192 211 230 215 183 207 207 202 205 222 181 192 208 213 195 223 229 207 190 204 196 220 202 210
316 265 273 265 249 260 273 281 133 280 290 242 234 229 228 227 197 194 205 207 214 214 226 218 209 203 195 190 201 191 197 206 193 197 193 219 222 226 191 205 207 215 220 205
297 283 267 266 263 262 273 272 249 221 258 261 256 250 248 245 240 254 219 210 188 226 228 212 209 209 191 195 208 211 213 210 203 192 207 213 226 224 220 217 216 211 204 213
343 282 251 268 259 271 248 242 215 257 274 282 270 267 256 254 255 234 232 215 227 237 224 201 210 211 202 197 204 206 202 213 195 205 206 213 221 224 224 213 215 212 225 220

GFSCGP_2pvu_pres_045.txt.gz
Presure
184 188 201 198 173 171 179 192 186 192 190 184 193 168 205 219 213 216 212 262 259 251 234 260 261 191 219 191 183 174 191 178 193 184 174 180 180 184 181 169 169 179 160 160
186 180 182 199 180 174 196 208 166 178 189 179 180 185 191 192 217 207 214 235 215 253 257 274 258 237 236 223 191 191 168 192 179 182 176 169 173 168 183 173 161 188 187 184
177 186 193 191 196 162 181 193 188 181 189 173 171 199 175 197 198 196 211 213 256 229 245 256 260 253 208 210 198 193 192 189 193 188 183 183 178 174 186 190 187 192 185 191
179 182 179 179 184 178 189 194 204 199 186 171 168 164 181 177 187 214 225 205 217 263 248 259 259 255 230 238 217 207 182 198 190 193 188 189 195 169 173 169 177 174 172 196
164 187 195 173 181 166 194 173 171 180 182 177 168 160 201 198 187 202 188 222 208 219 222 256 258 246 253 232 236 240 197 232 217 210 173 172 202 199 197 189 172 171 206 178
189 189 188 190 192 150 176 187 180 187 191 186 184 161 165 187 203 197 203 215 206 212 266 211 255 263 248 244 245 239 203 211 150 231 179 190 211 175 197 203 183 184 191 182
186 162 181 179 188 187 158 194 193 182 184 193 208 173 158 188 178 186 203 208 212 200 211 270 221 265 256 255 237 240 238 232 198 192 197 176 197 201 201 185 184 180 188 215
170 182 182 184 171 186 160 194 199 202 199 192 202 193 161 166 194 196 183 201 209 182 209 207 240 212 255 253 249 235 234 233 214 213 233 240 236 188 183 186 188 194 228 221
148 185 186 188 176 182 193 204 197 198 190 179 177 203 162 161 188 196 194 196 200 195 209 201 235 226 224 249 256 238 230 225 226 227 223 225 223 220 228 228 219 212 206 212
193 189 189 194 195 178 203 191 201 205 202 191 169 192 165 158 190 194 180 185 197 178 209 203 216 228 232 213 229 253 254 229 228 230 221 214 212 211 209 207 200 205 226 203
186 185 193 198 198 193 194 195 203 206 215 164 177 196 155 161 191 190 174 179 206 194 205 194 201 219 245 218 267 205 258 250 251 227 223 228 224 224 203 195 216 200 190 206
204 198 192 191 191 194 197 196 207 217 216 164 208 193 203 189 189 192 192 199 179 202 169 197 214 221 211 218 198 276 249 211 206 245 256 245 213 213 214 221 197 180 181 194
193 189 193 195 199 200 202 198 199 206 205 216 193 185 198 188 159 177 174 200 188 210 199 195 178 234 195 235 229 211 209 260 220 224 248 241 243 197 205 206 244 207 189 202
207 202 198 197 193 201 203 204 209 216 213 216 212 212 179 193 161 182 185 199 174 176 202 198 196 178 179 168 246 222 241 267 257 247 220 225 233 228 243 241 215 212 202 218
219 214 212 208 206 209 210 212 221 221 215 225 203 179 206 189 189 175 198 193 191 182 195 201 203 209 191 191 204 230 200 199 201 249 236 237 214 235 215 210 207 198 196 221
228 228 231 230 222 222 225 224 215 223 220 226 204 192 207 208 171 197 187 196 191 201 194 195 207 170 194 177 221 197 206 173 214 194 243 224 235 229 222 215 205 206 203 202
254 257 252 241 236 224 222 218 223 220 213 209 207 195 201 207 199 183 195 193 196 189 205 193 203 214 208 179 204 201 184 206 224 208 220 207 223 239 228 223 212 207 209 203
280 257 256 259 246 252 244 228 239 235 223 222 226 219 220 204 206 199 199 198 190 195 160 181 191 205 196 204 194 221 189 196 183 199 211 202 210 230 217 220 214 199 180 209
342 251 300 300 307 297 258 103 132 243 220 221 228 227 219 213 209 206 191 189 201 200 207 195 181 194 182 198 214 191 210 216 192 187 196 189 183 193 201 179 195 235 189 193
322 333 343 355 291 277 282 267 253 245 250 227 220 221 227 232 224 168 213 209 201 196 193 185 198 184 192 185 199 177 203 215 185 172 189 190 177 202 196 197 209 200 186 205
305 309 323 329 342 313 262 193 109 136 118 210 171 230 225 228 220 166 213 213 192 171 191 185 193 190 182 185 193 211 199 210 213 212 199 192 192 176 192 185 203 191 218 228
292 297 304 315 335 303 290 300 254 270 274 115 135 230 231 226 224 219 220 206 195 195 191 188 192 192 191 191 198 182 209 208 206 204 210 170 216 197 183 203 205 190 208 211
267 283 289 285 311 390 314 314 276 298 263 275 255 126 221 225 209 211 211 223 208 207 209 212 207 202 191 181 192 188 211 211 176 204 197 199 205 203 217 214 202 188 208 209
274 287 286 297 317 290 270 278 278 280 263 297 297 271 261 229 230 213 206 193 195 204 202 192 192 197 193 199 193 224 209 213 210 209 205 200 192 202 206 202 216 203 203 211
273 288 299 287 331 158 273 238 286 224 254 247 256 284 275 172 252 215 216 210 212 216 193 193 203 178 190 205 213 203 220 215 212 209 211 201 207 204 206 213 215 199 207 208
278 290 302 310 277 264 178 252 251 276 257 262 245 247 249 255 271 264 251 245 206 209 211 239 228 234 221 222 195 203 224 217 214 209 210 213 206 210 206 197 208 209 208 207

GFSCGP_2pvu_pres_048.txt.gz
Presure
178 172 183 184 170 188 173 203 177 187 195 193 181 198 184 190 190 194 205 201 220 235 283 255 218 262 200 212 163 185 190 189 182 180 182 175 188 174 173 181 203 186 200 189
178 186 182 187 186 187 171 196 197 180 180 197 188 188 177 181 197 180 188 209 206 219 273 260 268 252 200 185 175 184 192 194 167 181 181 179 190 179 189 179 175 171 179 175
175 178 178 169 177 181 186 178 170 176 189 199 190 197 201 165 175 195 206 201 209 217 225 261 248 261 268 210 219 191 204 184 194 175 190 178 178 190 177 182 182 171 181 173
183 185 185 187 167 171 186 181 180 182 189 184 187 182 169 196 169 177 187 207 199 202 216 249 217 263 268 255 216 224 191 205 189 190 180 172 173 183 188 174 173 192 164 175
186 187 179 192 188 180 179 199 175 197 184 168 176 185 182 195 186 174 194 206 190 224 196 215 273 214 254 242 257 224 207 189 179 201 192 194 190 174 171 171 179 186 193 185
185 188 179 158 191 186 188 177 189 167 175 175 174 180 199 194 198 168 176 171 190 200 217 212 212 278 239 259 259 245 230 199 239 193 185 196 198 196 187 194 192 179 179 182
187 179 187 186 182 191 186 182 185 173 158 156 189 192 201 195 185 172 173 183 201 188 209 196 204 229 256 229 258 262 252 220 218 232 218 214 179 182 203 186 189 182 182 177
196 195 186 189 189 186 192 174 168 188 186 186 190 168 195 181 191 193 165 183 200 177 190 207 219 222 227 227 241 256 262 243 233 248 226 227 198 204 208 181 218 193 197 174
200 202 195 199 193 190 194 184 192 179 188 173 183 195 194 196 186 189 169 189 193 206 189 197 190 196 218 222 235 236 256 273 239 224 228 235 235 227 214 198 205 219 218 229
197 192 201 194 193 183 176 198 193 183 189 179 182 194 191 196 213 190 179 168 195 199 204 189 205 199 204 211 212 240 222 241 265 245 230 225 228 228 228 231 216 212 205 208
217 212 204 202 202 200 191 169 185 173 183 191 191 183 195 199 208 207 187 167 183 191 199 200 179 204 185 213 212 211 235 213 264 222 264 234 228 226 227 224 220 219 227 217
198 201 194 197 198 197 197 192 196 187 193 199 192 184 195 197 201 199 206 160 187 190 190 194 189 198 193 186 219 200 216 227 202 271 238 262 261 254 229 223 224 232 228 216
199 195 194 195 195 195 189 186 187 195 197 206 187 194 167 196 205 183 215 189 195 183 186 192 187 189 190 205 158 204 197 223 218 195 192 258 227 234 237 255 253 247 210 220
208 206 202 202 204 207 204 205 208 211 202 198 191 197 168 199 203 192 193 208 189 169 198 197 193 188 191 203 190 201 158 157 221 227 204 239 256 241 248 228 240 236 237 211
220 214 212 203 197 196 198 194 196 196 202 198 200 193 171 182 207 220 212 211 196 171 200 198 200 186 119 199 203 215 197 222 199 210 232 205 191 240 229 236 232 225 228 236
221 220 222 220 216 212 207 210 207 205 203 200 205 195 198 162 209 225 164 208 206 186 175 189 201 193 188 157 187 194 211 208 213 180 197 235 218 259 246 228 226 242 238 232
223 223 220 210 218 221 220 208 211 212 213 214 213 209 214 210 166 216 213 195 197 208 172 194 193 200 192 199 192 171 196 200 177 223 235 181 213 207 241 216 204 197 235 223
227 226 220 216 216 218 209 213 216 227 227 227 228 225 227 220 214 208 212 201 196 200 204 190 191 200 177 181 204 189 190 189 205 183 179 224 187 188 200 197 194 200 204 202
245 244 249 250 246 169 238 119 171 164 224 220 225 225 222 223 213 211 210 205 208 207 214 174 196 200 201 190 202 186 182 192 195 195 171 186 216 215 204 191 200 192 188 202
260 257 235 252 246 253 239 253 255 260 245 133 248 243 238 233 228 221 215 215 210 210 225 213 209 199 196 193 197 191 188 182 191 190 192 185 191 207 212 219 211 188 173 176
266 258 270 279 215 272 106 192 287 288 283 142 266 178 249 244 240 233 219 214 214 214 216 217 218 211 202 204 190 207 196 192 192 197 190 195 175 168 163 200 213 208 209 202
317 321 324 328 298 240 305 314 312 279 296 191 144 119 278 241 241 231 213 212 213 219 223 222 197 210 208 206 200 191 187 191 200 200 191 196 196 189 208 170 214 209 193 203
289 294 292 295 306 190 325 327 325 327 337 351 304 286 264 142 261 239 219 218 212 210 219 215 223 203 208 207 206 192 199 194 207 192 199 181 207 196 221 206 206 214 210 182
252 278 282 289 293 228 298 316 318 301 331 313 318 328 278 270 131 247 240 238 223 218 215 214 216 213 205 208 208 200 194 203 199 195 193 194 204 181 212 214 207 203 208 210
170 270 271 276 277 288 282 299 305 294 329 304 295 305 279 276 270 247 253 248 242 243 235 228 218 207 184 204 203 194 196 197 200 197 202 211 199 209 212 202 213 209 209 214
270 284 295 283 282 290 284 307 290 308 317 319 295 308 275 281 262 251 273 282 250 242 238 224 212 207 209 193 193 212 208 208 212 197 213 224 222 222 212 205 222 223 214 207

GFSCGP_2pvu_pres_051.txt.gz
Presure
188 178 186 176 198 169 170 176 188 190 180 179 185 187 204 177 198 176 187 198 200 205 235 240 270 274 195 210 194 203 199 188 197 193 180 179 180 182 185 184 181 182 173 183
182 178 185 192 183 169 181 187 185 190 196 194 173 183 205 201 196 177 181 198 188 202 216 204 264 259 265 246 210 225 197 193 205 192 176 182 190 175 182 175 183 179 182 175
188 183 177 187 188 172 184 184 195 179 186 178 183 181 196 181 187 189 166 189 193 199 205 209 220 266 260 268 208 262 193 201 189 191 186 193 188 193 176 169 166 174 190 191
180 177 183 186 182 180 181 181 182 182 183 179 189 169 187 188 184 176 189 188 187 191 201 212 223 235 225 261 266 202 206 187 188 183 195 182 179 194 182 176 176 172 170 169
194 185 176 188 175 193 186 191 177 180 191 187 188 182 179 191 182 197 190 159 182 183 193 206 192 213 265 245 263 270 194 206 195 190 187 193 176 181 190 194 190 181 192 180
189 191 180 188 187 182 185 180 170 191 194 182 174 175 168 184 194 200 201 196 196 200 197 194 195 244 208 254 266 270 268 195 188 185 199 196 200 189 183 181 184 195 192 193
195 189 181 186 185 183 183 187 193 202 181 178 184 168 159 167 173 199 183 195 211 174 207 187 192 198 220 219 229 245 266 269 239 200 233 195 192 184 192 188 182 176 177 180
189 193 194 189 191 193 188 188 183 189 190 172 191 159 166 184 186 198 205 198 204 169 201 195 188 199 186 205 222 228 237 255 267 265 245 231 191 191 191 189 203 204 188 191
194 190 186 194 179 186 196 177 188 193 192 181 172 169 191 179 186 189 193 192 203 207 175 210 205 197 198 198 211 204 222 236 230 243 267 244 242 241 209 201 197 220 204 207
207 207 206 189 190 189 194 196 188 201 192 185 176 166 185 173 173 189 184 197 207 204 161 202 194 178 189 194 203 215 217 211 231 217 245 259 244 235 234 236 237 231 222 219
194 196 200 199 193 193 195 193 200 199 182 177 175 172 185 177 180 190 194 197 196 203 217 162 188 198 197 195 182 198 181 204 214 244 216 243 253 222 231 222 220 221 223 223
202 92 192 190 196 198 205 204 197 198 196 195 171 191 187 184 184 192 198 187 195 194 202 192 168 201 205 190 200 197 196 220 214 199 225 222 202 213 238 248 250 227 219 221
197 204 201 194 203 198 198 199 204 203 211 180 205 179 186 166 175 189 191 181 187 192 206 220 206 197 182 191 192 193 197 197 157 208 191 212 234 211 199 270 233 224 246 239
206 204 205 204 195 197 211 213 214 208 210 206 202 195 192 179 190 192 199 196 188 198 169 214 196 202 179 201 198 174 194 204 198 146 170 183 210 220 224 202 199 213 227 235
225 215 219 206 213 212 208 205 200 197 192 193 187 185 186 192 186 197 187 197 198 174 196 200 178 207 202 200 205 188 193 192 206 210 188 195 220 198 209 226 246 251 239 232
215 206 207 205 204 203 204 209 203 201 201 201 195 198 201 202 204 194 187 192 187 189 196 213 161 206 199 200 181 207 189 189 196 208 209 195 182 159 211 192 207 193 248 248
220 219 214 212 214 212 207 206 207 211 211 204 205 202 206 200 190 183 194 194 190 198 207 219 212 195 209 199 202 199 201 186 200 196 178 196 193 182 208 208 210 175 205 211
237 235 240 230 228 219 212 219 221 225 224 219 218 211 202 205 205 198 185 202 201 201 207 220 211 195 190 201 212 171 195 200 192 181 187 193 189 200 187 210 190 188 191 190
230 216 224 234 232 125 213 214 220 223 220 222 227 224 219 218 216 210 204 207 206 213 215 216 210 206 197 190 201 211 206 196 202 174 198 196 194 191 202 203 201 181 188 184
226 225 226 220 219 214 222 226 226 225 205 225 223 222 225 224 217 212 219 219 215 212 210 212 202 211 209 200 196 203 171 196 204 198 199 190 192 192 200 196 202 204 209 178
241 241 241 238 235 221 226 227 225 224 227 214 229 229 228 228 229 221 221 216 214 209 211 226 221 213 210 211 208 211 204 195 202 193 199 199 191 184 182 186 194 196 193 192
266 261 252 244 241 84 164 201 253 249 249 210 257 179 207 257 251 253 245 201 234 232 227 225 218 218 217 213 217 211 204 196 201 206 202 199 193 188 187 186 196 196 193 190
254 257 259 266 262 271 269 271 276 278 273 266 269 268 263 288 291 144 127 248 226 146 227 224 228 226 226 216 216 207 215 213 208 180 191 203 193 202 198 194 199 201 193 193
316 315 268 259 152 261 260 179 267 322 324 270 269 287 295 297 299 289 264 282 274 142 237 233 231 230 229 217 213 213 209 213 222 222 202 192 191 204 191 192 205 201 194 193
298 301 301 307 309 308 306 239 309 314 315 317 314 315 329 327 339 371 333 264 276 264 275 251 242 240 227 227 223 212 210 207 214 205 193 193 194 211 200 199 201 201 203 209
268 283 286 286 287 289 290 296 293 293 293 299 301 294 310 277 320 326 306 307 303 189 278 281 255 253 238 229 224 222 220 221 218 208 211 214 195 198 204 202 203 209 201 197

GFSCGP_2pvu_pres_054.txt.gz
Presure
197 200 195 186 189 188 190 171 184 186 180 192 196 188 180 190 205 206 200 172 183 200 211 224 205 283 281 213 202 212 209 195 208 184 190 191 174 196 178 192 184 180 181 183
199 197 192 188 176 192 167 176 186 186 175 193 184 198 183 183 190 189 186 195 177 189 208 210 205 236 262 227 198 194 211 202 175 195 200 192 191 174 192 180 181 179 185 187
203 197 194 189 188 180 183 182 183 182 181 185 184 192 197 174 180 197 193 198 182 171 191 204 217 221 270 259 214 204 196 211 195 197 203 189 189 192 189 182 185 178 174 168
195 198 192 184 193 174 175 187 179 171 183 183 176 183 191 193 178 166 194 201 205 175 188 198 211 199 214 229 281 274 198 195 206 191 205 184 188 187 191 190 192 186 180 188
190 192 191 183 188 180 183 187 191 186 170 183 178 188 177 191 189 180 180 185 205 199 162 187 199 213 215 220 240 281 243 200 202 205 195 197 188 200 184 173 189 172 185 185
207 200 188 191 186 179 184 180 190 179 169 169 184 189 179 189 183 187 184 194 195 201 209 178 189 200 208 201 228 225 285 205 195 208 203 191 195 188 198 193 185 178 183 181
203 198 186 198 178 180 178 172 180 177 175 184 185 189 182 181 183 182 180 164 180 186 195 195 179 200 201 204 205 227 242 263 204 204 196 201 186 192 196 184 187 192 181 187
206 200 197 198 187 187 175 181 182 188 173 185 172 181 180 173 180 196 179 161 195 177 197 202 163 184 180 201 183 206 217 238 239 267 194 190 191 186 197 182 179 186 198 190
201 199 196 196 199 192 199 194 181 196 189 185 175 182 174 177 179 179 177 180 176 192 198 206 210 172 199 195 197 200 205 217 225 229 241 259 268 203 191 200 213 177 187 188
201 200 198 199 190 199 189 191 186 184 186 183 177 183 179 174 181 175 171 191 185 194 189 194 200 166 172 201 184 195 194 191 218 215 236 223 256 276 258 248 216 203 212 213
211 198 191 200 198 196 194 200 195 188 182 186 178 177 177 186 176 194 189 170 188 175 178 186 193 204 195 178 198 193 194 194 197 198 216 213 236 212 255 273 259 237 234 233
213 205 200 200 193 189 188 187 189 187 182 188 191 191 189 188 178 189 188 174 187 192 180 207 197 195 209 227 169 190 192 202 196 177 200 213 204 233 229 205 220 272 263 247
213 214 211 208 145 200 200 199 204 201 190 191 192 192 190 193 187 182 179 178 193 190 181 194 195 193 205 203 224 207 195 196 192 198 185 199 194 233 191 213 230 213 225 268
202 203 204 204 202 204 203 199 197 200 201 195 190 199 195 188 179 177 187 176 196 191 185 186 202 202 189 200 209 227 176 182 193 199 182 207 203 164 220 234 213 213 227 221
207 204 206 205 206 205 205 201 195 194 193 195 194 194 198 191 183 186 196 197 195 198 190 190 195 193 203 189 201 221 224 185 204 196 196 196 191 209 199 177 197 217 209 217
218 218 214 195 191 196 211 201 198 202 202 195 199 196 194 208 210 206 202 197 190 156 172 189 205 196 198 203 188 209 236 223 201 204 180 184 189 198 190 205 151 153 205 177
216 210 217 215 206 204 200 195 199 202 207 205 203 203 224 216 204 201 198 193 188 165 190 198 204 199 197 197 185 193 219 229 222 192 180 203 190 185 204 192 194 200 192 202
222 221 217 216 219 216 208 205 201 203 206 226 226 220 213 202 198 197 196 186 188 192 199 196 200 194 199 193 198 204 204 216 214 204 214 202 200 199 205 178 203 190 195 196
237 231 227 218 216 216 216 223 227 228 210 212 209 207 208 209 208 203 203 197 191 194 200 199 188 194 191 192 203 199 215 215 214 209 196 206 206 191 194 200 184 188 198 200
231 233 227 222 216 220 222 222 222 220 222 213 209 214 216 212 215 214 211 208 214 209 194 191 196 203 199 200 219 217 219 210 208 216 203 201 201 203 171 195 193 196 202 203
246 242 239 240 242 101 210 225 228 221 218 232 232 228 233 236 221 229 224 224 222 220 220 219 214 210 168 215 214 211 212 208 205 208 214 205 211 207 207 183 194 194 194 202
240 232 230 225 231 238 238 237 233 235 231 228 233 239 233 233 237 228 218 220 225 222 217 219 218 217 213 213 212 214 214 207 206 218 204 209 210 211 205 207 196 191 194 198
245 235 236 232 227 229 234 217 224 226 227 224 226 225 225 229 228 235 233 229 183 230 228 225 226 218 222 220 149 223 223 227 218 227 216 218 213 210 207 206 203 206 199 203
276 202 245 242 224 236 235 233 231 232 215 236 238 242 244 245 248 253 258 261 261 155 229 243 239 220 246 249 240 234 233 231 228 229 222 219 218 215 207 203 208 212 210 197
251 271 275 257 250 249 247 248 251 128 253 260 260 263 268 273 277 287 291 293 256 290 298 292 286 271 267 261 260 253 246 234 233 228 222 224 225 217 220 215 204 210 212 213
244 242 246 247 251 253 258 259 262 267 264 256 258 261 187 264 271 314 274 336 338 342 254 327 335 340 322 267 267 277 256 246 237 237 234 228 226 226 216 213 211 214 211 213

GFSCGP_2pvu_pres_060.txt.gz
Presure
276 271 253 212 243 232 219 211 206 201 196 197 188 186 191 189 192 197 200 187 194 189 197 199 207 190 195 239 282 221 215 215 186 229 224 219 230 178 224 208 230 210 193 199
252 251 238 246 235 216 207 210 193 199 196 183 194 186 184 185 186 190 196 208 198 189 191 193 203 202 179 223 255 216 210 214 206 225 227 204 200 208 221 214 211 207 194 204
237 242 234 236 216 214 206 205 191 192 194 184 186 186 180 187 180 183 183 182 206 199 186 178 209 202 188 187 214 244 203 205 206 207 208 217 215 201 185 223 192 203 188 192
229 233 233 226 210 206 211 197 198 193 193 190 186 185 177 181 184 185 184 183 201 195 192 177 187 209 203 173 218 243 200 202 207 195 200 231 216 210 206 226 198 200 178 181
230 231 228 216 208 209 206 203 201 193 189 194 184 186 182 176 172 185 183 188 186 192 194 189 176 210 203 203 174 214 248 202 197 201 197 193 192 217 204 196 190 196 186 189
242 237 237 214 207 204 201 205 193 186 192 185 184 181 180 177 181 181 179 182 182 189 191 196 183 192 209 199 161 205 208 247 200 197 197 191 192 190 189 211 203 207 189 187
245 233 230 214 202 198 199 205 192 188 186 183 181 182 181 177 176 184 174 176 178 182 188 187 187 182 182 203 220 173 208 233 240 170 212 216 206 197 195 186 184 194 201 201
220 230 231 210 206 200 196 205 196 190 183 176 180 178 176 177 172 184 177 173 176 180 186 186 186 191 163 171 158 221 186 213 222 218 216 220 202 205 201 197 186 183 182 184
213 219 230 218 207 199 195 202 192 192 186 178 184 180 181 178 175 180 181 179 178 180 178 187 183 185 192 188 200 210 206 169 189 218 209 224 263 209 199 195 194 193 192 191
219 214 226 226 211 199 197 200 186 196 185 183 181 176 176 182 177 172 174 172 169 181 181 171 189 185 153 184 183 190 200 204 196 185 209 216 211 235 209 194 194 193 194 186
224 219 228 228 219 196 190 193 195 193 192 182 180 174 180 190 178 177 179 185 181 174 185 179 171 178 185 178 179 172 187 197 210 206 182 182 212 217 201 234 233 201 197 198
234 224 214 211 221 207 202 192 199 192 191 183 182 177 186 186 176 187 187 170 175 187 192 185 181 184 173 188 189 195 180 190 203 192 216 190 177 187 205 220 208 227 235 239
221 216 213 202 217 224 195 193 185 191 192 189 187 183 178 184 178 179 177 180 176 179 183 186 184 185 186 179 194 187 180 181 194 192 197 203 219 162 183 202 207 206 183 187
225 214 203 205 216 220 228 200 189 181 193 197 188 178 182 187 182 178 180 184 186 169 179 185 185 188 186 190 199 193 187 193 181 193 195 202 201 214 204 191 192 191 196 200
223 223 220 216 212 224 227 211 193 198 189 198 195 189 188 189 191 188 190 181 186 197 184 190 179 181 184 190 203 200 191 191 175 182 203 186 208 192 201 208 183 188 195 181
222 217 220 214 222 225 220 214 202 195 190 195 201 203 193 189 200 194 183 182 192 189 192 190 186 191 182 189 197 190 195 182 188 195 202 200 203 199 205 191 202 229 190 209
229 225 222 206 213 216 222 201 212 214 207 201 202 201 201 200 206 200 199 202 191 195 187 186 189 191 198 195 192 189 195 202 191 197 204 202 197 203 200 213 198 189 206 218
232 227 222 220 215 210 207 216 214 205 212 209 210 209 207 207 196 198 191 195 194 190 194 191 199 200 197 189 189 187 206 181 188 194 206 205 193 194 196 210 203 210 205 205
248 234 229 225 217 214 214 215 205 219 217 199 204 201 198 202 198 197 193 196 192 194 197 201 204 195 191 191 200 197 192 168 191 199 213 209 192 201 195 200 209 210 202 204
240 241 244 230 216 217 213 213 212 214 211 217 219 218 211 201 196 198 202 200 204 201 201 204 206 199 198 201 196 196 201 197 209 211 213 194 193 201 199 206 202 210 208 211
250 237 249 233 224 222 220 219 210 204 200 216 218 213 210 209 215 220 217 207 201 198 199 199 200 201 198 200 201 205 203 206 215 220 205 205 203 206 202 190 181 216 208 221
278 252 241 247 236 227 220 220 217 221 213 210 208 203 210 209 205 204 207 202 194 194 196 200 201 200 204 205 204 204 205 208 220 213 213 206 208 206 204 205 205 217 216 216
289 283 251 243 240 229 222 226 213 210 211 210 212 207 209 206 205 207 209 209 209 208 211 212 210 205 205 206 206 203 211 215 219 213 212 211 210 213 214 211 218 224 223 217
286 296 288 258 243 237 234 237 184 222 222 226 220 212 207 210 210 208 214 213 207 211 210 218 222 216 214 218 224 225 220 216 215 214 219 214 230 235 233 227 227 227 224 219
164 301 330 281 266 247 241 234 232 231 164 230 227 228 230 228 223 222 223 224 228 227 230 223 230 229 224 223 225 221 225 226 223 205 238 239 233 234 236 242 244 231 228 229
330 308 317 276 278 294 251 240 245 243 235 226 225 232 235 236 236 222 224 233 236 239 236 247 248 239 234 245 158 250 251 250 208 238 243 247 248 251 257 256 261 257 252 248

GFSCGP_2pvu_pres_063.txt.gz
Presure
231 293 285 267 254 235 227 226 223 231 210 225 215 204 202 192 183 200 193 190 196 202 197 200 190 193 210 216 181 253 240 238 222 212 247 221 231 199 200 209 181 177 177 185
293 258 267 266 260 241 218 232 231 228 204 211 200 191 202 194 188 189 193 201 195 198 204 205 196 193 191 214 195 179 301 252 220 216 202 240 243 198 199 211 230 193 195 210
268 266 255 258 251 246 223 229 219 216 216 213 194 195 198 190 194 191 185 189 184 186 201 211 195 196 178 213 211 182 255 228 212 212 203 248 214 250 241 264 230 221 231 216
253 259 254 254 255 244 252 221 223 206 212 203 184 200 192 187 187 187 181 186 187 180 187 199 196 199 184 178 216 202 221 209 229 195 206 198 234 229 223 224 193 228 216 232
249 260 247 247 231 233 217 227 213 217 209 202 194 193 185 188 184 186 178 182 187 180 191 188 197 193 199 171 215 205 188 237 203 203 205 203 203 222 223 175 190 204 214 206
266 248 237 239 232 225 226 223 211 215 206 198 190 189 192 186 185 187 181 180 179 183 185 187 188 194 192 190 188 205 210 171 233 198 207 202 197 199 192 201 216 198 191 201
250 259 239 230 224 228 222 216 212 223 200 194 185 192 188 187 180 185 180 179 181 182 175 179 185 192 196 193 183 181 207 215 187 207 249 219 199 201 202 207 190 199 202 185
246 240 236 237 225 213 217 209 210 209 202 187 194 190 182 194 182 184 176 179 180 185 179 176 178 185 188 194 180 170 188 206 211 198 235 252 213 214 203 210 203 198 191 198
226 239 238 230 225 214 206 221 209 205 209 196 192 180 188 189 184 179 181 178 179 176 183 181 175 191 182 188 196 191 164 187 194 203 207 207 236 204 208 185 204 195 193 192
226 228 234 226 229 213 214 213 214 217 204 190 192 182 187 189 183 177 177 178 179 177 178 182 179 168 190 184 182 188 192 198 181 184 195 210 199 203 227 240 203 204 205 196
233 227 225 240 226 225 213 209 205 209 203 196 189 193 182 188 189 181 177 177 180 175 169 181 174 165 176 185 179 187 183 189 171 190 190 182 203 228 195 189 223 225 202 199
240 228 228 233 218 223 229 204 208 207 207 194 192 187 189 179 189 179 180 178 178 179 179 180 180 180 191 185 182 181 180 163 188 176 195 177 193 197 201 212 190 189 226 241
247 223 231 220 224 224 212 226 204 204 204 206 194 192 189 186 188 192 181 181 181 179 179 177 179 149 177 167 184 162 179 167 163 198 175 200 190 193 189 197 220 204 167 189
242 234 242 227 222 215 210 222 221 194 205 202 196 183 191 186 185 189 189 180 181 187 188 183 178 179 175 171 171 177 177 156 183 193 186 203 199 192 188 202 201 200 213 210
241 234 229 231 219 217 218 223 220 207 194 201 190 189 186 181 185 189 191 198 194 187 188 177 175 178 180 182 185 181 167 189 181 184 194 199 198 199 195 192 209 200 196 202
240 235 232 223 233 222 235 221 216 213 218 193 197 190 192 186 199 192 188 191 187 182 180 186 144 190 187 174 189 193 192 184 192 183 173 194 190 180 208 192 176 214 205 189
240 236 236 225 223 222 224 217 208 206 216 218 196 198 190 192 189 199 200 192 187 184 186 182 181 185 183 177 189 183 192 185 191 156 198 194 190 193 209 193 199 201 205 203
242 234 230 233 227 228 215 217 213 209 215 219 221 192 198 204 196 194 190 199 196 188 180 184 189 190 190 193 198 192 195 188 192 206 199 180 195 195 207 199 193 206 204 211
246 236 234 227 222 228 222 215 206 208 220 220 220 224 210 200 201 195 200 197 196 194 200 205 191 193 200 203 197 197 194 193 198 203 173 192 187 196 197 202 192 198 211 177
296 245 240 230 230 224 223 221 215 204 207 207 214 227 226 219 182 195 199 195 193 198 202 201 202 203 203 200 199 198 188 204 195 181 193 198 196 196 196 200 197 205 200 219
293 263 239 239 229 223 233 227 218 222 225 227 208 215 216 218 219 221 216 212 210 213 211 209 203 204 204 198 202 204 205 196 203 202 200 196 202 201 201 202 209 203 207 217
291 294 259 242 234 227 228 219 228 231 216 215 214 210 213 211 213 218 218 208 203 202 202 204 207 214 210 206 209 218 209 206 203 203 202 202 206 212 203 207 196 203 212 213
280 297 300 251 253 222 228 224 216 221 220 217 216 210 211 210 209 204 203 212 214 222 222 221 214 213 219 219 216 211 206 200 203 205 208 205 210 203 208 214 212 220 220 221
275 285 296 299 244 247 243 230 228 221 222 220 218 215 213 212 218 218 221 217 224 206 205 205 207 212 214 205 203 205 205 205 205 209 204 210 212 217 216 170 219 212 223 220
332 287 283 298 309 241 243 241 247 232 173 227 222 223 218 211 211 210 210 209 211 212 213 213 211 212 213 214 212 209 213 214 214 214 215 217 225 219 199 198 199 221 225 226
314 279 251 292 325 292 243 240 244 245 235 241 212 223 226 222 220 221 225 226 217 217 216 190 215 215 213 215 222 225 219 222 225 226 225 193 190 227 206 237 238 244 250 260

GFSCGP_2pvu_pres_066.txt.gz
Presure
230 196 246 243 281 187 300 315 287 267 263 264 242 234 236 210 185 189 204 192 192 198 198 203 203 193 204 195 194 227 196 227 209 257 245 210 204 184 197 188 199 189 188 184
211 224 234 256 257 291 281 325 239 258 263 250 236 232 236 218 194 197 203 185 194 202 205 195 201 204 207 195 184 218 209 222 302 252 220 239 206 191 189 189 193 181 178 184
209 227 285 270 228 277 276 291 229 230 247 228 229 237 216 196 201 205 198 192 184 203 200 195 193 208 199 203 189 236 217 182 237 249 217 206 222 219 202 198 201 195 185 188
243 287 271 257 256 269 251 243 235 221 249 219 239 229 197 202 182 178 193 185 187 189 191 183 191 206 196 206 195 213 213 191 205 264 206 218 202 229 243 215 198 198 193 191
238 277 270 261 249 265 262 247 264 221 233 215 227 206 210 199 197 190 191 186 186 183 188 190 182 191 197 195 202 180 211 230 187 205 269 204 205 207 240 229 240 193 189 191
271 266 249 279 247 248 242 248 239 207 214 212 217 204 210 197 187 196 191 185 182 182 189 187 186 188 191 195 201 187 193 209 198 207 196 207 185 202 200 207 238 235 238 237
264 264 235 275 243 247 242 243 241 226 214 199 208 209 204 187 193 193 188 187 184 182 189 181 184 186 183 190 190 193 178 187 209 200 194 208 232 246 188 201 210 206 206 198
250 261 231 255 244 240 234 247 242 213 198 217 210 207 203 198 190 195 187 185 184 183 181 184 182 178 180 182 188 191 180 188 184 200 206 186 208 221 204 237 191 203 196 201
254 248 219 270 245 230 231 240 216 232 201 212 215 202 197 202 195 191 183 179 187 182 178 178 178 190 189 181 185 182 189 189 177 186 192 198 186 202 199 238 209 206 207 193
258 235 261 243 243 226 227 229 229 216 210 218 219 202 199 196 190 189 187 185 182 181 178 178 173 172 180 183 180 178 177 180 181 191 184 186 192 197 206 204 195 232 192 228
253 234 264 245 247 225 221 230 223 217 209 213 201 206 204 201 190 193 194 188 179 179 178 178 181 180 173 171 181 164 175 183 181 191 193 183 203 187 186 194 194 207 183 196
253 233 261 238 237 229 225 218 223 221 216 206 193 204 197 191 199 186 179 191 180 181 176 176 179 178 172 181 162 187 185 171 189 185 188 179 193 185 213 181 193 196 204 215
253 220 245 241 239 238 229 222 218 218 214 214 200 199 204 197 192 198 170 189 185 175 177 177 177 171 169 182 179 159 166 179 182 167 183 169 190 194 175 207 208 186 189 190
246 233 240 243 230 244 230 220 223 211 213 225 200 188 202 209 194 195 192 183 185 189 179 168 170 171 175 181 178 155 186 174 172 174 184 180 160 174 191 193 207 204 186 185
246 256 234 258 229 231 222 227 231 221 210 212 213 202 199 189 196 198 190 190 184 179 187 178 179 181 181 178 177 179 172 174 180 181 182 170 147 192 173 181 190 203 195 195
259 261 227 283 248 229 225 225 219 226 219 212 217 204 203 193 190 190 199 197 198 189 179 190 183 182 180 179 181 183 167 180 182 182 179 181 144 188 184 189 187 203 190 192
262 278 238 307 249 233 223 218 222 213 218 222 214 209 205 198 205 198 190 201 197 196 192 182 192 193 191 188 178 185 182 182 179 183 177 181 191 190 184 192 192 207 200 197
271 268 237 297 243 245 225 229 222 224 216 209 220 220 207 207 173 194 205 196 191 191 191 191 193 188 188 188 186 183 183 183 183 179 188 192 193 194 194 192 196 206 201 192
268 289 240 277 243 233 240 230 223 220 219 213 210 212 220 220 207 212 202 202 202 183 196 192 188 186 196 196 194 193 190 186 184 189 191 194 199 192 199 189 193 198 192 191
277 254 254 287 241 230 235 229 240 218 215 208 218 223 220 211 214 217 207 198 197 201 205 207 190 187 185 184 191 192 203 203 204 200 200 196 194 191 196 189 204 200 199 200
284 281 285 286 244 228 235 233 232 229 218 221 213 224 210 216 210 220 220 221 222 219 199 194 197 196 199 196 199 199 198 196 201 204 207 203 197 194 194 196 197 204 199 193
282 282 288 275 250 233 233 233 238 230 221 222 219 226 218 212 214 216 212 223 223 219 221 222 221 209 204 204 200 201 203 211 212 210 199 200 200 194 207 219 204 201 195 196
269 278 287 252 295 238 234 231 233 241 223 217 222 226 213 218 212 220 215 213 212 217 222 224 226 225 223 223 220 206 207 217 212 208 210 224 216 223 218 212 209 203 203 205
273 278 275 289 262 275 240 228 229 232 235 225 229 220 212 214 209 210 209 209 220 210 214 221 221 223 222 221 223 225 226 228 227 226 222 214 219 214 206 206 211 213 210 210
275 282 286 283 292 298 272 237 224 228 227 227 228 233 221 217 217 215 215 215 225 222 211 213 212 213 216 213 214 217 221 227 217 209 219 218 216 215 212 205 210 213 214 210
294 264 270 280 287 286 291 269 238 231 227 150 228 231 235 231 224 221 221 222 214 214 214 215 213 211 215 221 223 216 220 218 216 217 217 217 217 214 216 213 208 206 169 216

GFSCGP_2pvu_pres_069.txt.gz
Presure
193 208 210 212 226 219 233 234 242 295 309 313 337 300 242 263 235 247 239 234 200 205 205 194 211 199 199 206 206 200 197 219 215 189 217 250 240 214 189 212 184 191 195 185
195 207 203 203 208 229 186 235 281 213 297 333 319 246 258 242 231 239 236 215 206 203 200 200 198 204 205 203 209 202 194 229 211 183 253 230 242 212 191 208 214 201 191 183
207 209 211 214 183 216 219 233 272 272 307 323 273 248 245 240 237 236 219 197 197 201 194 197 200 198 192 208 200 201 190 234 208 222 244 257 242 213 200 191 204 218 202 198
217 199 202 213 222 227 184 254 281 276 296 270 248 245 247 225 231 216 201 183 204 195 183 200 206 192 194 200 212 204 196 211 237 210 239 244 218 213 206 193 188 195 201 190
214 217 224 216 184 248 252 273 261 268 277 230 235 244 225 221 215 203 199 200 193 196 187 198 196 186 189 197 199 203 193 202 213 182 213 223 230 206 194 225 197 188 180 176
216 222 218 237 234 229 273 276 254 265 264 234 235 213 220 214 205 205 201 200 176 192 186 187 188 188 187 190 196 197 193 190 202 214 212 215 220 207 204 193 218 242 228 193
234 233 231 220 243 207 268 258 254 265 273 205 213 206 212 212 210 201 200 199 188 172 194 188 187 189 183 186 189 191 198 191 190 204 203 197 202 193 238 203 197 210 228 229
237 232 245 247 157 264 252 251 249 263 263 201 200 206 211 216 208 199 204 191 196 190 191 192 188 187 179 185 182 186 191 200 180 186 198 198 199 195 214 225 194 194 198 209
235 255 277 303 269 259 238 259 245 263 201 246 196 202 196 220 207 198 203 191 185 191 190 187 182 182 182 181 174 178 184 193 189 195 195 205 206 213 190 197 197 190 193 186
258 274 301 279 254 247 241 236 250 248 255 231 202 202 202 224 206 192 187 193 189 190 187 181 185 180 182 177 185 190 190 184 190 189 192 194 184 193 200 206 216 211 206 199
254 279 276 261 256 248 242 236 241 237 254 218 203 205 200 209 211 199 191 193 188 182 187 183 187 182 182 175 174 182 190 187 173 182 176 192 192 193 189 199 205 191 209 214
278 266 265 256 248 240 239 234 235 236 252 209 203 208 199 210 214 204 197 188 179 186 183 182 184 185 182 178 170 176 179 182 172 192 188 175 195 194 183 183 184 206 211 211
269 244 261 253 247 233 254 238 227 228 228 218 207 208 200 206 222 206 199 198 184 182 182 180 180 181 181 178 179 170 180 178 191 182 182 181 181 182 169 181 193 197 194 200
260 245 252 256 255 234 243 246 226 226 239 213 206 213 202 198 204 194 198 193 189 173 189 181 182 182 184 182 183 182 174 182 172 172 183 181 180 178 182 181 193 197 200 188
265 255 252 260 260 229 243 234 227 223 235 220 210 206 208 197 201 212 193 190 194 187 165 179 190 180 182 182 182 183 171 182 183 169 171 186 179 180 182 186 181 160 185 187
289 267 250 254 250 232 256 240 234 226 223 224 213 205 198 206 207 208 202 207 181 185 182 189 180 189 180 179 182 185 184 186 183 180 163 169 174 179 184 175 185 170 189 192
302 271 255 251 256 233 246 249 239 222 219 216 229 209 201 200 213 207 208 199 200 190 188 181 187 181 188 183 181 180 178 182 182 185 178 177 184 189 182 181 182 184 192 192
290 284 266 254 257 233 222 266 242 234 226 217 216 222 214 195 198 201 214 211 199 208 195 183 180 187 184 181 186 189 184 185 181 150 189 192 185 183 183 181 180 185 188 195
287 283 284 265 242 247 231 263 262 241 230 223 215 218 210 209 214 207 206 197 214 221 222 207 196 192 185 187 180 174 177 184 188 186 186 182 179 187 187 180 186 187 201 195
277 290 280 271 259 243 261 261 258 232 236 222 227 220 211 210 208 204 201 201 198 203 207 217 239 220 217 187 192 193 191 187 189 189 183 190 188 183 185 192 198 199 196 195
271 287 288 276 272 233 261 233 264 256 233 224 225 224 233 219 211 208 210 208 206 208 200 174 196 203 219 218 204 195 183 182 191 188 177 183 191 189 192 192 193 192 208 205
261 272 277 281 282 248 271 252 271 252 248 224 215 224 219 227 224 217 216 214 211 210 209 208 215 219 209 202 205 211 208 204 203 204 200 196 204 200 194 194 197 209 203 200
257 262 281 283 270 281 290 263 304 253 249 244 222 219 213 212 211 218 219 222 223 221 221 222 223 223 224 223 223 223 221 223 222 217 205 200 209 210 212 213 210 211 207 206
267 263 276 284 276 280 280 255 293 255 248 240 244 221 222 218 219 226 221 215 218 211 212 222 214 210 216 221 216 223 226 229 228 226 225 223 217 215 218 216 220 221 218 222
285 268 266 279 278 286 244 283 287 258 245 246 231 244 233 231 220 226 224 216 213 209 212 216 211 213 217 214 220 222 215 213 218 224 225 224 225 222 218 213 212 222 221 222
295 285 269 258 265 276 274 283 250 289 243 238 238 234 231 231 236 236 224 221 222 220 222 227 224 223 222 217 211 209 214 214 231 217 212 213 212 214 222 215 231 234 236 225

GFSCGP_2pvu_pres_072.txt.gz
Presure
207 201 207 205 216 203 197 220 215 198 90 200 234 246 339 315 346 326 286 228 250 240 246 235 223 204 206 202 204 201 202 210 202 219 219 261 282 229 213 223 200 233 222 213
213 213 212 222 221 200 209 217 203 214 224 230 227 280 309 316 326 221 260 233 238 245 233 220 208 194 187 201 211 204 203 201 201 226 217 230 258 228 221 216 206 228 231 204
213 216 217 220 215 214 200 214 214 203 210 171 226 302 321 154 235 246 249 239 242 232 220 207 207 203 207 206 204 204 202 201 209 224 209 245 252 213 230 211 205 208 227 194
217 225 217 210 213 218 224 197 229 231 233 235 289 284 308 289 244 246 237 226 226 229 212 194 211 209 192 206 202 208 199 198 203 226 202 238 241 239 257 221 199 203 199 219
215 220 212 213 223 210 220 229 223 233 230 237 304 267 289 260 229 234 226 224 220 214 206 200 182 193 207 201 206 196 199 201 195 218 207 233 242 229 246 217 204 202 194 190
221 219 211 224 223 219 219 219 217 235 237 276 283 266 280 250 220 223 223 219 211 210 195 195 189 206 201 188 188 195 191 201 190 196 211 213 232 236 214 225 198 202 193 201
225 219 223 227 223 220 213 223 232 247 247 286 263 233 260 225 226 221 222 212 208 211 202 180 191 211 186 178 189 198 189 198 190 199 205 196 215 223 208 210 212 192 211 207
222 221 227 231 236 240 238 234 234 253 288 273 261 265 266 242 217 216 221 200 204 198 194 197 201 161 171 191 186 188 190 190 200 189 188 197 200 191 233 200 205 202 195 199
236 238 238 240 235 243 240 242 247 158 272 253 257 233 253 207 221 218 218 199 199 192 202 187 203 188 196 190 188 183 183 191 190 193 182 183 210 198 201 211 205 197 198 190
239 242 237 241 246 250 246 244 187 236 282 251 252 215 230 207 216 211 211 198 193 206 202 189 190 189 186 190 182 186 181 184 183 193 190 186 173 192 199 202 199 201 202 211
243 239 247 238 239 243 248 291 284 256 266 249 248 211 247 202 203 206 204 205 182 199 202 194 190 184 188 184 182 179 181 182 191 190 190 179 197 196 187 189 196 198 211 204
245 245 246 246 259 257 237 278 255 259 252 258 243 241 210 208 208 209 204 204 195 191 199 199 188 190 190 189 183 182 175 181 183 174 192 188 184 189 180 200 184 192 192 166
266 260 255 254 261 284 277 261 246 257 242 256 229 217 204 209 232 199 194 195 194 194 204 195 192 187 185 186 183 181 183 177 179 191 187 183 197 186 191 191 186 168 187 196
266 266 258 252 281 283 260 252 247 247 236 249 250 205 202 205 221 190 204 197 196 190 198 194 189 190 184 182 185 183 181 185 183 178 191 182 184 181 180 181 187 191 180 189
308 304 287 289 284 272 256 251 244 242 239 251 247 210 206 200 211 191 194 207 200 199 191 195 192 191 188 184 184 186 184 184 184 179 178 173 187 181 184 182 183 182 184 180
283 303 299 282 298 266 249 247 239 234 233 249 244 230 210 203 206 204 191 200 199 200 197 186 200 190 177 170 193 190 183 186 186 188 189 183 188 175 170 178 189 180 179 193
276 275 310 277 286 256 249 245 234 243 233 241 238 226 222 209 202 214 197 200 195 199 196 196 177 191 186 186 170 192 193 184 185 183 182 178 186 191 190 172 169 175 178 191
279 268 294 295 277 253 252 251 247 255 228 239 238 221 214 212 211 206 209 195 192 190 201 193 184 189 191 182 198 189 183 192 187 184 185 183 186 181 182 184 182 184 190 190
308 284 271 304 278 254 254 240 249 251 225 239 240 222 214 207 213 210 213 214 196 196 195 202 192 186 185 189 185 193 191 193 186 192 193 192 189 188 191 185 180 188 190 183
298 307 274 282 295 261 265 251 252 247 239 244 232 235 218 208 205 208 209 207 119 196 199 199 194 200 200 185 184 186 182 186 183 190 188 181 182 182 180 188 193 186 180 175
296 308 272 268 292 272 269 250 239 238 254 231 235 225 227 216 209 204 201 216 214 207 213 205 202 206 194 197 199 200 195 182 186 187 185 189 187 192 194 192 189 182 186 195
292 304 262 276 286 265 269 260 247 244 231 265 233 231 226 223 211 209 207 202 203 211 206 214 212 213 202 200 199 199 202 169 165 184 193 197 191 185 180 177 182 194 191 187
296 290 264 269 282 275 277 262 254 238 233 222 259 231 223 221 219 216 216 210 210 207 207 217 208 218 218 225 230 205 195 210 209 203 204 208 201 198 196 198 201 197 195 201
294 287 265 264 280 281 278 277 266 240 232 238 238 253 231 226 218 219 217 219 220 221 217 213 209 207 205 212 225 225 214 218 220 217 222 201 207 211 240 211 200 229 230 226
288 285 274 262 275 282 284 283 274 269 254 247 259 276 231 230 229 224 218 220 219 215 214 218 216 215 220 215 213 216 211 212 219 222 226 212 195 221 229 221 232 229 225 226
285 283 282 261 261 271 280 283 283 282 267 258 284 259 271 229 231 227 227 231 226 232 223 223 224 222 223 222 220 223 224 222 223 225 223 225 225 216 220 222 213 215 218 224

GFSCGP_2pvu_pres_075.txt.gz
Presure
241 228 215 228 220 213 211 207 199 195 194 195 228 184 198 204 217 228 256 349 353 337 311 286 246 228 233 233 215 206 201 202 202 202 206 231 219 312 214 240 239 238 246 237
240 229 219 225 230 224 214 212 203 204 210 224 221 177 219 126 173 245 278 345 331 318 293 264 241 241 234 221 209 195 207 198 197 214 203 202 222 278 241 224 230 228 225 237
239 232 228 229 226 223 215 215 212 205 214 225 226 187 205 189 233 248 333 342 321 269 245 249 237 235 224 205 208 205 198 209 208 202 225 220 215 278 215 215 222 237 224 212
232 235 231 229 219 215 215 214 216 217 193 228 228 226 211 208 235 280 321 322 259 260 252 240 233 221 206 209 202 190 210 199 202 204 202 212 232 260 225 214 221 225 229 225
233 231 228 224 207 217 217 220 207 231 214 197 213 207 201 227 233 295 312 289 261 234 245 233 222 203 209 194 207 192 194 203 203 195 203 214 234 250 237 211 205 207 215 207
235 229 224 223 217 215 211 211 221 219 234 227 213 218 228 231 286 298 305 238 243 249 240 220 206 202 182 200 204 203 204 201 194 198 193 206 225 236 239 232 214 205 208 219
241 230 228 221 217 216 207 214 224 228 226 197 214 217 241 228 283 291 297 231 239 231 224 206 196 203 193 201 189 190 193 187 199 200 199 209 201 226 215 213 215 193 195 193
241 232 228 228 232 229 222 227 225 235 201 226 224 232 240 277 280 281 243 222 234 219 219 204 206 191 202 207 180 203 182 183 192 179 190 193 207 204 210 207 204 214 193 192
247 234 231 232 230 227 223 224 228 227 232 231 232 235 251 256 281 285 219 211 229 220 202 187 205 182 201 199 163 206 181 173 192 199 190 197 185 202 197 224 209 198 202 207
252 248 238 232 229 227 230 229 228 232 232 248 251 209 287 243 242 232 218 217 225 219 203 199 193 190 201 189 197 174 198 193 189 194 194 188 180 193 192 199 202 209 197 197
270 253 249 243 237 232 226 234 245 250 251 261 254 271 273 236 219 225 224 219 219 212 203 200 198 183 184 201 192 178 189 189 187 190 190 187 188 180 183 191 192 200 198 197
278 266 250 248 247 243 241 242 245 245 237 245 281 194 157 241 216 253 227 226 201 212 199 199 189 194 192 188 187 189 190 191 189 185 182 183 191 193 194 180 186 183 184 194
284 270 264 249 249 247 243 244 255 256 252 267 278 251 255 237 265 242 223 209 200 218 197 196 193 184 192 185 189 186 190 191 184 182 172 185 183 188 182 189 180 196 180 174
317 283 269 264 254 245 245 248 247 258 260 289 265 238 248 233 249 227 221 209 205 211 199 186 192 191 190 186 185 177 192 185 189 181 191 188 182 188 177 183 183 191 179 189
288 302 300 283 266 261 253 247 254 254 276 258 268 238 251 232 245 218 211 209 200 217 202 193 181 197 188 185 186 189 183 183 190 186 187 180 180 196 181 194 183 181 183 194
269 271 287 321 291 285 265 268 270 251 270 247 256 240 246 230 232 220 214 199 204 206 206 206 188 189 188 190 186 182 191 182 184 186 188 182 183 182 194 179 180 179 181 181
276 273 281 298 299 288 282 262 260 268 259 245 249 235 236 219 228 217 220 210 208 201 205 197 194 180 190 191 190 189 182 175 179 185 185 184 187 184 182 183 172 168 183 175
304 296 279 279 296 315 294 287 289 259 251 239 251 237 233 221 229 218 216 210 209 203 204 200 197 199 192 192 192 193 190 188 174 175 185 189 188 182 185 185 186 185 185 180
298 320 285 268 286 300 291 282 279 255 245 233 257 234 233 227 226 214 227 215 222 202 198 206 210 197 197 184 192 188 175 178 190 191 172 172 177 193 193 188 182 185 187 191
304 305 305 261 275 288 292 284 269 249 244 232 250 233 230 233 216 218 210 207 214 198 200 193 192 197 196 193 179 182 185 193 196 194 191 165 194 189 168 189 190 193 194 191
321 308 297 256 269 277 282 284 264 250 246 236 244 235 233 232 227 219 217 209 214 216 197 192 197 200 201 195 203 198 179 182 183 184 185 191 191 190 182 196 183 192 186 185
319 325 286 295 264 272 299 280 257 245 245 241 240 229 237 231 222 226 222 208 217 212 214 211 199 193 198 192 194 197 203 202 193 197 190 194 195 193 193 193 174 184 185 191
288 304 311 297 272 272 284 281 253 245 251 247 236 244 241 231 231 221 216 224 222 210 210 205 204 209 200 195 192 199 193 195 199 204 203 195 200 199 193 199 194 197 201 192
287 302 300 285 295 270 264 303 253 250 247 246 245 234 238 233 228 224 218 214 217 227 233 217 211 214 214 212 206 207 200 193 193 193 194 199 200 196 202 193 199 193 209 205
294 294 294 287 296 275 266 293 282 249 247 248 250 242 253 232 239 229 220 216 215 212 218 217 229 233 212 205 205 205 208 206 207 204 210 205 208 205 212 203 225 206 200 196
291 290 288 284 300 264 274 277 283 269 266 253 247 249 238 254 229 245 228 223 219 218 218 211 213 213 217 227 228 224 218 215 216 223 218 224 224 221 231 204 230 225 231 230

GFSCGP_2pvu_pres_078.txt.gz
Presure
271 275 273 267 269 267 230 233 217 224 221 212 210 204 203 189 198 209 199 213 213 231 224 261 353 367 355 259 237 229 242 233 216 210 209 206 216 210 225 229 327 238 222 207
268 258 255 253 249 253 258 221 220 204 205 207 206 208 214 206 205 198 204 227 239 210 251 277 361 353 293 245 228 223 238 215 211 211 206 205 203 211 223 242 265 232 212 252
265 254 246 247 242 242 233 236 225 217 207 211 208 212 210 199 201 208 209 227 229 230 249 342 344 333 251 227 224 241 216 205 210 198 205 207 200 226 217 288 258 232 229 239
265 260 248 240 238 235 237 228 224 214 218 212 221 197 188 208 207 108 231 225 216 250 299 342 328 265 226 224 231 222 202 203 202 199 206 204 214 226 223 254 234 216 223 228
270 260 251 243 236 229 227 227 230 220 212 216 225 223 214 218 222 212 217 224 195 269 335 336 299 222 201 202 226 207 203 205 190 205 211 212 219 222 229 242 231 219 215 223
261 262 246 245 236 238 238 232 226 225 221 221 224 227 215 213 209 228 223 233 249 312 320 307 225 240 214 227 211 201 202 196 200 210 185 205 216 216 245 236 229 215 209 206
255 256 254 240 239 233 230 232 231 226 228 223 221 217 218 209 214 231 219 232 258 313 296 272 224 207 212 219 201 202 207 195 204 187 205 195 210 212 248 238 222 221 207 204
269 247 253 249 239 237 233 226 228 228 227 220 212 212 216 203 131 214 233 245 278 297 257 242 206 225 223 205 198 203 184 201 207 182 202 181 200 210 230 237 217 218 215 213
285 264 256 250 246 241 231 228 228 227 223 217 215 212 213 231 230 150 244 245 279 231 237 248 220 223 207 195 195 188 197 208 187 176 175 171 201 204 210 222 200 215 213 214
288 280 289 249 242 245 234 233 223 222 213 215 213 221 228 223 215 222 247 284 277 265 229 192 229 219 202 193 194 184 198 201 169 200 197 191 195 195 192 213 223 192 186 187
280 282 287 258 249 242 244 233 229 226 224 232 234 238 229 229 197 245 254 268 283 249 226 223 222 210 200 203 183 192 201 192 175 182 190 186 194 177 196 196 203 209 215 195
306 259 289 278 257 251 245 237 238 238 231 230 228 237 230 199 251 259 283 256 266 241 225 213 207 191 202 198 184 194 208 187 200 177 188 190 195 179 194 193 193 194 206 207
298 309 266 280 277 255 248 244 240 236 233 234 236 226 238 227 274 290 259 274 239 229 225 213 206 202 204 197 191 186 200 188 194 200 187 188 189 194 191 184 186 186 192 191
296 297 316 275 275 272 257 250 248 244 236 241 247 246 263 250 277 272 156 246 238 206 229 213 192 202 195 198 183 181 199 184 189 197 184 191 175 189 182 179 189 188 183 184
283 294 307 282 276 271 267 258 251 250 249 246 251 259 263 257 264 255 245 234 233 210 226 216 186 202 198 192 190 192 185 199 180 182 187 187 190 177 170 184 185 187 179 173
272 275 285 304 273 276 272 265 256 252 251 251 253 262 252 265 253 243 240 216 234 214 228 215 191 201 196 191 182 194 187 194 191 181 175 189 187 189 183 184 184 181 182 190
292 271 273 280 301 294 284 274 263 257 251 245 249 249 285 255 242 244 247 236 224 227 227 219 200 198 186 193 181 187 183 193 181 192 180 174 189 188 186 189 181 182 188 189
292 292 277 270 284 307 310 283 279 259 256 254 254 257 250 251 226 238 231 234 226 225 214 212 210 190 196 190 186 183 190 189 190 189 184 163 186 182 182 182 176 184 180 183
296 300 289 277 272 283 297 310 287 277 270 267 271 281 241 245 227 237 232 232 217 218 214 197 209 208 202 190 191 178 182 190 187 187 184 184 179 177 167 177 188 181 185 183
299 303 313 289 271 267 271 309 290 277 278 278 259 253 243 242 227 239 230 227 222 223 215 200 217 217 200 202 193 192 190 176 180 187 183 186 162 184 189 187 172 174 183 183
305 305 308 314 309 268 264 291 294 280 275 274 280 243 245 230 224 236 230 224 232 217 217 213 204 204 209 204 196 200 191 192 187 181 186 184 189 189 195 189 176 184 158 168
315 311 322 296 307 292 259 275 289 292 277 278 270 239 244 229 224 229 227 222 223 231 218 211 211 206 210 204 209 207 199 194 193 185 176 169 186 190 182 183 194 193 194 196
310 309 314 282 293 285 257 274 289 292 278 269 262 237 242 227 222 228 229 228 219 220 224 233 211 216 207 201 203 206 201 201 200 193 196 195 192 183 182 178 177 178 188 196
309 298 305 273 285 283 264 277 290 276 278 266 259 238 236 245 222 223 233 233 227 220 229 222 220 212 199 141 214 198 203 193 189 196 200 199 192 192 193 194 202 198 202 204
282 292 308 296 276 292 283 269 287 278 272 267 258 237 235 241 228 223 224 226 232 231 219 218 224 226 220 210 215 201 202 201 195 193 199 211 208 193 193 194 197 200 200 195
274 287 285 290 286 293 296 264 282 285 270 265 255 250 235 235 240 227 225 224 222 230 235 222 220 225 220 218 216 218 219 214 197 207 195 193 193 195 199 206 205 206 210 207

GFSCGP_2pvu_pres_081.txt.gz
Presure
323 305 305 293 301 301 292 298 274 284 273 247 261 228 209 209 192 201 199 200 199 189 191 197 208 218 223 250 224 269 361 279 255 242 234 226 222 227 219 220 224 219 217 225
308 309 303 294 283 279 281 278 261 268 277 281 242 230 210 212 205 199 200 208 210 206 206 149 206 224 233 242 257 364 357 243 235 229 232 219 218 206 216 222 216 222 218 217
306 300 288 284 273 264 275 267 253 257 249 270 227 225 208 208 201 202 204 200 198 200 207 193 226 225 253 252 385 384 276 244 242 217 223 212 205 207 214 186 217 215 262 247
319 306 280 277 279 263 255 262 254 246 244 240 244 211 219 206 208 212 203 205 203 209 210 205 220 242 238 361 383 284 254 236 232 226 200 208 200 210 201 218 241 233 306 242
318 301 279 282 283 263 245 252 245 242 243 245 222 220 208 214 215 204 206 207 215 218 217 214 238 222 316 365 301 256 239 222 225 206 212 203 211 190 212 221 239 283 252 238
320 302 284 270 271 262 255 246 241 237 234 232 238 223 219 210 217 206 209 205 211 211 230 242 228 267 365 302 259 239 228 221 200 211 204 202 193 205 221 225 263 249 225 212
318 301 285 270 261 261 259 244 237 233 230 227 233 229 220 212 216 206 198 210 217 217 234 223 230 292 351 272 239 213 195 206 208 196 205 195 194 219 216 231 254 235 222 210
317 296 296 271 257 259 250 248 242 235 226 223 218 221 223 215 213 218 218 219 225 232 223 232 273 354 283 255 225 226 211 199 196 204 201 196 197 197 215 216 249 228 224 210
291 309 299 279 259 262 247 244 239 238 234 232 227 224 225 219 213 210 218 219 214 205 232 236 273 334 263 233 192 197 211 205 200 198 200 193 201 208 204 224 253 225 221 215
299 294 297 290 267 253 256 246 235 232 229 228 225 223 229 226 226 225 223 203 209 158 223 255 304 287 218 219 229 217 203 194 202 198 191 200 210 179 207 172 210 203 206 207
313 317 277 301 284 255 258 248 240 236 230 227 222 219 223 221 220 215 213 217 218 174 200 260 303 260 235 223 200 208 203 194 201 190 182 204 183 196 203 208 215 196 205 200
307 310 337 288 293 280 249 256 246 240 233 225 223 224 224 225 220 213 222 228 236 222 254 290 289 257 207 221 220 201 201 182 199 183 186 201 172 182 201 195 203 181 197 202
287 303 304 304 290 291 269 249 254 243 238 233 227 221 223 219 214 220 232 232 241 230 270 281 285 249 224 223 216 202 195 195 196 192 199 196 198 175 184 181 204 198 215 204
278 278 304 304 293 290 279 266 247 251 241 239 234 231 228 234 233 222 232 221 232 284 279 271 252 213 225 219 214 200 196 193 180 192 195 185 194 188 181 182 191 197 194 192
344 269 278 304 295 286 290 277 257 249 253 242 237 236 236 235 234 235 221 258 300 281 260 261 232 225 222 215 206 196 194 190 194 174 195 187 191 194 174 188 182 192 178 187
395 324 273 283 302 307 251 289 269 252 246 243 247 240 238 239 234 238 209 266 277 255 262 251 260 225 220 214 199 196 195 190 197 181 192 197 183 190 192 179 190 185 189 169
401 350 310 270 287 298 303 263 278 265 248 243 242 247 248 245 243 216 242 278 254 246 251 235 247 213 217 207 203 200 197 193 183 190 184 202 186 177 188 183 188 183 191 184
392 333 323 285 270 290 285 289 269 267 262 255 250 245 244 247 226 237 247 276 244 248 229 224 231 215 214 195 209 192 198 192 192 182 181 180 198 193 182 182 181 176 191 180
345 315 289 283 289 273 285 301 285 279 259 254 253 253 252 248 253 227 266 264 242 237 219 230 236 218 212 194 207 174 198 192 194 188 173 183 193 197 180 182 172 170 165 175
292 299 294 287 298 273 272 283 315 279 274 259 250 248 253 248 242 234 258 254 234 230 225 223 214 202 215 212 204 199 184 198 188 194 187 179 181 185 197 183 192 181 175 149
300 293 294 286 293 290 268 273 288 310 277 266 252 245 252 254 237 257 252 246 232 227 229 212 210 213 203 210 208 198 190 193 194 188 192 192 181 194 192 189 186 185 181 182
296 293 294 299 303 330 272 267 268 294 313 276 275 255 250 257 246 253 239 241 234 231 215 233 203 213 224 220 213 204 202 191 196 197 194 191 192 191 172 180 188 188 186 183
290 286 290 298 325 303 295 263 260 265 281 308 278 276 266 252 274 247 235 237 226 224 216 211 218 219 206 212 219 214 200 201 201 197 194 189 195 191 195 196 188 173 185 199
298 295 289 295 301 309 298 275 259 259 267 303 293 275 270 271 270 244 235 239 224 228 218 222 220 214 214 218 211 214 226 209 203 199 193 200 197 187 183 187 191 201 194 194
309 305 305 305 310 335 282 295 286 265 265 291 288 269 275 260 265 239 236 234 238 225 231 224 229 224 216 215 215 218 215 212 215 217 209 197 203 203 203 198 190 190 185 189
316 321 318 315 302 302 274 282 307 276 257 281 297 277 272 260 257 240 236 227 233 238 233 227 228 219 224 222 219 214 213 217 215 210 210 213 208 205 208 210 207 201 201 202

GFSCGP_2pvu_pres_084.txt.gz
Presure
224 245 246 236 239 315 316 322 320 308 307 304 312 295 296 297 281 266 237 217 221 209 198 193 193 195 201 205 202 206 200 210 226 231 267 370 263 239 228 230 218 236 229 231
160 191 191 298 255 247 325 316 315 299 291 294 298 287 298 298 270 238 221 212 219 210 199 200 192 207 201 206 221 214 216 202 233 246 379 267 251 239 228 218 224 230 226 226
243 212 211 215 236 318 318 310 302 292 281 290 271 266 278 260 244 244 247 169 214 201 124 192 194 197 221 213 209 219 207 221 244 334 337 248 232 225 226 221 226 221 224 220
241 264 244 277 320 320 319 298 295 279 273 284 268 271 262 274 261 244 221 226 206 206 185 206 203 204 204 214 221 215 215 247 345 350 255 246 215 226 227 220 221 219 222 230
295 249 256 290 325 337 307 293 285 270 266 277 252 262 247 255 247 217 216 117 205 198 202 203 208 208 215 220 228 230 242 266 347 261 248 236 223 208 222 218 207 214 211 216
242 254 287 311 329 333 295 286 279 269 258 270 249 249 232 237 225 225 208 211 209 211 205 204 201 211 217 224 221 236 241 339 271 247 213 205 206 201 220 212 215 210 206 245
275 290 303 313 322 324 292 278 274 276 253 249 246 241 239 243 244 217 215 214 162 208 201 176 214 213 225 219 239 230 342 301 243 219 231 225 219 215 214 208 203 210 241 262
291 304 295 325 321 321 294 280 264 269 253 240 242 241 237 229 224 227 211 205 206 202 197 209 206 215 227 228 238 259 325 249 235 236 220 191 215 212 210 200 208 198 258 247
302 306 304 331 340 312 298 272 261 259 254 243 232 233 234 229 228 229 214 208 206 201 208 210 223 224 236 232 233 335 259 236 231 195 220 203 208 203 209 199 199 232 242 240
301 302 329 344 341 317 303 271 259 251 252 244 231 228 229 217 224 225 228 213 212 212 210 215 176 238 229 227 341 311 242 206 229 221 192 215 208 206 201 187 205 173 231 223
311 324 333 325 363 322 291 269 259 253 249 246 236 227 222 220 214 221 222 220 217 219 216 220 223 136 212 210 314 223 233 213 192 196 215 213 204 204 191 207 192 216 201 168
334 312 306 306 334 324 301 288 261 257 240 241 237 229 223 224 226 229 223 221 217 221 226 225 215 223 212 247 213 204 215 216 222 183 210 207 203 201 186 210 165 167 216 214
308 321 297 294 307 327 308 292 264 261 244 238 238 233 233 233 235 227 228 222 222 221 221 208 181 244 213 262 239 216 217 220 197 208 204 201 202 190 190 206 191 200 181 210
409 466 380 318 282 324 336 291 271 260 253 240 240 231 231 229 226 222 228 221 219 220 223 205 213 238 254 283 235 215 228 210 208 208 202 200 200 193 180 201 177 191 184 199
470 439 434 348 282 296 306 274 292 257 256 249 241 237 233 230 226 224 217 218 221 212 212 228 224 236 263 286 250 220 219 218 206 205 203 194 201 198 181 198 193 183 190 190
430 443 445 398 306 286 317 303 284 269 248 254 248 248 241 228 226 228 222 219 218 231 235 218 246 277 272 277 253 235 220 211 212 202 204 192 199 192 187 193 187 197 185 184
410 383 399 478 314 283 302 289 304 286 255 255 263 251 242 238 235 233 228 227 229 234 228 240 295 290 262 270 247 226 227 210 211 194 204 178 188 171 188 192 183 186 198 181
410 389 404 410 318 295 271 298 287 300 280 272 257 256 247 240 234 228 227 232 235 240 197 277 239 248 252 256 223 216 225 208 208 203 201 200 191 186 171 186 200 179 181 200
410 380 378 354 330 286 265 285 282 284 289 284 267 256 259 245 239 235 231 227 225 226 262 264 247 246 243 237 235 212 222 209 207 199 198 200 193 189 196 183 188 201 185 183
395 376 330 329 315 285 273 266 287 277 280 264 273 262 251 246 245 246 242 240 216 259 244 249 250 239 227 240 222 214 220 203 211 204 198 197 192 192 185 180 186 184 196 199
330 307 304 297 279 255 276 287 266 287 288 270 287 265 251 246 237 235 236 235 227 229 271 242 246 235 232 230 220 214 219 213 205 202 199 193 198 190 192 191 181 182 186 191
303 293 292 285 282 265 287 316 294 268 288 294 285 266 259 255 253 252 250 248 249 236 267 230 238 230 230 225 232 219 212 207 197 210 206 188 215 195 187 192 196 186 191 178
296 290 284 281 273 272 275 279 286 302 275 288 319 273 254 254 251 243 251 239 251 230 263 227 237 226 223 223 216 239 203 208 211 204 204 201 205 185 215 192 188 189 213 194
287 290 286 283 278 277 282 297 289 318 270 271 303 288 259 252 247 247 247 246 224 261 255 233 234 230 239 214 216 231 193 211 209 211 206 198 200 203 195 193 201 192 190 191
298 287 290 288 285 294 290 294 290 306 278 261 269 301 277 258 252 247 249 249 231 249 257 229 233 223 227 221 217 205 215 218 194 192 204 214 213 198 209 203 200 187 198 193
293 291 283 292 299 289 297 310 303 285 305 271 263 275 306 281 253 250 249 240 243 262 240 244 233 231 225 236 215 206 209 212 216 219 219 209 206 208 207 200 199 194 195 203

GFSCGP_2pvu_pres_087.txt.gz
Presure
228 228 202 224 159 222 173 223 224 330 231 271 263 346 334 325 314 301 298 292 279 280 281 276 267 234 221 213 195 201 192 202 203 212 78 78 210 215 233 251 299 265 253 245
222 214 213 156 220 226 227 238 251 272 259 308 343 336 324 311 297 309 287 291 291 259 255 265 229 229 222 206 201 192 203 206 207 207 204 202 211 224 242 301 274 251 249 239
215 207 211 215 216 227 232 243 269 320 321 345 332 324 307 291 294 279 276 273 282 284 277 253 241 225 213 202 200 191 193 220 210 203 223 214 218 237 256 290 246 242 241 228
227 220 216 228 225 232 240 268 312 303 371 338 317 319 280 281 271 261 276 286 279 264 263 235 229 224 214 205 178 202 205 209 215 219 215 228 238 269 301 265 248 239 212 231
232 217 228 220 238 246 261 284 294 348 355 330 294 311 260 263 266 272 253 256 260 241 232 232 228 223 204 204 202 208 207 214 221 214 222 231 260 313 270 237 239 220 229 225
232 227 230 235 233 245 270 308 323 337 330 314 294 283 273 258 259 250 269 242 243 249 230 215 205 206 211 194 201 204 213 201 214 218 227 262 325 279 255 236 232 224 227 221
231 229 224 242 251 281 313 316 324 349 315 296 284 269 269 245 242 241 261 244 227 223 211 227 218 207 208 199 199 210 209 220 210 235 261 304 284 256 241 235 211 226 219 210
241 244 227 260 255 262 316 306 333 358 303 286 284 260 253 244 236 236 236 236 227 219 212 215 208 203 203 216 224 208 226 213 236 250 332 289 260 238 233 213 222 223 211 214
235 246 262 253 285 303 304 325 346 344 297 279 273 258 226 240 249 227 236 227 222 216 212 214 212 209 211 216 165 191 217 258 221 221 303 251 239 212 216 196 218 205 210 215
252 233 285 299 305 302 323 344 353 330 293 272 265 253 227 216 213 242 235 244 220 209 216 212 210 203 206 222 192 190 193 202 212 220 228 240 215 227 208 199 214 213 205 176
271 278 293 295 297 312 329 328 338 323 290 270 261 248 241 229 224 239 229 231 226 213 210 210 206 205 213 202 207 193 182 202 190 192 226 211 224 192 226 196 212 206 201 193
286 294 316 295 321 322 131 308 331 315 280 269 260 247 240 231 230 233 227 222 229 221 213 210 207 212 215 196 191 184 186 184 189 252 223 210 219 186 211 208 208 202 201 203
298 306 334 349 187 298 302 303 322 310 280 270 257 246 241 241 230 231 233 223 218 223 221 217 208 211 216 231 194 133 194 186 193 213 212 215 201 190 202 205 204 194 211 197
315 203 322 352 392 384 357 291 308 300 280 263 256 245 245 242 234 228 226 222 222 220 220 220 217 221 223 227 213 209 198 217 203 218 199 208 206 188 214 203 201 191 205 196
318 340 386 503 487 406 359 301 303 319 286 266 262 248 242 242 240 234 228 222 216 214 219 217 218 225 235 203 217 240 229 223 204 194 193 212 205 189 214 203 199 200 181 194
351 428 444 473 445 414 365 329 289 321 289 271 267 252 244 241 243 240 232 226 222 223 220 219 223 216 211 202 221 224 216 253 243 210 199 208 204 190 201 204 200 179 195 204
434 446 425 421 425 411 357 305 278 302 312 276 258 263 245 241 240 242 242 233 231 225 224 225 226 225 207 234 213 233 251 276 252 212 208 215 203 207 204 203 198 202 183 199
399 443 401 394 419 447 313 316 278 296 297 282 251 253 255 246 243 242 236 232 226 225 220 214 216 217 230 216 241 225 278 274 235 225 210 217 211 196 203 203 193 195 191 174
383 425 387 384 427 438 313 299 276 289 291 301 260 255 271 254 243 242 239 231 223 218 219 219 225 224 235 216 246 296 266 268 231 224 218 218 213 197 211 201 197 191 194 190
484 387 385 379 386 364 308 318 282 308 274 289 290 263 263 264 251 247 244 238 228 222 224 227 230 235 214 235 285 252 255 257 240 200 227 226 215 196 212 193 203 193 191 179
372 352 339 347 328 287 286 295 280 273 281 280 288 285 262 262 254 254 244 243 239 233 233 230 201 242 220 263 248 238 252 243 237 211 223 208 222 208 205 199 194 202 190 193
314 307 310 300 295 271 264 283 283 262 277 275 288 290 299 283 261 251 256 245 237 235 233 235 234 223 251 252 238 244 237 237 228 227 219 205 215 212 194 194 199 179 198 191
292 294 288 286 283 278 267 263 282 277 263 261 273 286 279 291 300 264 256 253 241 234 233 234 239 251 254 242 245 229 233 236 221 223 218 206 213 215 202 215 195 191 191 191
284 287 284 283 279 284 273 270 293 276 298 272 256 276 287 300 297 260 256 257 256 252 248 245 236 250 247 238 248 231 225 242 220 233 216 207 207 214 213 213 182 216 193 205
299 293 282 288 278 279 277 270 273 303 310 317 261 274 291 282 280 259 254 253 250 243 226 232 235 249 251 235 236 234 226 224 229 223 218 208 224 223 201 196 207 198 201 191
298 287 292 283 287 288 279 280 289 281 276 274 279 303 258 286 284 289 257 255 250 253 251 252 233 248 239 241 243 228 236 226 225 226 223 225 209 212 213 217 190 207 206 212

GFSCGP_2pvu_pres_090.txt.gz
Presure
203 190 198 204 198 174 220 228 235 149 219 225 218 229 231 256 300 322 300 353 341 317 313 312 312 310 276 276 270 263 238 213 211 192 194 194 204 220 191 208 78 208 218 226
179 197 198 211 200 227 220 232 238 229 227 228 229 241 239 309 354 360 352 335 325 316 298 292 289 301 291 276 279 266 246 209 214 203 197 179 203 200 210 197 216 210 217 246
204 203 205 194 210 202 234 220 230 224 234 229 237 242 300 370 145 224 329 320 303 302 290 283 283 270 279 286 279 261 225 211 206 213 196 198 201 199 203 221 207 219 240 290
200 206 206 219 224 217 211 229 235 237 238 232 224 269 166 353 340 328 306 305 284 272 279 293 291 267 279 277 275 227 214 213 210 204 205 186 204 212 222 201 219 234 279 277
202 201 204 224 217 221 234 237 235 214 244 262 210 361 345 330 313 292 283 270 266 269 288 286 294 258 266 259 232 221 218 216 211 205 203 193 210 216 216 223 244 280 292 259
204 218 212 218 228 230 241 245 245 249 264 241 300 382 320 315 294 292 261 268 260 262 272 283 273 262 229 221 216 176 219 218 215 216 194 223 215 211 214 237 260 303 266 242
215 225 224 231 230 240 249 244 251 259 265 281 344 382 311 297 276 268 257 249 256 259 248 262 247 253 231 224 214 223 218 243 199 213 220 214 223 213 237 252 307 267 249 245
227 219 234 234 251 248 244 252 266 263 266 338 366 343 294 281 274 259 245 250 262 256 254 234 242 216 215 216 236 208 194 199 180 202 202 192 235 96 291 306 272 252 235 222
244 247 251 252 248 250 270 247 260 276 311 335 385 324 285 266 260 245 231 239 247 243 238 225 234 216 221 226 224 203 192 174 193 178 208 202 239 240 305 274 246 235 212 205
250 256 263 264 267 248 255 267 279 297 321 361 354 308 271 256 255 245 229 231 249 237 231 233 220 217 219 213 208 194 191 185 183 174 201 198 213 303 269 237 207 224 194 212
267 266 261 247 262 271 271 282 295 306 314 360 340 297 268 247 251 248 232 243 244 233 233 215 226 206 222 215 217 216 192 197 190 177 206 197 201 203 240 231 213 220 210 205
259 258 272 270 273 273 285 301 305 308 336 364 330 285 254 246 240 236 240 243 236 225 226 221 216 210 207 217 215 209 191 192 193 203 190 190 189 190 237 221 217 198 183 219
257 266 288 283 271 278 295 299 321 326 316 326 326 271 256 238 242 240 249 244 234 233 221 217 211 208 212 214 199 214 197 199 181 181 205 197 190 192 242 209 222 200 210 201
263 275 279 307 308 292 307 224 324 228 306 312 312 265 268 242 237 229 231 222 233 234 232 216 217 220 207 213 200 189 195 191 188 200 196 189 199 202 240 207 217 198 207 205
289 295 303 308 208 326 308 374 378 347 295 337 297 261 259 254 240 232 232 234 233 232 225 231 214 202 215 206 212 209 182 207 183 186 184 198 203 212 222 208 212 214 204 210
303 304 332 312 305 400 408 394 386 376 329 298 306 268 261 256 252 240 244 242 236 227 219 208 220 216 219 214 215 210 192 210 195 201 176 162 188 198 222 214 209 188 201 211
312 305 320 372 452 457 485 500 438 355 329 336 302 287 256 258 260 251 244 239 234 223 220 221 219 211 218 222 216 210 202 220 206 203 186 192 197 195 209 204 214 185 196 208
312 370 405 427 418 420 424 408 384 340 310 293 295 285 273 255 261 256 256 245 234 224 220 214 217 214 224 227 225 224 223 230 198 191 202 198 200 201 207 192 209 188 197 206
396 403 408 411 390 393 412 350 341 325 296 281 294 273 278 266 259 253 248 253 244 232 223 221 222 213 217 217 218 222 229 209 177 206 225 216 250 266 203 199 206 207 190 196
410 448 427 378 370 398 408 359 322 297 284 277 306 277 265 269 268 256 252 248 248 239 231 224 216 217 224 221 220 214 240 217 206 216 228 241 281 201 232 213 204 206 197 202
379 386 382 388 395 388 329 326 295 305 279 280 279 289 271 263 274 259 248 243 245 245 238 230 225 222 226 221 223 233 212 237 209 227 268 281 261 255 240 213 192 214 204 196
332 329 327 317 314 351 310 300 292 278 279 270 276 276 290 281 266 276 254 252 245 241 238 233 232 232 226 228 216 232 221 237 212 250 268 251 260 246 250 193 224 214 217 198
318 224 304 309 318 335 304 287 278 297 270 260 271 289 280 281 289 272 270 257 248 245 234 234 228 225 224 227 224 224 226 230 226 261 247 251 253 241 249 216 207 226 215 208
322 311 300 298 295 286 295 273 272 266 273 274 256 282 269 276 286 273 296 266 261 256 246 239 234 226 225 226 224 232 231 225 222 252 250 248 250 242 224 226 206 210 218 220
316 307 300 287 289 281 269 280 275 284 281 274 278 260 263 275 279 297 283 276 279 252 253 252 242 241 235 238 234 236 238 216 245 250 232 242 245 238 240 223 218 212 220 206
313 304 294 288 289 279 279 267 262 273 281 283 284 279 253 265 274 280 254 308 305 289 253 249 249 249 242 238 231 228 241 219 254 247 238 236 236 236 235 232 224 218 218 211

GFSCGP_2pvu_pres_093.txt.gz
Presure
202 198 206 189 207 186 195 201 172 201 192 199 204 206 194 215 238 240 241 244 237 244 258 362 363 335 338 344 340 340 350 197 74 259 66 248 223 208 217 206 201 196 207 207
154 204 212 193 199 203 201 204 202 196 199 195 201 210 163 237 240 242 248 232 260 213 359 382 355 340 339 318 313 321 337 324 314 278 247 253 202 213 211 213 184 174 193 165
190 187 196 159 218 213 201 211 207 205 198 209 200 222 228 236 226 262 253 274 318 385 347 335 333 315 321 309 308 326 308 299 291 264 272 263 202 201 180 184 212 172 186 201
207 211 206 223 192 200 189 193 200 207 204 208 219 238 240 229 253 253 286 363 373 334 321 308 296 308 293 294 290 309 276 263 267 263 259 245 219 209 194 183 205 184 194 213
206 195 198 192 193 202 206 220 204 202 214 210 233 248 235 175 266 283 306 376 324 300 302 297 299 300 286 287 288 286 270 265 269 258 247 222 222 223 202 207 180 183 202 217
210 207 199 197 203 197 207 211 207 216 216 228 244 242 257 266 277 277 369 334 294 280 271 276 286 283 281 291 263 280 273 261 256 255 228 219 216 197 208 202 186 201 223 217
224 194 192 205 210 207 205 224 207 236 237 247 251 263 264 273 277 378 336 295 277 268 260 271 274 275 289 250 272 275 273 259 247 221 213 227 216 203 224 193 203 201 218 233
202 201 199 223 213 216 240 258 253 244 250 255 257 265 283 275 416 340 301 280 263 261 272 267 274 276 297 256 264 240 242 233 220 180 186 184 191 184 202 187 193 210 227 255
197 224 235 231 228 254 246 251 248 251 258 270 269 265 273 322 398 311 286 265 263 258 270 260 263 278 270 246 238 226 214 242 192 186 187 191 180 195 204 205 209 228 291 291
240 221 233 155 255 261 261 260 253 251 260 272 257 309 311 335 320 287 275 261 251 273 261 248 252 279 241 236 217 213 193 186 201 196 183 185 176 169 187 194 364 265 283 247
243 251 263 257 252 246 246 254 261 256 250 269 307 293 309 372 292 277 271 254 252 260 247 249 230 232 224 229 223 210 181 199 200 193 195 157 191 182 202 201 214 273 245 226
253 254 253 246 241 260 259 257 262 264 269 283 286 329 317 391 280 263 261 254 246 257 247 236 245 226 222 220 197 210 189 198 184 192 193 188 178 180 194 192 206 262 233 225
267 275 271 260 253 252 251 251 260 269 281 226 324 320 342 337 273 267 257 254 249 235 246 241 232 215 224 221 229 206 194 191 186 195 197 192 200 182 211 196 198 207 247 219
255 255 253 253 259 254 255 263 274 299 326 317 321 353 323 306 261 258 251 257 261 233 242 234 232 225 221 212 206 218 197 193 190 187 189 191 200 211 195 196 212 210 213 193
258 255 258 267 265 267 289 273 304 329 334 351 318 321 340 281 256 246 242 255 261 241 235 235 225 224 219 211 215 208 203 203 196 197 197 207 214 204 224 209 195 207 205 205
260 253 260 267 296 312 329 325 329 322 319 305 300 306 335 283 259 245 250 251 244 237 232 230 222 218 216 213 202 217 210 212 200 209 202 215 170 169 163 210 191 195 214 219
259 265 280 315 324 333 315 380 488 480 409 415 409 298 304 283 254 252 252 241 247 253 225 236 221 221 216 213 207 214 220 195 198 202 192 196 180 181 189 191 186 218 216 218
289 309 304 321 305 336 457 423 392 428 521 394 374 282 314 265 268 254 256 235 260 246 228 227 230 218 221 210 209 214 215 207 200 199 193 202 187 182 183 197 188 204 213 218
301 303 301 391 420 424 400 371 353 392 427 362 345 290 301 274 273 267 250 253 238 235 226 225 232 230 220 208 221 198 204 202 200 194 186 202 189 200 189 197 198 192 180 203
291 317 478 457 405 402 373 351 353 379 356 328 322 290 269 282 258 271 268 246 248 237 248 225 228 219 225 225 208 215 211 209 209 200 191 196 188 206 191 198 191 200 188 195
362 401 385 371 389 384 360 341 351 354 327 305 301 289 270 284 269 261 267 264 258 245 239 249 229 223 225 220 220 203 207 218 209 221 207 201 191 188 226 191 186 201 206 194
367 354 341 336 341 338 345 324 326 336 302 293 299 300 287 283 283 274 257 258 259 262 246 243 232 226 222 218 220 218 209 203 216 231 219 214 208 202 212 227 214 209 203 193
345 335 327 318 333 357 350 305 302 325 287 280 283 272 270 287 273 283 279 261 250 253 246 254 239 228 224 224 222 213 217 212 213 219 221 223 238 236 238 235 207 212 211 205
344 327 312 315 323 322 318 301 293 289 286 274 281 283 272 294 291 278 278 282 270 256 248 251 245 242 233 226 223 222 224 222 216 214 219 229 239 224 220 229 197 201 224 250
322 325 308 304 308 300 303 295 292 291 291 293 269 286 280 261 278 287 280 274 278 282 262 249 250 249 242 238 233 228 225 223 224 222 222 228 238 218 232 251 227 277 264 242
325 304 305 297 299 289 277 272 277 283 282 278 285 285 256 277 274 276 271 292 299 291 279 266 258 247 248 239 238 238 239 235 232 236 232 233 238 217 236 246 236 267 262 260

GFSCGP_2pvu_pres_096.txt.gz
Presure
207 193 193 213 208 204 197 210 197 180 217 205 188 174 207 209 215 216 189 213 204 202 208 204 174 151 253 261 152 276 264 290 350 327 315 292 291 297 199 201 187 233 197 226
194 203 187 185 200 208 172 216 211 208 196 199 213 212 190 197 194 211 201 206 203 219 212 232 263 258 250 278 283 199 370 350 333 320 299 226 68 102 251 238 183 235 227 214
189 210 212 217 164 159 171 173 204 207 209 220 211 193 186 206 200 214 214 218 221 215 233 245 251 273 348 379 384 371 351 341 327 332 330 329 287 304 247 215 211 189 194 199
205 208 208 198 175 183 208 212 209 184 220 229 212 208 201 200 200 224 220 217 228 273 281 284 280 366 356 353 346 341 325 317 301 320 318 317 366 308 222 215 205 172 194 200
189 158 211 202 203 192 198 206 215 197 208 195 220 200 194 197 205 203 212 234 143 254 286 287 368 340 333 330 313 322 299 295 301 311 320 291 269 279 280 217 203 203 201 202
202 199 201 217 192 220 221 213 201 206 208 199 201 207 210 203 210 223 247 265 270 282 295 384 320 307 302 298 302 294 290 287 302 300 299 305 304 275 228 214 210 201 201 181
228 198 207 200 216 194 214 217 211 216 215 198 204 213 228 231 247 260 256 266 279 296 397 312 287 281 282 278 292 294 289 289 318 289 271 292 287 252 241 225 222 201 194 195
200 216 208 221 201 205 229 229 210 235 228 219 220 232 221 257 258 258 261 201 289 407 293 296 275 272 276 296 283 294 266 271 294 278 278 260 242 246 197 197 195 232 204 196
228 213 228 222 170 150 229 237 224 205 210 213 252 243 259 263 265 259 264 269 395 351 292 280 271 268 276 282 289 263 266 282 256 246 250 203 191 199 201 195 178 195 209 211
221 205 228 212 226 226 167 149 220 239 223 255 249 262 267 253 249 268 249 282 379 300 278 269 265 263 269 281 256 264 271 258 251 225 195 203 198 189 194 173 186 197 190 187
252 241 150 236 219 216 235 238 245 253 254 260 264 256 250 269 262 264 271 315 325 283 269 260 256 258 251 266 262 264 226 201 208 194 193 200 187 197 194 170 186 201 191 206
219 249 252 232 253 241 246 254 254 252 263 258 260 265 269 267 264 271 279 372 298 272 259 254 248 253 262 246 248 230 216 210 201 186 205 191 193 191 202 180 200 204 189 217
253 258 253 250 254 250 246 113 238 259 262 272 273 272 272 84 276 280 334 359 285 267 257 264 252 252 261 244 228 212 211 200 187 210 205 193 200 205 165 191 197 182 192 209
248 248 248 253 258 252 246 252 275 268 265 264 268 271 263 282 296 305 341 322 279 260 247 247 247 238 252 229 227 205 202 204 193 206 204 197 202 194 190 198 200 196 188 200
251 245 247 259 246 262 272 262 260 263 264 273 273 289 305 313 324 344 351 288 276 263 253 247 245 235 240 224 225 203 191 204 196 207 204 190 199 186 202 192 199 198 180 191
238 237 254 244 248 263 267 266 266 271 276 288 298 363 334 343 328 330 327 283 276 265 251 246 238 234 223 223 216 192 206 191 202 195 200 193 206 192 203 193 195 193 208 204
245 250 259 265 268 272 273 272 279 291 332 346 338 316 307 307 310 318 304 276 276 264 253 246 244 234 230 224 216 205 196 201 192 199 191 209 199 195 188 197 191 195 196 219
262 262 262 266 268 277 297 321 327 258 329 424 495 516 415 310 309 316 292 277 280 265 271 240 240 235 233 219 220 213 201 203 199 200 197 199 185 209 178 204 200 183 205 196
262 270 274 295 307 324 319 306 399 412 403 417 464 433 394 308 297 301 298 280 279 262 266 241 245 236 233 213 224 213 215 201 209 191 193 190 192 195 198 189 183 162 203 182
267 293 314 310 321 398 420 397 368 387 406 416 372 373 374 299 300 294 295 287 267 262 253 247 245 235 227 233 218 211 208 207 202 203 197 196 197 204 207 200 191 196 169 194
304 304 307 349 389 397 416 357 364 380 355 339 344 324 298 286 274 283 284 288 272 259 251 249 237 236 224 215 225 217 211 208 204 205 199 196 202 205 206 203 203 189 192 199
294 307 361 354 373 380 349 345 362 348 329 321 312 299 290 272 265 269 277 283 277 251 257 251 234 234 231 222 213 216 214 210 201 211 212 202 201 194 193 190 192 189 199 203
307 354 326 337 344 374 337 335 342 320 305 298 296 284 273 276 268 262 274 280 283 260 252 251 263 245 233 223 226 223 223 207 217 198 210 212 204 196 206 194 204 203 194 193
349 330 318 330 331 346 323 314 327 299 299 296 282 299 272 275 261 262 276 281 283 284 261 245 245 244 228 231 221 233 228 214 214 214 212 214 209 193 202 205 193 192 198 199
338 329 319 304 307 322 308 303 312 291 291 283 284 286 284 283 270 271 264 259 276 280 281 271 261 259 229 222 221 215 231 231 226 220 210 203 212 216 216 208 203 208 213 213
325 308 312 310 294 325 299 298 291 307 285 277 277 280 282 289 280 270 270 271 273 284 289 284 265 265 267 256 249 235 237 229 227 227 221 214 221 218 214 219 215 225 212 218

GFSCGP_2pvu_pres_099.txt.gz
Presure
210 178 192 208 208 191 177 211 185 178 179 200 192 174 176 194 215 215 213 192 207 200 191 216 212 208 220 182 232 224 211 229 237 253 190 269 259 266 261 256 292 248 236 239
175 200 179 187 211 214 206 203 201 204 197 195 186 204 195 203 216 218 191 218 200 188 188 201 194 214 208 215 227 239 231 231 267 278 281 293 313 314 323 329 334 239 190 248
197 164 200 209 191 202 196 170 198 193 214 197 190 193 197 165 215 206 206 201 196 218 194 215 214 177 216 193 231 190 265 291 298 299 364 412 380 260 359 291 74 200 239 205
244 196 165 173 199 216 212 198 194 191 203 200 201 170 193 210 203 207 177 211 198 198 210 219 216 225 219 227 227 259 293 308 391 361 367 357 336 335 308 200 251 307 243 222
187 196 240 210 215 206 205 200 188 203 168 204 201 202 167 185 216 220 198 204 223 200 210 213 220 254 292 277 288 296 384 347 336 342 341 328 328 326 328 324 254 306 223 212
225 236 255 204 154 177 213 199 214 223 209 208 213 192 212 202 203 217 228 216 232 231 222 103 214 290 284 287 307 370 323 304 316 310 312 309 311 320 320 315 250 259 231 201
275 269 219 217 221 210 219 194 207 215 216 230 218 202 203 222 211 207 233 197 221 243 230 275 284 280 285 353 342 309 290 289 302 300 296 312 336 326 330 320 277 219 216 216
232 266 229 217 216 221 215 218 212 235 207 219 229 221 207 218 232 220 243 237 226 233 269 284 271 277 360 321 297 286 279 312 294 295 301 318 299 315 296 292 271 235 197 219
309 290 275 226 217 226 228 192 237 241 226 230 203 206 223 204 223 221 212 242 259 267 259 270 286 350 315 293 273 270 290 285 294 274 256 250 256 263 279 282 246 213 190 207
316 302 285 271 266 190 208 216 229 229 235 234 236 237 237 230 226 215 247 258 258 274 269 287 281 323 289 272 271 275 282 283 260 247 244 244 249 240 243 228 214 198 200 222
285 296 290 281 256 261 255 252 253 245 248 232 227 250 245 236 262 250 251 254 261 266 279 284 351 290 275 261 269 271 280 255 241 229 250 244 239 232 239 209 189 217 197 195
298 268 266 263 292 274 269 238 237 207 238 252 272 249 231 261 252 253 259 254 262 271 278 308 347 282 263 268 265 274 260 270 239 238 238 222 209 207 199 186 214 191 209 193
264 264 263 256 249 265 269 271 268 239 233 253 261 256 259 254 254 266 260 271 266 278 288 355 311 273 262 259 260 243 256 254 227 225 209 202 201 205 211 193 206 186 185 195
250 249 249 253 249 247 245 244 250 261 262 261 253 256 252 261 273 283 272 263 268 280 305 352 285 266 245 251 260 239 245 241 213 222 212 203 200 192 201 196 205 195 192 194
250 251 249 252 253 252 254 249 252 252 257 258 261 259 258 281 286 283 275 275 278 284 352 354 277 260 247 245 240 255 231 218 211 213 210 203 194 190 204 194 182 197 201 193
245 243 245 246 246 243 243 252 255 193 255 263 257 264 282 280 280 277 280 283 328 323 347 333 271 253 249 244 234 242 219 213 193 206 190 192 205 189 212 205 177 211 217 215
238 239 245 253 256 259 252 247 252 255 264 287 281 284 292 303 314 347 344 321 337 328 324 313 263 249 247 243 248 227 215 217 204 201 198 201 220 189 200 208 210 197 183 201
241 255 251 246 247 251 255 259 270 285 283 198 298 336 341 350 478 454 306 320 341 317 309 302 255 246 246 238 242 226 215 204 188 208 208 214 217 208 209 192 185 220 184 193
248 244 245 249 253 259 272 275 280 293 333 327 310 436 482 500 499 430 306 305 313 307 310 291 253 246 243 235 241 225 215 205 203 189 205 188 197 198 195 200 189 194 193 183
250 248 250 255 265 286 303 329 318 327 399 413 419 382 383 376 380 340 293 311 305 294 302 283 258 240 240 233 242 217 221 207 203 195 191 205 192 190 194 192 187 197 197 196
257 268 276 285 319 305 364 431 399 383 367 351 350 366 343 339 341 311 284 289 291 297 300 284 258 243 236 239 236 210 223 206 204 204 205 191 202 196 191 197 194 199 191 201
264 278 304 302 311 346 397 371 368 331 324 320 321 326 304 296 303 293 284 279 282 288 295 280 270 260 234 234 225 230 212 215 206 204 203 211 190 203 192 198 197 216 202 192
287 282 295 310 368 380 360 360 326 311 317 315 307 300 293 279 298 285 268 270 272 281 288 293 275 267 241 231 232 187 224 219 207 204 198 203 203 193 203 194 191 188 189 189
290 288 292 350 344 373 335 349 316 302 297 303 288 292 272 287 271 285 268 268 269 270 278 291 273 242 245 244 233 229 231 223 216 206 207 201 204 212 201 209 204 203 200 208
268 293 338 335 326 355 328 326 302 301 297 292 286 282 273 279 273 268 266 267 271 273 269 286 299 278 263 238 239 228 234 227 219 216 213 209 207 205 199 198 204 210 196 207
290 361 333 315 312 325 318 314 296 288 290 284 290 275 278 278 272 274 268 260 272 264 263 269 271 292 284 269 231 244 229 230 226 222 224 215 205 212 202 211 203 193 205 203

GFSCGP_2pvu_pres_102.txt.gz
Presure
216 176 202 178 224 204 216 215 193 215 180 207 170 197 204 180 180 213 214 205 196 164 170 175 214 201 216 219 220 203 199 166 203 142 207 203 206 214 212 229 235 236 252 262
206 204 195 217 187 218 190 191 212 197 208 205 201 191 197 212 204 207 180 206 202 191 193 209 211 227 206 210 151 217 170 192 230 209 195 225 212 228 229 240 258 269 264 269
178 214 182 214 209 175 194 224 192 210 214 189 212 202 192 193 199 198 188 205 188 197 187 196 212 213 225 204 202 222 197 208 213 225 228 236 247 241 251 269 279 284 279 162
177 318 306 133 221 212 201 199 222 209 189 208 191 195 192 203 188 200 196 204 200 194 178 186 220 231 210 187 231 231 239 241 234 229 242 261 275 130 284 274 381 383 378 366
278 324 143 282 246 254 235 217 217 184 233 220 197 195 190 214 214 187 174 169 210 209 211 203 176 222 235 217 237 211 238 230 240 313 301 290 286 295 353 372 394 366 354 351
175 252 256 271 215 262 201 207 222 180 221 204 205 197 228 199 213 212 207 210 219 223 232 225 217 215 224 232 249 262 235 273 303 342 388 348 328 338 341 342 348 337 339 332
290 289 244 208 202 282 247 277 252 244 205 213 207 202 195 227 197 204 205 204 219 210 227 241 237 212 218 231 233 257 310 308 371 318 315 302 313 315 327 319 325 311 332 248
329 268 277 274 267 129 266 141 263 263 251 201 201 229 244 212 210 193 215 209 223 222 232 234 220 239 242 235 266 289 286 351 296 290 286 297 311 311 300 299 315 325 299 230
345 291 272 261 262 265 259 256 265 267 256 232 256 241 213 221 199 204 236 227 142 230 237 233 244 243 231 188 288 299 335 295 276 284 303 288 289 299 317 331 323 314 244 236
315 326 290 273 270 265 261 262 253 159 264 265 206 222 219 224 217 219 238 241 235 234 241 239 248 251 260 281 285 296 307 273 273 290 272 268 246 257 277 258 295 299 235 234
298 299 292 330 324 290 265 255 264 271 236 261 253 218 215 214 228 241 217 241 231 244 236 258 242 267 275 285 301 322 283 265 275 286 252 240 262 243 246 274 263 266 260 223
295 287 290 292 296 318 304 297 291 235 266 260 257 251 245 245 246 231 250 248 249 236 267 250 268 267 275 302 371 296 266 265 278 252 238 232 239 245 257 248 233 245 245 220
279 271 276 275 276 274 278 282 281 277 272 264 259 255 254 255 258 258 200 277 263 246 261 264 263 270 297 311 308 277 265 270 243 237 237 236 245 246 233 222 212 203 224 218
270 270 271 269 264 266 268 261 263 263 273 270 268 266 268 274 273 269 251 245 254 256 253 263 284 290 283 324 281 267 256 247 237 221 239 241 223 223 229 218 218 218 214 217
266 264 263 261 256 253 252 254 253 249 251 254 254 249 253 257 251 253 259 257 257 264 259 260 280 269 315 328 271 260 251 241 238 226 230 227 228 227 217 205 213 217 214 208
255 255 249 246 246 247 247 249 250 252 251 250 251 256 264 264 260 94 259 262 276 260 270 285 286 289 322 341 260 249 258 242 224 227 225 219 218 222 215 205 204 209 199 193
247 242 245 246 247 249 250 250 250 251 251 253 249 253 259 268 268 263 272 275 291 297 291 301 311 321 367 278 253 247 251 239 232 220 228 221 215 212 216 192 198 204 183 198
239 236 239 245 245 237 241 250 254 259 253 257 255 260 268 278 292 304 312 348 362 349 334 343 343 349 345 266 247 247 250 235 227 214 218 219 197 215 214 186 202 207 202 198
233 246 236 237 237 243 255 252 253 257 265 272 282 295 318 347 358 344 516 461 444 403 310 317 337 327 312 258 245 246 248 232 236 222 221 215 190 198 209 181 185 198 205 196
241 239 238 247 257 253 257 259 268 281 294 335 308 312 396 399 445 453 424 406 368 314 309 339 317 311 274 252 242 245 194 237 234 225 221 217 203 204 207 192 185 191 194 186
244 244 251 250 255 267 276 281 303 312 410 396 381 368 375 360 370 389 357 338 312 294 317 312 308 302 267 251 242 245 233 238 227 221 206 211 194 203 201 192 189 191 203 184
250 251 250 263 271 283 300 293 374 385 357 348 324 311 315 323 341 331 317 298 288 289 296 303 294 299 272 251 241 243 239 235 226 211 214 206 204 192 192 202 187 214 188 203
248 264 272 275 300 278 301 370 361 337 317 309 306 303 300 312 308 296 284 279 276 280 281 297 284 291 272 251 238 243 238 230 229 216 208 213 213 203 197 191 211 191 197 199
265 269 295 285 282 301 328 352 332 315 296 288 293 296 295 289 294 297 272 273 269 268 270 275 287 287 281 250 244 236 235 235 234 221 214 209 213 194 211 207 194 198 201 183
288 279 280 278 292 368 350 321 302 294 286 293 281 293 273 279 278 280 282 262 269 270 266 271 279 283 287 268 250 240 235 235 234 219 219 213 211 214 205 196 201 202 195 200
267 279 273 294 351 365 341 295 300 283 283 286 284 280 273 270 274 282 274 278 272 265 265 272 269 274 278 291 264 247 239 238 228 236 216 212 216 210 211 209 204 202 200 203

GFSCGP_2pvu_pres_105.txt.gz
Presure
203 223 229 206 222 177 217 166 220 216 211 224 199 204 209 166 206 199 195 206 198 181 207 189 181 190 223 184 192 218 203 211 217 231 201 204 193 212 203 195 209 204 196 186
180 198 202 205 216 169 225 232 172 201 220 189 212 188 198 206 197 203 182 215 202 226 213 200 175 216 188 199 187 189 182 176 209 212 232 145 212 195 195 195 195 201 211 223
184 213 174 249 296 309 237 241 206 203 186 221 200 218 209 185 202 212 195 214 211 196 188 199 162 200 203 201 218 189 181 184 184 226 221 205 212 184 146 223 202 205 214 226
247 250 365 348 415 327 199 335 299 282 275 195 231 189 211 198 152 208 206 221 208 209 200 195 202 187 210 198 201 207 198 193 173 178 224 209 191 234 246 259 259 238 257 231
334 336 345 349 377 225 295 325 312 260 172 210 223 191 199 230 189 200 200 218 200 200 206 192 205 201 190 169 193 213 217 230 243 241 236 225 238 228 233 246 264 308 306 303
331 336 334 321 185 318 309 282 291 200 185 188 235 210 201 222 176 198 181 205 188 204 202 196 195 206 218 223 218 213 214 213 233 230 216 241 223 261 321 385 392 377 325 317
320 263 327 277 311 258 294 254 194 256 268 219 197 299 201 186 226 219 151 152 215 226 214 244 233 234 222 213 212 216 213 227 243 243 238 238 299 353 331 320 326 338 332 353
300 293 300 345 203 292 281 268 138 254 255 258 242 255 251 259 262 216 243 209 83 218 221 197 192 233 218 228 219 215 223 243 203 248 268 275 336 302 293 293 304 320 276 342
290 292 298 313 288 276 292 266 260 195 252 177 252 168 141 240 271 260 200 221 168 232 219 225 240 236 222 211 141 234 249 240 248 249 341 322 290 287 309 312 317 290 295 324
280 285 293 303 329 279 267 237 264 250 192 244 149 182 238 224 240 244 260 259 254 242 210 227 241 234 230 225 228 240 253 250 252 318 327 283 293 291 257 231 255 301 318 319
274 272 292 293 285 294 265 275 284 256 246 241 242 249 253 246 256 254 251 255 254 244 248 213 235 224 224 223 246 246 248 258 296 370 279 280 274 260 235 236 223 229 326 311
272 276 280 292 304 303 278 268 265 269 268 264 252 248 160 250 250 246 256 254 254 258 247 227 215 224 229 249 250 258 268 286 311 295 270 279 262 251 229 227 228 231 290 225
264 272 274 278 286 288 301 271 261 254 256 250 239 243 249 245 247 254 261 266 241 255 138 244 240 242 255 255 263 272 269 313 347 273 273 257 249 251 237 257 229 237 237 275
265 271 270 270 277 279 282 296 267 254 242 242 247 256 254 256 257 251 269 260 264 257 255 255 260 265 275 270 269 269 290 296 286 263 264 239 234 245 235 243 247 245 244 230
266 266 275 276 276 277 273 277 280 284 293 294 298 294 265 265 267 268 268 266 267 267 263 261 261 263 261 252 268 279 278 357 263 262 240 238 225 238 249 218 227 222 219 225
265 270 264 271 271 267 264 262 263 261 260 259 257 259 260 257 261 87 257 256 255 91 120 256 256 248 252 267 276 300 293 332 257 244 238 228 220 240 223 227 219 214 216 219
271 258 258 262 259 258 257 254 253 253 251 251 249 252 252 253 253 254 255 255 250 247 249 253 262 261 268 264 277 311 319 281 265 239 227 227 218 247 217 224 211 215 210 221
253 259 257 252 246 246 248 249 250 249 249 249 249 251 251 254 258 259 264 265 265 261 266 272 280 278 286 304 319 320 375 260 252 236 228 224 215 238 225 222 197 237 216 212
246 246 246 245 242 238 238 243 247 246 240 240 242 258 266 271 84 275 277 277 282 307 308 364 370 357 352 347 351 357 290 257 258 237 229 219 218 224 223 214 209 236 215 218
241 242 243 242 231 237 252 243 245 249 255 269 273 280 292 307 325 469 479 426 322 324 406 422 416 304 291 327 344 314 265 250 254 237 230 214 219 219 221 220 219 210 193 213
245 245 237 235 239 246 252 250 260 263 281 296 328 378 343 394 383 443 386 364 355 357 370 364 339 316 316 331 312 277 259 245 253 235 233 222 228 219 221 224 216 216 209 209
243 242 242 246 250 252 259 261 274 292 313 371 361 353 358 366 379 367 350 350 342 335 318 303 296 313 303 315 293 267 252 238 246 231 235 216 219 225 211 215 221 211 210 204
245 243 247 253 254 262 273 288 298 302 358 338 332 321 322 333 328 326 314 305 303 295 289 288 308 302 303 301 283 261 248 239 247 237 234 229 218 208 225 203 216 217 202 205
253 253 254 260 273 274 291 292 307 353 331 320 309 296 305 306 306 301 295 293 282 277 274 275 283 288 283 286 283 259 249 242 240 242 230 217 223 201 215 228 194 212 208 204
253 261 270 271 288 281 286 304 353 320 308 295 288 283 276 279 294 279 278 275 273 279 273 269 273 284 284 277 281 260 251 243 237 235 240 228 203 223 210 220 216 202 211 201
267 265 269 290 277 275 299 350 331 295 294 282 282 282 272 281 281 286 271 262 272 269 265 266 263 270 276 276 283 263 254 250 242 241 237 228 232 218 229 218 223 212 207 212

GFSCGP_2pvu_pres_108.txt.gz
Presure
215 213 224 220 216 228 218 218 213 180 165 206 174 218 205 229 214 190 189 202 186 210 213 199 203 208 212 192 194 218 204 203 208 208 188 207 194 204 205 209 179 215 220 234
234 240 232 219 218 219 225 231 232 212 219 206 185 199 199 219 237 211 204 196 195 214 213 189 207 184 192 197 203 199 226 200 210 201 182 162 190 200 176 206 200 180 218 185
239 236 210 234 233 224 197 222 206 237 250 196 200 176 228 255 217 215 197 218 211 210 210 217 187 209 211 200 201 221 202 225 218 221 201 196 196 195 197 185 197 192 181 161
231 237 247 249 252 239 245 239 240 329 223 349 169 335 166 173 259 234 207 224 239 206 202 201 208 191 203 210 194 199 209 188 188 188 196 175 178 196 201 196 190 222 178 244
238 242 238 246 225 245 375 362 355 360 363 177 270 353 390 313 327 290 225 212 247 205 219 219 205 218 207 206 202 222 207 214 203 209 196 202 191 188 210 225 217 136 252 245
258 179 262 239 263 328 337 351 358 351 403 322 313 314 292 274 295 185 288 243 184 238 211 218 206 218 207 220 218 214 189 199 207 216 199 199 223 223 214 219 231 251 261 266
256 258 258 257 324 312 319 341 321 320 327 304 243 280 281 262 256 265 142 271 231 264 263 226 208 221 219 199 211 203 214 212 195 184 204 222 210 225 219 184 258 267 305 378
261 268 255 324 311 300 290 310 324 295 305 281 263 280 158 266 192 262 148 196 190 133 160 264 286 222 219 219 218 234 176 223 208 233 205 246 237 227 232 252 272 357 345 332
274 261 314 304 308 294 296 310 311 296 299 278 258 263 253 248 240 240 253 241 276 160 251 191 149 201 169 224 226 237 222 217 228 242 231 255 238 209 240 281 353 325 317 320
267 305 301 296 292 286 288 296 305 278 293 270 258 248 245 156 244 243 149 246 241 246 249 236 237 217 243 268 264 255 218 232 213 226 238 244 225 237 277 340 315 272 258 282
302 291 285 290 290 292 290 281 309 281 283 270 258 247 240 236 239 251 246 250 244 243 252 258 246 251 227 257 241 258 252 246 235 231 249 224 233 276 346 306 279 244 221 242
287 280 288 293 286 281 283 286 281 300 274 275 260 250 247 240 238 241 249 256 252 249 247 234 161 259 251 246 246 248 242 249 253 247 222 238 272 365 294 280 268 246 243 225
278 269 283 287 282 275 284 273 289 269 289 270 274 252 250 250 243 249 253 238 236 235 237 233 250 243 244 244 259 258 254 257 265 241 260 278 252 302 290 275 265 226 233 227
275 280 284 295 287 270 268 271 282 278 281 295 266 276 260 251 253 246 247 240 233 235 238 254 187 161 242 247 258 288 264 257 259 265 289 276 324 276 273 271 251 228 222 233
281 280 276 294 281 272 274 270 273 279 273 274 281 263 280 267 250 244 242 245 248 246 249 239 244 244 237 246 272 263 263 268 265 278 264 300 280 278 259 261 233 233 248 221
277 273 272 285 272 270 277 270 270 266 269 271 274 287 305 268 262 270 250 248 256 251 235 243 259 262 259 271 264 263 264 265 264 250 273 311 271 259 250 245 236 249 217 247
273 271 283 270 266 270 266 266 265 264 262 259 259 267 277 270 258 251 249 249 249 250 265 278 142 273 264 259 256 257 258 261 260 282 283 272 264 252 239 233 217 244 220 228
285 282 272 264 268 259 252 253 251 251 249 249 251 252 253 256 257 257 258 260 261 259 260 259 256 254 256 256 257 254 253 269 272 278 295 257 252 240 240 228 239 235 232 226
272 264 259 256 248 258 248 246 240 244 243 244 245 248 249 252 251 253 254 257 260 261 261 261 264 265 263 263 263 264 270 275 287 330 339 255 250 237 229 217 237 224 228 217
257 253 245 243 241 239 244 242 240 239 234 241 246 249 251 252 252 255 253 260 273 289 290 290 294 297 311 306 351 350 362 352 366 355 265 248 247 238 227 219 231 215 223 222
245 247 242 242 239 241 241 242 243 231 236 245 254 253 264 279 312 381 325 364 369 347 389 390 400 382 377 337 326 306 322 331 315 302 263 242 244 234 229 219 237 216 220 225
237 239 236 241 244 244 243 243 239 247 253 261 276 310 318 382 395 367 364 358 359 361 368 365 356 343 338 323 299 299 312 300 292 276 260 238 239 235 226 215 245 224 212 217
235 243 248 246 245 245 251 245 253 258 276 302 302 350 340 347 360 348 349 325 324 320 313 318 305 308 299 289 315 300 294 288 276 262 252 239 239 234 227 222 227 233 224 214
246 239 239 244 250 252 258 263 270 291 292 313 328 330 321 323 322 317 306 308 301 292 293 289 287 283 275 290 299 284 283 278 265 255 246 248 233 228 228 233 223 235 225 212
250 249 246 251 253 257 270 275 287 283 329 333 316 308 297 306 301 294 294 289 278 283 282 277 274 277 291 281 290 276 276 273 262 252 248 240 246 235 233 228 231 224 228 222
246 247 248 254 261 266 276 289 276 295 336 313 299 285 281 287 285 285 279 274 272 270 265 265 270 266 273 265 275 279 272 274 264 251 251 241 247 240 238 233 217 230 219 217

GFSCGP_2pvu_pres_111.txt.gz
Presure
195 176 210 206 208 209 211 213 228 245 245 225 232 231 241 71 82 199 232 208 201 211 218 221 228 214 197 193 218 211 209 214 208 214 212 177 196 196 195 214 216 204 178 188
211 201 215 210 190 200 216 240 240 236 218 227 230 243 217 238 225 201 231 221 191 189 222 223 225 213 203 183 209 208 192 209 210 218 205 190 222 215 225 195 205 204 200 210
216 212 207 195 191 232 240 201 231 253 251 255 221 260 250 236 268 247 189 214 166 212 237 221 185 225 176 205 199 221 212 210 216 212 201 208 199 201 213 223 165 200 204 228
223 197 201 212 222 180 221 229 235 268 178 269 162 338 419 350 406 402 258 157 247 130 143 256 237 219 149 186 189 198 200 203 211 215 209 208 206 202 211 223 214 198 191 193
205 202 216 230 227 228 227 273 252 267 271 186 152 155 439 400 355 341 437 148 158 286 178 320 282 234 206 215 233 230 214 207 215 216 215 206 215 195 207 219 208 218 214 212
203 224 229 226 222 233 267 179 262 266 290 358 108 320 391 134 136 240 348 300 216 156 181 335 203 284 260 227 234 228 234 220 216 200 216 223 204 206 209 227 204 212 203 238
228 226 225 231 238 252 275 262 279 275 332 326 321 341 66 313 242 147 151 299 306 156 282 309 294 269 265 172 224 223 227 229 220 221 215 219 214 209 205 216 214 214 221 207
230 225 234 238 255 268 257 173 269 320 314 313 307 321 314 290 290 271 264 272 270 281 246 279 283 288 268 275 279 224 238 266 220 211 209 193 224 226 226 223 210 224 236 245
230 244 239 254 260 257 267 273 314 307 298 302 309 310 279 273 268 255 244 254 256 255 240 271 204 158 250 260 250 261 267 265 147 154 218 197 155 222 224 239 242 227 234 206
234 246 263 266 256 274 279 242 298 290 290 297 300 309 272 261 260 240 240 252 197 257 255 239 261 243 242 257 196 262 257 217 183 231 246 235 219 223 259 245 197 243 230 230
262 272 267 255 283 259 292 296 281 293 297 298 292 301 258 266 249 246 239 243 243 225 245 251 252 217 254 265 258 234 219 257 260 255 244 258 269 266 264 236 267 271 261 335
268 272 265 286 296 293 286 276 290 281 282 288 291 290 264 251 248 263 241 242 240 244 246 245 151 235 215 249 248 240 244 205 238 235 234 249 228 225 249 257 267 267 341 327
266 268 272 321 299 283 284 277 293 288 276 274 284 297 266 265 252 251 250 256 245 249 249 241 254 251 243 242 246 250 262 239 236 257 244 244 244 260 281 279 274 306 340 293
289 274 309 307 279 278 276 286 306 286 274 265 275 290 284 289 271 248 246 244 245 239 243 245 245 247 245 248 141 247 237 232 236 252 239 237 247 250 267 274 297 344 295 279
291 303 281 277 293 284 278 277 301 283 267 271 272 284 282 276 298 278 249 239 244 247 251 246 243 241 238 238 236 235 231 237 236 249 246 240 250 263 282 261 276 301 280 267
283 270 274 296 289 280 282 288 280 268 277 273 276 276 264 263 266 275 294 254 262 261 247 248 248 250 250 247 237 238 240 244 251 241 248 261 272 287 268 253 312 277 275 255
273 276 267 281 278 277 277 280 265 267 266 266 267 263 258 259 261 262 263 268 280 280 275 269 254 242 241 254 259 261 261 255 247 255 268 282 280 272 253 266 293 264 255 245
273 268 277 294 274 279 278 264 262 258 255 251 253 252 250 250 251 249 248 248 250 257 263 269 259 256 254 259 268 278 276 275 273 266 271 271 257 260 277 285 264 254 249 242
311 300 280 272 291 277 259 255 256 251 247 247 244 242 242 243 243 244 245 247 249 250 251 254 258 259 259 259 259 257 255 256 258 260 262 266 265 266 282 286 264 251 241 230
284 276 290 279 264 256 244 250 244 246 243 241 242 241 239 242 242 247 248 252 258 259 261 264 266 268 269 268 263 262 263 262 263 268 269 267 268 277 300 266 257 251 239 230
284 282 265 259 255 246 244 241 243 241 238 242 243 243 238 237 245 255 268 278 290 318 333 398 401 395 343 363 382 360 385 384 326 326 329 353 356 334 332 264 252 247 233 230
262 257 247 248 246 237 243 241 238 241 243 242 244 245 248 258 269 309 319 339 340 353 364 386 362 357 353 351 350 353 348 337 293 313 321 318 315 303 286 254 251 241 238 224
256 251 242 240 242 243 240 239 236 243 243 248 254 262 283 309 349 352 348 328 335 331 334 335 329 321 321 321 321 311 301 305 291 288 295 291 277 279 254 250 249 238 236 227
246 247 244 240 238 239 240 243 242 248 253 265 279 295 323 340 358 339 330 323 313 302 303 298 303 302 296 289 295 287 278 283 280 281 284 276 275 277 248 249 244 239 234 229
242 246 243 242 244 246 247 247 246 257 265 283 291 311 313 315 312 299 296 299 286 276 284 285 291 273 278 276 273 271 275 271 271 279 272 270 274 269 248 248 229 245 235 242
243 244 242 244 245 248 245 247 258 268 283 281 292 327 307 314 294 300 279 279 278 278 269 266 268 269 268 269 259 265 268 266 270 273 268 270 269 268 249 246 240 240 241 232

GFSCGP_2pvu_pres_117.txt.gz
Presure
186 194 190 178 175 184 187 195 190 186 193 194 188 179 179 201 200 211 221 225 223 224 218 214 214 164 168 264 240 258 242 230 213 190 190 202 201 202 204 196 196 188 193 175
178 179 179 184 185 190 193 189 189 196 159 197 192 201 200 210 235 242 233 220 223 217 246 258 270 274 238 277 274 240 247 179 226 214 202 223 197 202 188 206 194 204 199 211
185 191 192 186 189 193 191 195 196 198 203 196 202 99 203 226 224 226 230 234 151 231 262 297 329 341 73 208 335 308 268 256 203 226 210 227 214 221 214 189 214 215 220 214
184 189 189 188 201 194 195 202 202 203 204 197 204 123 222 220 238 225 226 235 247 290 310 336 347 330 378 361 353 383 295 242 265 235 216 224 197 190 224 220 219 228 225 225
192 197 201 203 205 202 201 199 201 205 206 217 220 207 215 81 217 237 237 244 301 314 384 350 393 369 364 345 306 318 331 351 353 256 257 237 214 203 221 223 233 206 182 226
204 209 199 204 198 199 202 203 214 214 201 216 224 207 244 232 227 227 135 292 291 367 345 304 199 278 318 311 126 307 307 331 340 275 210 255 202 212 226 237 210 211 218 214
217 206 208 206 196 206 211 204 213 212 220 211 210 225 212 230 243 207 93 358 344 321 312 201 135 211 284 283 286 138 232 184 194 300 217 263 209 244 161 192 234 234 222 205
210 199 205 203 212 192 204 193 193 206 209 210 228 223 241 253 293 267 287 292 310 297 293 276 289 338 289 214 276 290 299 175 135 294 265 198 253 244 193 221 229 225 210 232
202 216 214 185 189 198 213 207 212 224 220 235 249 248 249 293 294 287 358 297 292 277 271 271 274 261 260 209 280 265 247 261 274 269 138 279 277 177 264 265 238 154 219 217
205 187 207 202 206 215 220 220 227 227 230 239 249 255 284 285 288 289 314 274 284 262 277 262 255 248 252 255 261 182 263 266 266 278 275 264 220 183 272 269 250 189 236 183
214 222 231 223 215 219 222 230 241 228 242 272 299 293 278 281 278 315 310 281 267 254 270 256 248 248 260 244 235 244 255 256 259 136 174 232 254 259 263 260 229 179 265 277
240 240 233 238 240 242 239 252 289 287 283 305 292 281 271 278 307 291 312 274 269 246 248 260 248 260 254 233 244 252 233 251 257 262 254 260 254 260 251 248 249 171 247 250
251 250 255 264 259 269 272 290 285 290 294 286 281 281 281 314 295 271 299 278 275 255 260 241 249 262 244 241 238 240 236 210 221 246 248 245 250 250 255 226 244 244 236 194
262 265 250 269 288 300 293 284 271 267 289 263 288 283 315 302 283 307 278 297 274 265 254 255 239 247 234 231 241 247 246 247 253 234 244 240 245 249 165 242 249 238 236 223
282 282 281 278 277 273 271 253 265 279 279 283 277 307 280 270 290 308 290 295 273 257 258 259 243 243 237 246 250 238 248 194 256 248 244 239 250 252 246 241 234 229 245 250
280 276 273 271 270 272 273 268 276 280 270 281 288 275 303 286 294 291 280 276 296 268 269 252 252 238 237 244 243 266 261 264 250 248 256 234 249 250 239 241 253 229 239 242
260 268 268 268 269 283 296 292 283 272 284 290 275 288 280 292 280 270 274 278 279 312 257 262 252 259 254 260 251 250 253 250 265 254 253 239 244 240 247 251 251 255 252 254
303 313 304 305 302 303 308 287 281 285 300 262 272 278 290 279 275 268 265 266 274 279 288 283 260 253 257 254 253 252 263 278 278 301 317 283 260 262 279 275 271 240 257 263
317 317 309 309 307 303 287 291 285 279 266 253 284 286 274 263 264 266 264 260 260 260 260 260 261 264 269 268 266 263 259 258 260 265 280 289 282 272 269 273 276 281 277 281
317 317 314 305 293 302 288 288 268 265 281 281 284 271 261 262 259 254 253 249 249 252 247 246 252 253 255 257 254 255 255 255 254 255 254 253 255 254 254 254 256 257 262 262
315 304 298 299 302 295 273 265 262 295 278 283 265 260 259 254 253 254 253 249 249 251 251 256 259 261 264 265 268 267 267 269 269 269 264 259 257 258 259 259 258 260 262 265
301 300 297 295 291 257 288 307 282 283 272 260 253 253 249 248 247 247 248 249 250 256 266 279 302 355 356 364 354 365 362 358 359 364 355 364 334 298 293 288 279 272 272 274
291 293 285 264 300 287 277 285 278 267 255 246 247 246 244 245 246 248 249 257 282 354 359 383 353 335 326 332 343 336 326 322 319 323 326 327 318 314 317 327 313 333 322 310
289 274 259 289 271 273 281 269 260 255 247 247 244 246 247 247 247 254 268 302 291 333 317 321 312 303 304 310 298 296 293 291 291 293 294 292 287 289 290 296 303 298 305 299
264 274 276 265 282 267 257 258 258 256 246 245 245 241 244 251 250 276 292 316 322 316 296 298 290 289 287 292 283 283 278 277 276 276 275 274 272 271 272 272 274 271 276 280
271 271 266 274 261 254 252 251 247 244 245 240 248 249 244 257 269 286 286 326 301 294 286 292 288 283 275 275 269 269 267 265 270 269 268 268 264 262 261 264 265 260 267 265

GFSCGP_2pvu_pres_120.txt.gz
Presure
186 183 149 187 178 191 187 183 186 185 196 185 190 192 196 203 198 196 200 198 191 204 207 202 203 233 243 231 234 228 216 217 154 216 219 142 214 222 224 237 203 207 206 191
177 151 178 182 186 180 184 186 192 188 196 191 192 183 201 208 205 206 207 207 203 204 205 209 223 230 229 235 238 243 207 209 264 260 161 246 254 259 193 241 231 214 199 205
194 178 194 189 182 193 189 191 201 201 194 197 196 193 201 206 205 202 207 211 211 215 224 230 180 219 247 245 187 77 317 243 308 302 303 304 210 250 256 230 232 229 219 193
195 189 180 186 186 185 191 197 195 202 207 205 198 201 199 200 175 215 212 222 226 223 232 233 225 238 268 215 301 321 381 387 366 388 323 319 288 250 246 250 240 233 238 216
197 195 186 192 188 177 205 196 205 202 215 216 197 214 215 211 199 216 220 211 214 227 210 222 239 274 318 348 356 349 351 390 290 302 342 348 298 311 253 256 237 234 243 233
180 188 189 184 195 205 203 210 215 213 218 211 213 209 203 209 214 177 85 200 141 128 213 213 223 135 366 349 319 339 329 333 309 289 292 287 306 327 307 244 255 240 184 235
188 201 210 206 197 205 211 220 201 213 206 206 216 214 223 190 195 210 216 226 225 103 252 287 94 333 324 256 304 318 305 313 294 221 278 296 304 299 308 314 248 249 240 220
211 191 197 216 208 206 212 201 214 209 206 209 219 208 198 204 215 221 231 212 166 210 99 302 337 282 281 306 130 290 226 129 145 279 138 291 151 169 290 292 278 166 209 246
197 212 222 213 213 207 204 203 198 200 206 218 216 209 210 213 235 236 255 267 289 293 182 308 243 282 279 287 276 268 265 283 266 266 259 186 236 246 269 265 161 148 228 252
222 194 200 195 189 194 203 206 207 220 227 232 243 249 256 255 265 302 301 289 283 283 287 327 286 270 275 270 278 276 284 263 254 202 283 276 253 261 190 224 166 238 159 255
205 198 211 203 206 223 229 231 232 239 247 244 254 271 265 296 306 300 288 260 224 279 325 304 272 283 262 248 270 277 251 248 247 264 201 258 254 192 261 249 277 265 248 287
207 209 214 226 229 229 226 234 247 251 258 259 276 267 306 301 300 279 268 275 283 317 311 286 279 271 271 265 247 263 234 258 253 254 264 250 263 261 281 268 261 254 267 259
218 218 226 234 239 252 259 253 267 269 281 278 289 292 302 279 273 263 265 283 321 318 285 278 273 266 264 262 234 249 257 237 226 233 246 256 252 260 262 260 251 265 172 169
234 240 247 258 266 287 270 271 288 282 275 274 276 276 269 251 270 260 276 282 303 294 305 301 277 272 263 248 260 258 257 254 253 241 208 240 241 247 252 250 249 256 199 258
267 267 271 278 278 279 290 293 273 273 269 267 258 266 279 273 272 264 279 288 274 290 314 299 274 277 254 250 256 274 243 250 244 229 238 228 253 249 242 244 241 243 247 245
261 255 272 284 287 286 283 272 269 254 256 257 248 264 276 280 266 275 281 269 297 270 298 284 297 281 269 259 252 256 246 249 253 238 251 256 250 241 251 243 239 242 242 251
273 282 257 282 265 277 266 261 266 273 302 293 288 283 281 268 274 286 267 289 273 292 287 274 271 296 263 262 250 242 258 255 244 251 250 254 246 242 258 261 253 243 243 242
271 271 272 268 269 264 268 281 297 312 302 298 288 285 276 277 290 299 281 272 283 275 275 276 277 282 285 273 261 252 258 259 252 245 244 251 252 257 251 244 265 260 257 252
278 280 204 274 274 303 293 322 308 308 303 300 288 281 285 289 273 269 272 281 272 266 270 270 269 269 277 277 292 262 250 253 248 249 263 250 260 278 285 274 283 302 301 305
276 289 301 321 333 345 330 312 310 308 300 287 290 289 270 260 279 282 274 263 260 261 259 256 254 254 256 258 261 269 276 278 281 282 277 275 255 249 253 256 260 266 276 277
322 319 324 334 341 332 312 302 303 301 289 291 276 260 286 281 277 271 259 255 251 250 250 251 250 251 255 256 257 256 256 256 255 255 254 252 256 255 257 260 260 261 261 264
330 334 341 326 336 308 292 298 300 294 285 267 266 281 278 275 265 255 253 249 248 249 252 256 259 264 280 343 347 325 350 366 356 352 328 343 355 340 299 305 302 288 277 268
333 333 324 330 311 296 295 291 290 274 261 259 275 281 268 256 247 248 242 245 248 251 253 268 301 301 341 338 336 328 330 332 333 328 325 329 333 329 322 323 323 329 319 323
341 320 317 302 287 290 286 277 259 300 284 281 276 263 253 245 242 241 247 248 253 259 292 299 331 328 318 307 312 298 305 304 294 309 297 295 293 293 296 298 297 300 285 298
301 304 294 287 283 274 280 293 267 274 279 271 257 251 246 240 243 248 244 255 272 297 319 308 314 295 299 294 300 297 285 281 280 278 280 280 282 277 276 276 273 274 274 277
293 285 283 275 261 282 269 256 280 266 258 249 251 247 242 242 239 253 250 268 287 322 305 289 298 284 287 290 286 278 277 272 270 267 267 269 271 264 264 262 262 263 263 262

GFSCGP_2pvu_pres_123.txt.gz
Presure
177 187 186 164 159 166 175 170 180 186 177 185 181 185 175 187 183 192 188 190 194 191 191 192 199 201 204 202 202 206 206 209 226 224 225 222 237 236 236 226 216 225 235 241
173 164 173 177 173 176 178 179 172 178 182 200 202 182 187 204 200 201 200 202 198 199 196 200 203 203 202 205 216 225 201 125 227 235 217 227 231 216 225 228 228 224 230 235
185 184 177 180 179 181 176 180 187 183 184 197 202 203 193 202 187 196 199 206 200 207 205 201 210 214 155 212 220 223 221 186 81 214 249 277 273 307 296 218 255 248 194 227
185 165 188 190 186 185 181 185 204 205 193 199 185 200 200 199 191 208 207 211 211 216 213 216 212 205 217 211 209 181 197 75 236 273 335 331 324 322 314 309 323 303 284 180
184 178 185 192 197 203 205 204 196 184 184 194 190 192 203 201 205 198 210 202 215 211 212 219 218 232 204 201 231 231 234 274 322 319 373 355 119 345 325 402 381 306 315 307
166 178 197 181 174 189 193 193 186 186 201 215 216 210 194 210 207 219 202 216 222 209 208 217 233 178 220 230 240 268 68 311 335 328 333 344 294 276 275 287 299 328 308 338
182 204 189 199 195 216 212 186 209 205 210 205 197 204 196 203 212 206 206 129 203 210 218 220 180 246 279 288 317 231 309 330 340 321 339 271 269 264 263 268 281 226 301 312
174 170 206 215 215 212 216 214 210 220 221 218 213 226 208 195 191 196 206 210 229 240 255 70 279 276 317 217 291 349 303 212 329 283 299 289 223 264 252 276 261 273 281 307
193 208 200 202 218 223 214 204 212 198 206 217 222 211 194 208 206 225 236 236 263 271 269 270 194 163 313 304 295 312 285 289 258 286 271 266 266 272 257 187 269 255 279 280
201 207 207 219 195 204 217 222 220 209 207 202 210 207 206 215 235 238 266 272 290 303 310 303 304 297 292 301 342 292 266 125 272 268 267 254 269 257 263 151 276 147 221 264
211 211 185 209 202 187 193 194 187 194 218 199 220 229 231 248 275 275 294 291 295 304 304 290 279 277 278 297 313 279 262 275 258 266 255 265 254 254 249 264 138 132 268 258
211 202 215 216 192 208 214 197 210 215 219 230 231 250 283 281 284 296 285 289 282 280 269 267 275 278 297 314 305 272 261 266 271 272 264 267 249 254 262 265 258 250 196 272
209 217 215 217 220 153 221 220 218 225 238 256 280 289 274 289 289 281 281 275 274 269 260 260 272 275 320 285 306 278 264 259 271 277 236 260 228 261 265 256 241 264 259 267
213 216 221 223 225 233 235 238 235 249 272 277 271 278 291 273 275 266 278 270 254 270 272 272 272 326 305 280 265 275 268 248 251 263 237 257 248 253 232 250 251 253 260 253
231 241 241 244 131 246 253 258 268 280 268 271 275 270 278 258 253 255 261 273 270 274 275 271 299 299 280 289 319 304 279 268 264 251 242 244 262 254 244 240 254 242 248 249
230 255 253 250 250 263 267 266 259 267 283 282 262 272 259 258 262 257 285 285 276 277 273 286 284 304 286 284 316 297 285 261 261 252 232 261 262 254 253 264 235 229 235 248
250 243 246 269 260 265 278 271 260 269 264 262 260 266 264 274 274 293 295 279 279 278 280 281 288 274 296 289 287 278 297 299 269 253 246 243 274 249 256 253 253 249 261 251
255 264 262 263 261 255 270 278 273 273 266 269 275 274 287 285 311 299 290 281 280 280 286 283 274 281 280 277 277 281 288 272 311 261 252 259 249 260 234 239 238 246 244 242
257 254 267 270 263 273 179 186 167 272 280 274 284 297 320 315 300 293 290 282 286 274 278 274 275 269 272 273 271 269 270 276 275 282 296 261 247 245 251 251 251 254 254 245
268 263 277 269 284 149 287 283 287 282 300 314 326 332 311 306 295 283 283 291 270 278 273 269 263 260 256 258 254 255 259 259 260 261 264 278 292 265 261 261 260 262 260 282
291 261 276 283 295 311 305 308 316 315 348 342 325 309 301 291 287 282 277 274 273 270 270 259 253 251 251 251 255 256 254 257 258 257 256 255 261 268 272 270 268 265 260 251
324 317 308 305 305 312 318 324 330 330 324 314 300 295 290 289 278 265 275 265 269 261 253 251 248 249 252 252 257 267 327 360 353 352 357 328 272 261 256 253 253 256 259 262
363 324 320 330 326 330 336 357 341 320 301 299 294 288 283 270 272 266 274 263 257 252 248 242 249 252 260 279 339 341 334 330 328 335 336 334 333 325 325 326 324 319 323 315
326 321 357 332 327 341 354 327 310 297 291 286 285 278 263 269 283 270 259 250 246 240 247 251 254 281 334 339 333 320 312 303 310 308 308 305 302 298 296 294 294 295 293 288
321 320 338 352 355 346 314 293 290 288 281 282 289 285 283 278 267 256 247 244 241 248 246 266 286 325 314 309 305 304 285 297 290 288 283 283 281 279 276 276 276 275 276 274
312 322 318 314 301 295 293 284 280 287 273 270 278 284 270 261 253 247 243 242 241 253 269 287 277 298 300 294 293 289 290 277 278 274 272 268 268 268 266 264 264 265 264 263

GFSCGP_2pvu_pres_126.txt.gz
Presure
180 173 180 161 163 160 167 176 172 176 178 179 176 173 179 177 178 175 192 194 195 195 184 188 198 189 204 200 196 201 198 203 206 210 213 220 221 227 226 229 232 226 227 230
168 168 167 171 175 175 179 184 176 178 181 177 187 186 192 183 188 197 198 189 193 198 188 189 203 203 203 202 205 204 206 212 213 211 222 217 185 221 218 215 189 223 225 221
173 171 172 165 164 174 176 164 181 168 186 194 186 186 191 196 197 187 191 185 190 199 208 206 205 197 210 203 205 151 212 216 214 220 151 217 159 160 205 204 222 235 236 218
185 173 178 177 176 169 179 183 173 186 182 171 180 196 201 193 170 185 187 190 200 196 209 211 201 212 209 210 220 210 216 222 188 181 169 211 202 130 223 231 265 284 283 307
188 185 159 181 174 175 167 176 177 173 196 177 196 214 213 217 214 210 210 199 207 208 202 203 200 220 215 220 220 211 205 207 212 226 119 232 231 283 290 313 337 342 366 347
192 172 168 173 173 184 191 181 187 183 197 207 206 193 205 210 216 214 217 217 222 217 218 230 232 223 199 205 214 220 242 252 265 186 286 292 300 327 331 339 325 340 335 297
177 199 189 175 174 180 184 166 181 197 191 194 199 213 207 209 216 226 216 206 204 224 225 219 217 206 206 146 243 274 276 126 291 284 133 276 242 341 331 334 308 290 286 281
174 179 171 199 173 174 158 200 197 191 203 205 189 215 206 212 200 209 213 216 219 202 205 205 212 221 238 293 291 304 304 206 323 314 279 303 301 320 248 243 275 129 275 264
165 164 168 167 165 165 193 189 198 199 204 198 199 221 184 199 205 199 200 195 201 227 220 220 298 297 292 304 303 311 312 308 308 284 284 276 286 290 270 282 278 263 259 261
200 186 195 179 167 185 192 195 199 202 201 199 207 207 195 207 211 207 218 147 230 233 295 248 297 301 292 292 300 303 300 289 233 304 310 279 288 253 248 154 264 263 250 249
215 201 211 201 194 168 199 202 197 206 209 213 221 208 206 216 220 169 231 246 247 284 280 296 302 229 286 280 278 276 275 292 295 285 289 276 257 242 274 259 251 262 252 226
169 196 207 175 204 203 202 200 206 213 213 212 210 212 83 224 240 251 255 285 282 295 305 295 280 284 274 272 278 278 275 289 315 315 287 267 259 251 250 246 266 245 254 257
196 221 217 211 214 170 212 206 215 213 214 214 220 226 236 253 254 257 269 267 292 287 286 282 270 267 267 261 264 283 286 304 314 309 285 265 252 252 254 248 254 235 231 247
209 213 219 215 209 220 225 212 216 221 218 220 227 228 258 258 267 268 267 293 285 273 286 268 271 273 303 284 282 292 295 290 297 281 300 264 258 251 239 258 236 253 233 237
216 222 219 219 218 214 217 218 222 217 225 232 255 252 245 257 262 280 261 268 272 268 269 265 283 286 303 287 291 309 319 291 296 267 323 269 261 249 256 251 227 253 251 239
224 223 218 223 212 215 222 219 224 227 239 263 250 252 264 268 260 271 276 284 275 262 265 271 283 301 297 288 289 299 292 303 305 314 304 321 266 255 258 231 229 242 245 241
228 226 222 228 223 225 229 231 233 241 255 253 279 266 277 270 265 271 279 281 271 272 277 288 309 300 290 285 298 286 287 284 281 287 267 295 311 267 251 253 240 235 250 255
229 223 227 233 234 235 240 244 242 264 273 274 280 264 265 280 279 271 287 284 278 285 310 312 299 292 284 294 285 281 276 276 277 275 274 290 262 307 263 260 244 249 251 264
240 240 240 240 254 249 260 274 276 271 268 248 178 164 260 268 284 287 289 295 311 322 304 297 289 285 282 286 274 272 267 266 265 264 266 268 277 272 295 265 259 260 256 254
260 253 260 263 267 275 268 263 263 272 147 91 159 255 288 291 303 312 320 327 314 302 292 284 289 265 283 270 265 263 262 260 258 259 257 255 255 258 265 269 295 266 251 254
266 265 271 278 280 270 276 280 267 169 203 316 315 296 312 332 348 347 324 308 295 285 287 282 281 276 266 262 261 257 257 257 256 255 255 256 256 255 255 255 254 263 272 279
287 289 292 286 284 296 273 244 298 320 327 320 320 332 338 334 324 308 299 291 287 283 286 274 269 262 257 255 253 254 256 259 273 324 348 350 345 352 318 264 260 259 258 256
297 293 294 300 336 320 316 324 316 315 319 325 332 352 323 308 301 290 287 288 272 274 273 264 260 255 253 251 254 258 280 337 333 335 333 335 327 323 324 324 322 320 313 272
333 327 325 332 336 344 339 337 328 329 330 338 346 314 299 291 288 288 279 262 275 269 262 253 250 249 249 254 275 300 331 325 311 304 288 292 297 298 297 294 293 293 293 291
341 350 176 156 340 323 321 323 335 333 336 337 305 287 289 289 283 271 261 277 265 259 251 246 247 247 258 284 322 306 298 288 282 278 290 289 284 277 277 274 271 271 271 270
327 274 328 321 318 332 344 365 365 356 312 294 287 290 289 279 260 275 272 262 254 249 244 244 248 257 285 316 303 294 282 283 279 286 281 275 272 267 267 267 264 263 265 264

GFSCGP_2pvu_pres_129.txt.gz
Presure
169 167 198 161 165 178 190 174 175 166 174 179 168 168 176 164 176 179 178 187 186 176 172 188 204 179 187 205 182 191 198 211 207 203 194 198 200 197 200 206 207 207 217 218
179 172 182 185 175 176 176 170 171 174 170 177 170 172 176 182 169 195 177 199 169 207 173 212 191 217 207 210 206 201 206 201 202 208 197 209 208 206 215 210 217 216 229 222
190 184 184 172 164 182 180 169 176 178 184 175 175 184 169 178 171 179 181 186 190 212 205 185 208 211 217 216 211 212 205 205 212 210 206 204 218 216 221 217 216 215 214 218
172 173 157 179 189 189 176 189 189 180 187 188 183 180 183 157 181 176 174 186 200 197 190 202 213 214 215 222 218 214 222 220 208 216 227 232 214 208 205 217 217 197 220 221
168 158 163 176 158 193 184 202 174 174 161 185 182 160 180 169 181 193 183 195 178 197 201 194 220 212 216 206 216 226 222 223 196 231 208 219 216 92 220 226 228 239 252 255
172 164 166 171 177 177 180 186 189 190 177 158 195 200 185 165 170 187 189 184 196 196 193 197 216 200 206 211 203 203 193 196 207 216 213 218 228 238 262 180 289 298 300 299
173 159 188 167 173 167 156 171 174 174 171 177 169 159 179 193 171 200 203 189 199 195 203 194 223 213 203 220 224 223 232 239 245 280 309 314 314 317 108 253 245 340 324 344
181 181 186 192 169 172 170 174 189 165 170 190 187 171 206 169 195 176 197 196 206 207 207 218 219 216 217 226 235 82 304 306 299 302 315 317 320 335 308 320 311 297 299 304
169 182 159 178 170 183 181 182 174 175 175 176 164 165 201 205 188 206 181 211 208 208 218 214 213 219 236 270 272 293 299 298 304 298 238 301 296 300 292 282 294 307 291 312
173 172 171 175 178 170 169 170 180 180 164 174 190 202 208 206 187 205 210 207 209 213 218 215 188 249 266 283 285 303 308 233 290 292 289 286 281 276 299 291 303 288 174 273
173 166 167 183 179 164 188 188 182 166 193 188 209 215 169 203 206 207 214 224 223 222 216 219 244 264 268 289 307 290 279 279 281 280 281 271 282 276 290 288 280 265 253 291
177 176 165 177 171 166 187 189 171 198 196 209 231 172 211 224 212 221 211 219 214 216 217 242 264 271 285 285 292 280 282 266 266 275 273 268 293 293 328 297 273 265 261 250
187 170 192 189 178 192 188 172 194 198 208 211 216 203 207 201 211 209 213 218 223 229 238 263 291 291 283 297 287 99 270 263 293 312 300 299 320 318 309 284 273 255 239 245
197 184 177 193 195 187 198 198 190 218 209 214 212 202 210 218 223 220 228 231 233 239 252 282 288 212 282 293 289 278 275 288 305 300 292 311 297 288 281 275 265 255 248 252
204 198 202 206 204 199 157 204 222 214 217 213 223 213 223 229 226 235 241 232 240 246 286 280 285 283 277 285 281 283 287 303 305 288 296 301 302 314 273 291 265 257 246 244
199 204 224 227 221 222 224 227 210 217 215 221 219 230 227 229 229 230 233 238 243 280 279 276 263 287 282 286 246 286 304 309 294 298 297 291 296 316 303 303 268 254 253 251
215 216 215 222 217 215 219 216 220 181 226 229 230 229 229 230 231 235 232 244 280 279 286 270 290 286 289 289 293 328 308 292 295 290 291 286 282 291 289 294 295 255 258 250
231 231 232 231 228 231 230 230 230 228 231 231 233 239 237 234 240 244 209 197 228 288 293 291 293 289 294 322 325 302 290 293 291 282 279 277 276 280 273 279 297 280 255 258
243 240 235 237 239 236 236 237 235 236 237 243 238 244 250 255 267 170 191 280 290 293 300 295 299 318 332 311 298 287 296 287 277 274 269 268 264 265 266 263 286 271 292 263
260 254 250 246 246 247 248 241 246 251 263 244 244 254 259 147 155 164 190 287 301 325 309 319 332 319 304 290 291 284 285 275 268 264 263 262 258 260 260 262 261 270 264 285
283 273 268 262 262 264 259 260 261 260 192 262 267 272 141 283 299 294 292 317 312 326 362 336 307 294 288 295 283 278 269 264 264 260 260 256 254 256 256 255 255 260 260 260
287 288 288 288 285 283 278 274 274 266 273 271 295 293 296 295 300 311 320 355 345 331 312 300 290 293 277 260 269 264 261 256 259 259 267 285 350 356 345 372 338 279 264 260
307 301 296 298 296 296 294 296 315 311 303 297 299 299 301 337 341 329 342 334 315 302 292 291 289 264 274 264 261 253 253 256 268 292 342 327 329 334 334 325 324 331 326 312
312 309 310 309 310 308 302 302 303 302 305 307 341 328 327 336 320 334 323 308 298 288 291 274 271 269 262 254 251 250 258 277 336 326 311 301 294 294 293 293 292 291 292 292
305 309 311 310 310 312 322 327 336 335 331 331 337 343 338 318 338 313 302 291 284 283 266 273 265 259 251 249 249 259 287 321 313 304 291 283 285 280 279 280 276 274 272 273
337 334 335 341 339 187 284 352 355 344 336 332 329 335 341 347 308 296 295 286 276 259 267 262 255 250 247 247 256 278 307 309 299 289 280 274 276 270 276 275 273 267 264 262